[[{"header":{"parameterUnit":"m.s-1","parameterCategory":1,"la1":30.6,"la2":29.2853,"lo1":-89.7004,"lo2":-87.6739,"dy":0.0162,"dx":0.0183,"nx":112,"ny":82,"refTime":"2024-02-07T18:00:00:Z","depth":0,"parameterNumber":2,"parameterNumberName":"U-component_of_WINDS"},"data":[0.0,0.0,0.0,0.0,0.0,0.0,0.0,0.0,0.0,0.0,0.0,0.0,0.0,0.0,0.0,0.0,0.0,0.0,0.0,0.0,0.0,0.0,0.0,0.0,0.0,0.0,0.0,0.0,0.0,0.0,0.0,0.0,0.0,0.0,0.0,0.0,0.0,0.0,0.0,0.0,0.0,0.0,0.0,0.0,0.0,0.0,0.0,0.0,0.0,0.0,0.0,0.0,0.0,0.0,0.0,0.0,0.0,0.0,0.0,0.0,0.0,0.0,0.0,0.0,0.0,0.0,0.0,0.0,0.0,0.0,0.0,0.0,0.0,0.0,0.0,0.0,0.0,0.0,0.0,0.0,0.0,0.0,0.0,0.0,0.0,0.0,0.0,0.0,0.0,0.0,2.7132,2.7531,2.7437,2.6867,2.5771,2.5693,2.4324,2.1098,0.0,0.0,0.0,0.0,0.0,0.0,0.0,0.0,0.0,0.0,0.0,0.0,0.0,0.0,0.0,0.0,0.0,0.0,0.0,0.0,0.0,0.0,0.0,0.0,0.0,0.0,0.0,0.0,0.0,0.0,0.0,0.0,0.0,0.0,0.0,0.0,0.0,0.0,0.0,0.0,0.0,0.0,0.0,0.0,0.0,0.0,0.0,0.0,0.0,0.0,0.0,0.0,0.0,0.0,0.0,0.0,0.0,0.0,0.0,0.0,0.0,0.0,0.0,0.0,0.0,0.0,0.0,0.0,0.0,0.0,0.0,0.0,0.0,0.0,0.0,0.0,0.0,0.0,0.0,0.0,0.0,0.0,0.0,0.0,0.0,0.0,0.0,0.0,0.0,0.0,0.0,0.0,0.0,0.0,0.0,0.0,0.0,0.0,0.0,0.0,0.0,0.0,0.0,0.0,2.5043,2.7342,2.6547,2.5779,2.5723,2.5693,2.3895,1.9679,0.0,0.0,0.0,0.0,0.0,0.0,0.0,0.0,0.0,0.0,0.0,0.0,0.0,0.0,0.0,0.0,0.0,0.0,0.0,0.0,0.0,0.0,0.0,0.0,0.0,0.0,0.0,0.0,0.0,0.0,0.0,0.0,0.0,0.0,0.0,0.0,0.0,0.0,0.0,0.0,0.0,0.0,0.0,0.0,0.0,0.0,0.0,0.0,0.0,0.0,0.0,0.0,0.0,0.0,0.0,0.0,0.0,0.0,0.0,0.0,0.0,0.0,0.0,0.0,0.0,0.0,0.0,0.0,0.0,0.0,0.0,0.0,0.0,0.0,0.0,0.0,0.0,0.0,0.0,0.0,0.0,0.0,0.0,0.0,0.0,0.0,0.0,0.0,0.0,0.0,0.0,0.0,0.0,0.0,0.0,0.0,0.0,0.0,0.0,0.0,0.0,0.0,0.0,2.2633,2.3295,2.5285,2.4251,2.3462,2.3534,2.3534,2.1996,1.8482,1.8548,0.0,0.0,0.0,0.0,0.0,0.0,0.0,0.0,0.0,0.0,0.0,0.0,0.0,0.0,0.0,0.0,0.0,0.0,0.0,0.0,0.0,0.0,0.0,0.0,0.0,0.0,0.0,0.0,0.0,0.0,0.0,0.0,0.0,0.0,0.0,0.0,0.0,0.0,0.0,0.0,0.0,0.0,0.0,0.0,0.0,0.0,0.0,0.0,0.0,0.0,0.0,0.0,0.0,0.0,0.0,0.0,0.0,0.0,0.0,0.0,0.0,0.0,0.0,0.0,0.0,0.0,0.0,0.0,0.0,0.0,0.0,0.0,0.0,0.0,0.0,0.0,0.0,0.0,0.0,0.0,0.0,0.0,0.0,0.0,0.0,0.0,0.0,0.0,0.0,0.0,0.0,0.0,0.0,0.0,0.0,0.0,0.0,0.0,0.0,0.0,0.0,0.0,2.2399,2.2567,2.3583,2.2517,2.1693,2.1693,2.1693,2.022,1.6689,1.6212,0.0,0.0,0.0,0.0,0.0,0.0,0.0,0.0,0.0,0.0,0.0,0.0,0.0,0.0,0.0,0.0,0.0,0.0,0.0,0.0,0.0,0.0,0.0,0.0,0.0,0.0,0.0,0.0,0.0,0.0,0.0,0.0,0.0,0.0,0.0,0.0,0.0,0.0,0.0,0.0,0.0,0.0,0.0,0.0,0.0,0.0,0.0,0.0,0.0,0.0,0.0,0.0,0.0,0.0,0.0,0.0,0.0,0.0,0.0,0.0,0.0,0.0,0.0,0.0,0.0,0.0,0.0,0.0,0.0,0.0,0.0,0.0,0.0,0.0,0.0,0.0,0.0,0.0,0.0,0.0,0.0,0.0,0.0,0.0,0.0,0.0,0.0,0.0,0.0,0.0,0.0,0.0,0.0,0.0,0.0,0.0,0.0,0.0,0.0,0.0,0.0,0.0,2.1996,2.3583,2.3683,2.2517,2.1693,2.1693,2.1693,1.9324,1.3773,1.3371,0.0,0.0,0.0,0.0,0.0,0.0,0.0,0.0,0.0,0.0,0.0,0.0,0.0,0.0,0.0,0.0,0.0,0.0,0.0,0.0,0.0,0.0,0.0,0.0,0.0,0.0,0.0,0.0,0.0,0.0,0.0,0.0,0.0,0.0,0.0,0.0,0.0,0.0,0.0,0.0,0.0,0.0,0.0,0.0,0.0,0.0,0.0,0.0,0.0,0.0,0.0,0.0,0.0,0.0,0.0,0.0,0.0,0.0,0.0,0.0,0.0,0.0,0.0,0.0,0.0,0.0,0.0,0.0,0.0,0.0,0.0,0.0,0.0,0.0,0.0,0.0,0.0,0.0,0.0,0.0,0.0,0.0,0.0,0.0,0.0,0.0,0.0,0.0,0.0,0.0,0.0,0.0,0.0,0.0,0.0,0.0,0.0,0.0,0.0,0.0,0.0,0.0,1.9928,2.1151,2.1151,1.9922,1.9161,1.9161,1.83,1.6057,1.2061,0.0,0.0,0.0,0.0,0.0,0.0,0.0,0.0,0.0,0.0,0.0,0.0,0.0,0.0,0.0,0.0,0.0,0.0,0.0,0.0,0.0,0.0,0.0,0.0,0.0,0.0,0.0,0.0,0.0,0.0,0.0,0.0,0.0,0.0,0.0,0.0,0.0,0.0,0.0,0.0,0.0,0.0,0.0,0.0,0.0,0.0,0.0,0.0,0.0,0.0,0.0,0.0,0.0,0.0,0.0,0.0,0.0,0.0,0.0,0.0,0.0,0.0,0.0,0.0,0.0,0.0,0.0,0.0,0.0,0.0,0.0,0.0,0.0,0.0,0.0,0.0,0.0,0.0,0.0,0.0,0.0,0.0,0.0,0.0,0.0,0.0,0.0,0.0,0.0,0.0,0.0,0.0,0.0,0.0,0.0,0.0,0.0,0.0,0.0,0.0,0.0,0.0,1.6937,1.9192,2.059,1.9679,1.876,1.7884,1.6988,1.5956,1.3762,0.9868,0.0,0.0,0.0,0.0,0.0,0.0,0.0,0.0,0.0,0.0,0.0,0.0,0.0,0.0,0.0,0.0,0.0,0.0,0.0,0.0,0.0,0.0,0.0,0.0,0.0,0.0,0.0,0.0,0.0,0.0,0.0,0.0,0.0,0.0,0.0,0.0,0.0,0.0,0.0,0.0,0.0,0.0,0.0,0.0,0.0,0.0,0.0,0.0,0.0,0.0,0.0,0.0,0.0,0.0,0.0,0.0,0.0,0.0,0.0,0.0,0.0,0.0,0.0,0.0,0.0,0.0,0.0,0.0,0.0,0.0,0.0,0.0,0.0,0.0,0.0,0.0,0.0,0.0,0.0,0.0,0.0,0.0,0.0,0.0,0.0,0.0,0.0,0.0,0.0,0.0,0.0,0.0,0.0,0.0,0.0,0.0,0.0,0.0,0.0,0.0,0.0,0.0,1.5635,2.0174,2.2617,1.9886,1.9576,1.8418,1.5624,1.5411,1.2881,0.0,0.0,0.0,0.0,0.0,0.0,0.0,0.0,0.0,0.0,0.0,0.0,0.0,0.0,0.0,0.0,0.0,0.0,0.0,0.0,0.0,0.0,0.0,0.0,0.0,0.0,0.0,0.0,0.0,0.0,0.0,0.0,0.0,0.0,0.0,0.0,0.0,0.0,0.0,0.0,0.0,0.0,0.0,0.0,0.0,0.0,0.0,0.0,0.0,0.0,0.0,0.0,0.0,0.0,0.0,0.0,0.0,0.0,0.0,0.0,0.0,0.0,0.0,0.0,0.0,0.0,0.0,0.0,0.0,0.0,0.0,0.0,0.0,0.0,0.0,0.0,0.0,0.0,0.0,0.0,0.0,0.0,0.0,0.0,0.0,0.0,0.0,0.0,0.0,0.0,0.0,0.0,0.0,0.0,0.0,0.0,0.0,0.0,0.0,0.0,0.0,0.0,0.0,1.4148,1.7946,2.0143,1.8408,1.8199,1.745,1.5571,1.4502,1.181,0.6924,0.0,0.0,0.0,0.0,0.0,0.0,0.0,0.0,0.0,0.0,0.0,0.0,0.0,0.0,0.0,0.0,0.0,0.0,0.0,0.0,0.0,0.0,0.0,0.0,0.0,0.0,0.0,0.0,0.0,0.0,0.0,0.0,0.0,0.0,0.0,0.0,0.0,0.0,0.0,0.0,0.0,0.0,0.0,0.0,0.0,0.0,0.0,0.0,0.0,0.0,0.0,0.0,0.0,0.0,0.0,0.0,0.0,0.0,0.0,0.0,0.0,0.0,0.0,0.0,0.0,0.0,0.0,0.0,0.0,0.0,0.0,0.0,0.0,0.0,0.0,0.0,0.0,0.0,0.0,0.0,0.0,0.0,0.0,0.0,0.0,0.0,0.0,0.0,0.0,0.0,0.0,0.0,0.0,0.0,0.0,0.0,0.0,0.0,0.0,0.0,0.0,0.0,1.347,1.6489,1.8471,1.7687,1.7094,1.6115,1.4663,1.3804,1.1394,0.6945,0.0,0.0,0.0,0.0,0.0,0.0,0.0,0.0,0.0,0.0,0.0,0.0,0.0,0.0,0.0,0.0,0.0,0.0,0.0,0.0,0.0,0.0,0.0,0.0,0.0,0.0,0.0,0.0,0.0,0.0,0.0,0.0,0.0,0.0,0.0,0.0,0.0,0.0,0.0,0.0,0.0,0.0,0.0,0.0,0.0,0.0,0.0,0.0,0.0,0.0,0.0,0.0,0.0,0.0,0.0,0.0,0.0,0.0,0.0,0.0,0.0,0.0,0.0,0.0,0.0,0.0,0.0,0.0,0.0,0.0,0.0,0.0,0.0,0.0,0.0,0.0,0.0,0.0,0.0,0.0,0.0,0.0,0.0,0.0,0.0,0.0,0.0,0.0,0.0,0.0,0.0,0.0,0.0,0.0,0.0,0.0,0.0,0.0,0.0,0.0,0.0,0.0,1.3254,1.5589,1.7292,1.7199,1.6009,1.4609,1.321,1.3102,1.1248,0.6977,0.0,0.0,0.0,0.0,0.0,0.0,0.0,0.0,0.0,0.0,0.0,0.0,0.0,0.0,0.0,0.0,0.0,0.0,0.0,0.0,0.0,0.0,0.0,0.0,0.0,0.0,0.0,0.0,0.0,0.0,0.0,0.0,0.0,0.0,0.0,0.0,0.0,0.0,0.0,0.0,0.0,0.0,0.0,0.0,0.0,0.0,0.0,0.0,0.0,0.0,0.0,0.0,0.0,0.0,0.0,0.0,0.0,0.0,0.0,0.0,0.8596,0.0,0.0,0.0,0.0,0.0,0.0,0.0,0.0,0.0,0.0,0.0,0.0,0.0,0.0,0.0,0.0,0.0,0.0,0.0,0.0,0.0,0.0,0.0,0.0,0.0,0.0,0.0,0.0,0.0,0.0,0.0,0.0,0.0,0.0,0.0,0.0,0.0,0.0,0.0,0.0,0.0,1.1755,1.4062,1.5399,1.4341,1.3965,1.3156,1.1701,1.1592,1.0163,0.6922,0.3895,0.0,0.0,0.0,0.0,0.0,0.0,0.0,0.0,0.0,0.0,0.0,0.0,0.0,0.0,0.0,0.0,0.0,0.0,0.0,0.0,0.0,0.0,0.0,0.0,0.0,0.0,0.0,0.0,0.0,0.0,0.0,0.0,0.0,0.0,0.0,0.0,0.0,0.0,0.0,0.0,0.0,0.0,0.0,0.0,0.0,0.0,0.0,0.0,0.0,0.0,0.0,0.0,0.0,0.0,0.0,0.0,0.0,0.0,0.0,0.0,0.9956,0.0,0.0,0.0,0.0,0.0,0.0,0.0,0.0,0.0,0.0,0.0,0.0,0.0,0.0,0.0,0.0,0.0,0.0,0.0,0.0,0.0,0.0,0.0,0.0,0.0,0.0,0.0,0.0,0.0,0.0,0.0,0.0,0.0,0.0,0.0,0.0,0.0,0.0,0.0,0.0,1.121,1.2398,1.3318,1.3318,1.267,1.1919,1.1164,1.1109,0.9841,0.6866,0.3895,0.0,0.0,0.0,0.0,0.0,0.0,0.0,0.0,0.0,0.0,0.0,0.0,0.0,0.0,0.0,0.0,0.0,0.0,0.0,0.0,0.0,0.0,0.0,0.0,0.0,0.0,0.0,0.0,0.0,0.0,0.0,0.0,0.0,0.0,0.0,0.0,0.0,0.0,0.0,0.0,0.0,0.0,0.0,0.0,0.0,0.0,0.0,0.0,0.0,0.0,0.0,0.0,0.0,1.1153,1.191,1.1971,1.3226,1.4466,1.5523,1.4212,1.3465,1.3173,1.2124,0.0,0.0,0.0,0.0,0.0,0.0,0.0,0.0,0.0,0.0,0.0,0.0,0.0,0.0,0.0,0.0,0.0,0.0,0.0,0.0,0.0,0.0,0.0,0.0,2.3067,2.3035,0.0,0.0,0.0,0.0,0.0,0.0,0.0,0.0,0.0,0.0,0.0,0.0,1.0726,1.0945,1.1483,1.2408,1.1428,1.0726,1.0726,1.0507,0.9292,0.6866,0.3617,0.0611,0.0,0.0,0.0,0.0,0.0,0.0,0.0,0.0,0.0,0.0,0.0,0.0,0.0,0.0,0.0,0.0,0.0,0.0,0.0,0.0,0.0,0.0,0.0,0.0,0.0,0.0,0.0,0.0,0.0,0.0,0.0,0.0,0.3738,0.3738,0.0,0.0,0.0,0.0,0.0,0.0,0.0,0.0,0.0,0.0,0.0,0.0,0.0,0.8845,1.0467,1.1642,1.2263,1.2292,1.5041,1.633,1.6343,1.6794,1.7095,1.7252,1.7055,0.0,1.5033,1.4874,0.0,0.0,0.0,0.0,0.0,0.0,0.0,0.0,0.0,0.0,0.0,0.0,0.0,0.0,0.0,0.0,0.0,0.0,0.0,0.0,0.0,0.0,2.5167,2.5167,2.4412,2.3285,0.0,1.9361,1.7003,1.5399,1.3965,0.0,0.0,0.0,0.0,0.0,0.0,0.0,0.9375,1.0296,1.0672,0.9588,0.932,0.921,0.921,0.8036,0.7088,0.67,0.2674,-0.0445,-0.2111,-0.4734,0.0,0.0,0.0,0.0,0.0,0.0,0.0,0.0,0.0,0.0,0.0,0.0,0.0,0.0,0.0,0.0,0.0,0.0,0.0,0.0,0.0,0.0,0.0,0.0,0.0,0.0,0.0,0.0,0.0,0.2159,0.2864,0.2864,0.2364,0.2012,0.0,0.0,0.0,0.0,0.0,0.0,0.0,0.0,0.0,1.1699,1.1911,1.274,1.439,1.4978,1.5357,1.5515,1.6834,1.7447,1.7447,1.7528,1.7582,1.7582,1.7582,1.7252,1.6552,1.5743,1.4663,1.3426,0.0,0.0,0.0,0.0,1.2344,1.2561,1.3965,1.4502,0.0,1.4502,0.0,0.0,0.0,0.0,0.0,0.0,0.0,0.0,0.0,0.0,0.0,2.3285,2.3018,2.2215,2.0845,1.9546,1.8025,0.0,1.4877,1.375,1.1483,0.0,0.0,0.0,0.0,1.057,0.9099,0.9485,0.9588,0.8995,0.8885,0.8546,0.7709,0.7093,0.5635,0.3119,0.0334,-0.2281,-0.462,-0.6805,-0.9354,0.0,0.0,0.0,0.0,0.0,0.0,0.0,0.0,0.0,0.0,0.0,0.0,0.0,0.0,0.0,0.0,0.0,0.0,0.0,0.0,0.0,0.0,0.0,0.0,0.0,0.0,0.0,0.0,0.2615,0.3017,0.3017,0.3017,0.3165,0.0,0.0,0.0,0.0,0.0,0.0,0.9501,1.0801,1.2284,1.3886,1.4871,1.6024,1.7313,1.7313,1.742,1.7582,1.7582,1.7582,1.7582,1.7582,1.7582,1.7582,1.7582,1.7582,1.7529,1.6446,1.5743,1.5304,1.4234,1.3642,1.3318,1.3696,1.3857,1.4019,1.5476,1.5956,1.5956,1.5956,0.0,1.5198,1.418,0.0,0.0,0.0,0.0,1.6343,1.8102,1.9376,2.0385,2.144,2.144,2.0896,1.9834,1.9317,1.8485,0.0,1.5956,1.5144,1.2615,0.0,0.0,0.0,0.0,1.057,0.9099,0.8885,0.8885,0.8885,0.8885,0.8318,0.6811,0.5968,0.3956,0.0223,-0.2114,-0.4505,-0.7133,-0.8699,-1.0672,-1.3264,0.0,0.0,0.0,0.0,0.0,0.0,0.0,0.0,0.0,0.0,0.0,0.0,0.0,0.0,0.0,0.0,0.0,0.0,0.0,0.0,0.0,0.0,0.0,0.0,0.0,0.0,0.0,0.0,0.0,0.5777,0.5777,0.0,0.0,0.0,0.0,0.8176,0.9756,1.1202,1.2486,1.3869,1.5314,1.6947,1.7025,1.7261,1.7555,1.7555,1.7569,1.7582,1.7582,1.7582,1.7582,1.7582,1.7582,1.7582,1.7582,1.7582,1.7582,1.7529,1.6658,1.5411,1.5304,1.4502,1.348,1.4824,1.5304,1.5518,1.6988,1.7477,1.7477,1.7477,1.6552,1.5411,1.5304,1.4341,0.0,0.0,1.7318,1.805,2.0762,2.1541,2.1592,2.1693,2.0692,1.9679,1.9627,1.8603,1.7687,0.0,1.7477,1.6988,1.5476,0.0,1.4288,1.1428,1.1055,1.057,0.9099,0.8885,0.8885,0.8885,0.8885,0.8318,0.6811,0.4061,0.1723,0.0111,-0.4067,-0.7188,-0.8708,-1.021,-1.1701,-1.3264,-1.4609,0.0,0.0,0.0,0.0,0.0,0.0,0.0,0.0,0.0,0.0,0.0,0.0,0.0,0.0,0.0,0.0,0.0,0.0,0.0,0.0,0.0,0.0,0.0,0.0,0.0,0.0,0.0,0.0,0.4818,0.5578,0.0,0.6884,0.8241,0.965,1.0994,1.3268,1.4886,1.5577,1.6087,1.6703,1.7422,1.7474,1.7475,1.7582,1.7582,1.7582,1.7582,1.7582,1.7582,1.7582,1.7582,1.7582,1.7582,1.7582,1.7582,1.7582,1.7582,1.7305,1.6817,1.6817,1.6499,1.6127,1.6605,1.6817,1.6869,1.7424,1.7582,1.7582,1.7582,1.7252,1.6658,1.5689,1.5689,1.5902,1.5015,1.5441,1.6396,1.7397,1.7646,1.7868,1.8835,1.8655,1.8304,1.8304,1.7186,1.6168,1.6168,1.6168,1.6009,1.5476,1.4663,1.3372,1.1374,1.1109,1.057,0.9099,0.8885,0.8885,0.8885,0.8885,0.7931,0.5472,0.3395,0.0723,-0.2678,-0.5301,-0.7802,-1.021,-1.0828,-1.2236,-1.4609,-1.6025,-1.7042,0.0,0.0,0.0,0.0,0.0,0.0,0.0,0.0,0.0,0.0,0.0,0.0,0.0,0.0,0.0,0.0,0.0,0.0,0.0,0.0,0.0,0.0,0.0,0.0,0.0,0.4645,0.5775,0.4863,0.6123,0.7382,0.834,1.0226,1.2151,1.3997,1.5896,1.7088,1.734,1.734,1.7434,1.7569,1.7582,1.7582,1.7582,1.7582,1.7582,1.7582,1.7582,1.7582,1.7582,1.7582,1.7582,1.7582,1.7582,1.7582,1.7582,1.7582,1.7582,1.7582,1.7582,1.7582,1.7582,1.7582,1.7582,1.7582,1.7582,1.7582,1.7582,1.7582,1.7252,1.6764,1.6287,1.6499,1.6446,1.4556,1.4663,1.5304,1.4824,1.4716,1.4931,1.5902,1.6168,1.6168,1.6168,1.537,1.4716,1.4716,1.4716,1.4716,1.4716,1.3911,1.3024,1.211,1.1524,1.0841,0.9965,0.937,0.9008,0.9008,0.8517,0.6977,0.3959,0.2338,-0.0445,-0.4972,-0.6634,-0.8783,-1.1701,-1.229,-1.3696,-1.6115,-1.7932,-1.9317,-2.0271,0.0,0.0,0.0,0.0,0.0,0.0,0.0,0.0,0.0,0.0,0.0,0.0,0.0,0.0,0.0,0.0,0.0,0.0,0.0,0.0,0.0,0.0,0.0,0.4282,0.5408,0.6349,0.6349,0.7657,0.9623,1.2299,1.2851,1.4201,1.6949,1.7422,1.7582,1.7582,1.7582,1.7582,1.7582,1.7582,1.7582,1.7582,1.7582,1.7582,1.7582,1.7582,1.7582,1.7582,1.7582,1.7582,1.7582,1.7582,1.7582,1.7582,1.7582,1.7582,1.7582,1.7582,1.7582,1.7582,1.7582,1.7582,1.7582,1.7582,1.7582,1.7582,1.7582,1.6605,1.5689,1.7041,1.6446,1.5304,1.5198,1.5251,1.4931,1.3588,1.321,1.3264,1.3264,1.3318,1.3318,1.3329,1.3275,1.3221,1.3231,1.3231,1.3231,1.3275,1.3231,1.3301,1.3568,1.2265,0.0,1.1699,1.0266,0.9214,0.9214,0.7735,0.5524,0.2448,0.0835,-0.195,-0.6473,-0.817,-1.0296,-1.3264,-1.4716,-1.6221,-1.7779,-2.0291,-2.2892,-2.5575,0.0,0.0,0.0,0.0,0.0,0.0,0.0,0.0,0.0,0.0,0.0,0.0,0.0,0.0,0.0,0.0,0.0,0.0,0.0,0.0,0.0,0.4302,0.6271,0.5746,0.697,0.789,0.789,0.9279,1.0534,1.1265,1.3403,1.504,1.5846,1.6936,1.7582,1.7582,1.7582,1.7582,1.7582,1.7582,1.7582,1.7582,1.7582,1.7582,1.7582,1.7582,1.7582,1.7582,1.7582,1.7582,1.7582,1.7582,1.7582,1.7582,1.7582,1.7582,1.7582,1.7582,1.7582,1.7582,1.7582,1.7582,1.7582,1.7582,1.7582,1.7582,1.7582,1.6605,1.5304,1.4663,1.418,1.3426,1.1265,1.1483,1.2191,1.181,1.1701,1.1973,1.3048,1.3318,1.3315,1.3422,1.2625,1.1886,1.198,1.1167,1.1126,1.3096,1.1807,1.085,1.1964,1.0841,0.0,1.0062,0.9629,0.932,0.932,0.8935,0.6951,0.2771,0.1015,-0.2297,-0.7944,-0.9662,-1.1792,-1.4716,-1.6184,-1.8518,-2.1963,-2.2613,-2.4275,0.0,0.0,0.0,0.0,0.0,0.0,0.0,0.0,0.0,0.0,0.0,0.0,0.0,0.0,0.0,0.0,0.0,0.0,0.0,0.0,0.0,0.0,0.5922,0.7369,0.7293,0.8038,0.8574,0.8574,0.9455,1.0571,1.1791,1.3505,1.5037,1.6221,1.7094,1.7582,1.7582,1.7582,1.7582,1.7582,1.7582,1.7582,1.7582,1.7582,1.7582,1.7582,1.7582,1.7582,1.7582,1.7582,1.7582,0.0,1.7582,1.7582,1.7529,1.6935,1.7041,0.0,0.0,0.0,0.0,0.0,1.7582,1.7582,1.7582,1.7199,1.6658,1.6658,1.5263,1.3588,1.3372,1.2886,1.2028,1.0296,1.046,1.0945,1.0351,1.0186,1.0406,1.1265,1.1544,1.1576,1.169,1.1053,1.0509,1.0609,1.0004,0.0,1.1585,1.0509,0.9917,1.1471,1.0456,0.9731,1.0487,0.932,0.8466,0.8466,0.6574,0.4009,0.069,-0.097,0.0,0.0,0.0,-1.2901,-1.6989,-1.7921,0.0,0.0,0.0,-2.6689,-2.9761,0.0,0.0,0.0,-3.4348,-3.4377,0.0,0.0,0.0,0.0,0.0,0.0,0.0,0.0,0.0,0.0,0.0,0.0,0.0,0.0,0.0,0.0,0.7773,0.8737,0.8737,0.8737,0.8737,0.8737,0.8961,1.0241,1.3048,1.3318,1.4502,1.7371,1.7477,1.7424,1.7582,0.0,0.0,0.0,0.0,1.7582,1.7582,1.7582,1.7582,1.7582,1.7424,1.7424,1.7582,1.7424,1.7424,1.7582,1.7424,1.7371,1.7252,1.5796,1.5902,1.7147,1.7477,1.7477,1.7371,1.7371,1.7252,1.7094,1.7094,0.0,0.0,1.5144,1.3318,1.1319,1.267,1.2028,1.0836,1.0836,1.0836,1.0562,0.9265,0.8898,0.8905,0.8905,0.9076,0.9241,0.9255,0.9313,0.9408,0.9429,0.9544,0.9632,0.9632,0.9517,0.9996,1.1535,1.0569,1.0091,1.1471,0.9014,0.6975,0.6612,0.0,0.0,-0.2571,-0.4095,-0.6791,-1.1251,-1.18,-1.4338,-1.9612,-1.9989,-2.1862,-2.5672,-2.6966,-2.933,-3.2817,-3.509,-3.676,-3.7738,-3.474,-3.4498,0.0,0.0,0.0,0.0,0.0,0.0,0.0,0.0,0.0,0.0,0.0,0.0,0.0,0.0,0.0,0.6383,0.7913,0.8838,0.8838,0.8838,0.8838,0.8838,0.9951,1.1374,1.3102,1.3318,1.4502,1.7371,1.6499,1.634,1.7529,1.7582,1.7582,1.7582,1.7582,1.7582,1.7582,1.7582,1.7582,1.7582,0.0,0.0,1.7582,1.6393,1.6446,1.7529,1.634,1.5849,1.5743,1.4288,1.3857,1.4341,1.6711,1.6882,1.5849,1.5849,1.5091,1.4126,1.4126,1.3965,1.3696,1.3696,1.2507,1.1164,1.1428,1.0507,0.0,0.932,0.932,0.9265,0.8995,0.9022,0.9166,0.9166,0.9225,0.9367,0.9496,0.9544,0.9598,0.9713,0.9761,0.9781,0.9781,0.9754,0.9861,1.019,0.9956,0.9418,0.8453,0.7768,0.6341,0.3648,0.2546,0.0301,-0.392,-0.5474,-0.8187,-1.2766,-1.6147,-1.8933,-2.1186,-2.2316,-2.4239,-2.7132,-2.8405,-3.0257,-3.2817,-3.509,-3.676,-3.7776,-3.8011,-3.8729,0.0,0.0,0.0,0.0,0.0,0.0,0.0,0.0,0.0,0.0,0.0,-0.1018,0.1978,0.0,0.5279,0.744,0.8446,0.8885,0.8885,0.8885,0.8885,0.8885,0.9533,1.0562,1.2082,1.2191,1.3102,1.5263,1.5423,1.5743,1.6446,1.7199,1.7582,1.7582,1.7582,1.7582,1.7582,1.6882,1.6499,1.6499,1.5037,1.5091,1.6446,1.5743,1.6221,1.7529,1.6062,1.5411,1.5304,1.3857,1.2886,1.2398,1.4609,1.4984,1.4341,1.4341,1.3911,1.3318,1.3318,1.2832,1.2191,1.2191,1.121,1.0021,1.0021,0.9478,0.8885,0.8885,0.8885,0.8898,0.9028,0.9096,0.9228,0.9309,0.9388,0.9517,0.9591,0.9666,0.9734,0.9808,0.9822,0.9822,0.9822,0.9822,0.9822,0.9822,0.914,0.8282,0.7484,0.5953,0.3985,0.153,-0.0245,-0.2497,-0.5746,-0.8701,-1.1898,-1.5502,-1.8289,-2.0726,-2.2634,-2.3925,-2.6056,-2.926,-3.0481,-3.2493,-3.5305,-3.6459,-3.7548,-3.862,-3.96,-4.0274,0.0,0.0,0.0,0.0,0.0,0.0,0.0,-0.4372,-0.4957,-0.3155,-0.1952,-0.0274,0.2778,0.4199,0.581,0.8491,0.8885,0.8885,0.8885,0.8885,0.8885,0.8885,0.8885,0.9478,1.0945,1.0836,1.1374,1.3156,1.4073,1.4716,1.4984,1.6115,1.6764,1.6764,1.6764,1.6764,1.6764,1.563,1.501,1.501,1.3919,1.4158,1.551,1.5564,1.6382,1.7702,1.5899,1.4808,1.4147,1.3341,1.2064,1.0885,1.2356,1.2708,1.2453,1.2778,1.267,1.2453,1.2453,1.1647,1.0672,1.0672,0.9864,0.8885,0.8885,0.8885,0.8885,0.8885,0.8905,0.9008,0.918,0.9255,0.933,0.9395,0.9544,0.9652,0.9652,0.9741,0.9822,0.9822,0.9822,0.9822,0.9822,0.9511,0.9451,0.9761,0.8404,0.7296,0.693,0.4052,0.1229,-0.0736,-0.362,-0.6311,-0.8527,-1.2619,-1.6045,-1.8306,-2.0015,-2.19,-2.4089,-2.547,-2.7793,-3.1273,-3.2511,-3.467,-3.7805,-3.7805,-3.8442,-3.9666,-4.0378,-4.0792,-0.7988,-0.7018,-0.5667,-0.4332,-0.4125,-0.3613,0.0,-0.1525,-0.1746,0.0941,0.1614,0.2672,0.5673,0.6357,0.6982,0.8657,0.8885,0.8885,0.8885,0.8885,0.8885,0.8885,0.8885,0.9478,1.0945,0.9911,1.0296,1.3102,1.2245,1.2136,1.348,1.3696,1.3804,1.3804,1.3804,1.3804,1.3804,1.3741,1.3733,1.3733,1.376,1.4593,1.606,1.616,1.7006,1.8218,1.5322,1.2559,1.0184,1.1257,1.0818,0.9574,1.0955,1.0643,0.9533,1.0836,1.0515,0.9375,0.9375,0.9265,0.9154,0.9154,0.9044,0.8885,0.8885,0.8885,0.8885,0.8885,0.9028,0.9187,0.9207,0.9354,0.9564,0.9578,0.9693,0.9795,0.9795,0.9808,0.9822,0.9822,0.9822,0.9822,0.9822,0.8587,0.816,0.9572,0.8404,0.6869,0.5345,0.2331,-0.092,-0.3991,-0.6014,-0.8817,-1.3061,-1.6413,-1.8874,-2.0283,-2.2578,-2.4459,-2.5866,-2.7699,-2.9939,-3.2536,-3.3669,-3.5371,-3.7805,-3.7805,-3.8752,-4.0554,-4.0656,-4.1098,-0.6103,-0.5326,-0.4418,-0.2236,-0.2308,-0.2438,-0.0442,-0.1109,-0.1553,0.0503,0.0896,0.1846,0.486,0.5417,0.62,0.8546,0.8885,0.8885,0.8885,0.8885,0.8885,0.8885,0.8885,0.9154,0.9754,0.9265,0.943,1.0672,1.0945,1.1374,1.1973,1.2832,1.3318,1.3318,1.3396,1.3412,1.3412,1.2674,1.2325,1.2325,1.1625,1.206,1.3411,1.3468,1.3865,1.4328,1.3079,1.1315,0.9439,1.0062,0.991,0.9401,0.996,0.9752,0.9105,0.9625,0.943,0.8885,0.8885,0.8885,0.8885,0.8885,0.8885,0.8885,0.8885,0.8885,0.8898,0.9042,0.9166,0.9248,0.9374,0.951,0.9632,0.9713,0.9781,0.9822,0.9822,0.9079,0.8404,0.8404,0.7612,0.6935,0.6935,0.6385,0.6202,0.6874,0.5586,0.3929,0.227,0.0,-0.2701,-0.6014,-0.863,-1.1319,-1.4163,-1.7259,-2.0116,-2.2683,-2.4602,-2.6636,-2.8907,-3.0458,-3.235,-3.4605,-3.5797,-3.7406,-3.951,-3.951,-4.0178,-4.1462,-4.1949,-4.2611,-0.5377,-0.4425,-0.3594,-0.1144,-0.1097,-0.1324,-0.0224,-0.084,-0.1287,-0.0224,0.0,0.0784,0.341,0.3857,0.486,0.782,0.8269,0.8436,0.883,0.8885,0.8885,0.8885,0.8885,0.8885,0.8885,0.8885,0.8885,0.8885,0.9919,1.0515,1.0515,1.1535,1.2156,1.2156,1.2302,1.2356,1.2356,1.1413,1.0991,1.0991,1.0405,1.072,1.1695,1.2151,1.2093,1.1695,1.1695,1.0887,0.9503,0.9503,0.9483,0.9442,0.9442,0.9354,0.9255,0.9049,0.8974,0.8885,0.8885,0.8885,0.8885,0.8885,0.8885,0.8885,0.8885,0.8885,0.8967,0.9166,0.8894,0.8749,0.9419,0.9274,0.9026,0.9121,0.914,0.9019,0.8532,0.7545,0.6686,0.6686,0.5712,0.4916,0.4916,0.4548,0.4057,0.3623,0.2152,0.0861,0.0123,-0.2271,-0.5093,-0.8387,-1.1575,-1.4153,-1.5762,-1.9388,-2.2711,-2.5263,-2.6894,-2.9021,-3.1797,-3.2746,-3.4386,-3.6816,-3.797,-3.9409,-4.1031,-4.1031,-4.1495,-4.2395,-4.3164,-4.3891,-0.6945,-0.526,-0.3811,-0.2344,-0.0995,-0.0056,0.0,-0.0056,-0.0056,0.0,0.0,0.0448,0.2012,0.2291,0.324,0.6255,0.6755,0.726,0.8712,0.8885,0.8885,0.8885,0.8885,0.8885,0.8885,0.8885,0.8885,0.8885,0.894,0.8995,0.8995,0.9181,0.9313,0.9313,0.9465,0.9548,0.9548,0.9641,0.9657,0.9664,1.1347,1.214,1.226,1.3806,1.3627,1.22,1.22,1.1246,0.9808,0.9808,0.9727,0.9605,0.9605,0.951,0.9354,0.9262,0.9055,0.8885,0.8885,0.8885,0.8885,0.8885,0.8885,0.8885,0.8885,0.8885,0.8967,0.9166,0.8099,0.7402,0.915,0.8552,0.7479,0.7484,0.7484,0.7057,0.5406,0.5039,0.4977,0.4977,0.4916,0.4916,0.4916,0.3628,0.2029,0.0368,-0.129,-0.1783,-0.0184,-0.4224,-0.8514,-1.1727,-1.4813,-1.731,-1.8924,-2.4466,-2.7888,-2.7974,-2.9742,-3.1807,-3.4085,-3.4305,-3.5845,-3.8937,-4.0047,-4.1031,-4.1949,-4.1949,-4.2426,-4.3259,-4.3887,-4.464,-0.5896,-0.4647,-0.3824,-0.1277,-0.0335,0.0,0.0,0.0,0.0,0.0,-0.0784,-0.0727,0.1733,0.1395,0.1729,0.4745,0.6089,0.6866,0.7371,0.8269,0.8885,0.8885,0.8885,0.8885,0.8885,0.8885,0.8885,0.8885,0.9028,0.9083,0.9083,0.9225,0.9364,0.9364,0.9456,0.953,0.953,0.968,0.9747,0.9747,1.0333,1.0604,1.0657,1.1201,1.114,1.0604,1.0604,1.0301,0.9822,0.9822,0.9795,0.9747,0.9747,0.9659,0.953,0.9476,0.93,0.9069,0.8974,0.8885,0.8712,0.7765,0.7426,0.726,0.6255,0.5962,0.6034,0.6191,0.5823,0.5618,0.6315,0.6119,0.5712,0.5712,0.5712,0.559,0.5039,0.4057,0.3323,0.3323,0.1537,0.0,0.0,-0.1352,-0.3007,-0.4655,-0.5395,-0.5521,-0.4964,-0.8254,-1.0997,-1.2097,-1.5884,-1.8622,-1.9154,-2.4686,-2.8351,-2.886,-3.1584,-3.4075,-3.6045,-3.7052,-3.8333,-4.0117,-4.1066,-4.1981,-4.2862,-4.3244,-4.3915,-4.4743,-4.539,-4.6066,-0.6063,-0.5206,-0.4693,-0.2237,-0.1623,-0.1623,-0.1623,-0.1176,-0.0784,-0.0784,-0.1566,-0.162,0.0279,-0.0167,0.0,0.2511,0.4129,0.5472,0.6533,0.7537,0.8318,0.883,0.8885,0.8885,0.8885,0.8988,0.9015,0.9015,0.9103,0.9234,0.9289,0.9381,0.9462,0.9462,0.9605,0.9686,0.9686,0.9774,0.9822,0.9822,0.9822,0.9822,0.9822,0.9822,0.9822,0.9822,0.9822,0.9822,0.9822,0.9822,0.9822,0.9822,0.9822,0.9398,0.8888,0.9387,0.874,0.7652,0.8039,0.8134,0.7875,0.6366,0.5922,0.5755,0.4804,0.4521,0.4532,0.4668,0.4269,0.3979,0.4713,0.4487,0.4057,0.4057,0.4057,0.3873,0.3259,0.1846,0.0738,0.0738,-0.1476,-0.3384,-0.3384,-0.4732,-0.6381,-0.8016,-0.8751,-0.9121,-0.9121,-1.0936,-1.2859,-1.4499,-1.7857,-2.0658,-2.2265,-2.7222,-3.0643,-3.1686,-3.4403,-3.6732,-3.8405,-3.9098,-4.0161,-4.1593,-4.2205,-4.2982,-4.4078,-4.4483,-4.5042,-4.5815,-4.6472,-4.6999,-0.7442,-0.67,-0.6366,-0.486,-0.4526,-0.4526,-0.4526,-0.3352,-0.2291,-0.2291,-0.2403,-0.2403,-0.2347,-0.2291,-0.1843,-0.0334,0.1172,0.324,0.62,0.6644,0.726,0.8719,0.8885,0.8885,0.8892,0.9076,0.9214,0.9234,0.0,0.9296,0.9388,0.9537,0.9618,0.9618,0.9747,0.9822,0.9822,0.9822,0.9822,0.9822,0.9822,0.9822,0.9822,0.9822,0.9822,0.9822,0.97,0.97,0.9822,0.97,0.97,0.9822,0.9822,0.8836,0.7591,0.8941,0.7434,0.4911,0.6217,0.6628,0.6366,0.486,0.4359,0.4359,0.4303,0.4296,0.4309,0.4435,0.3324,0.2476,0.4227,0.3505,0.2339,0.2278,0.2216,0.1785,0.0123,-0.1479,-0.2647,-0.2647,-0.3935,-0.5039,-0.5161,-0.6446,-0.8083,-0.9694,-1.1282,-1.2329,-1.2449,-1.2509,-1.4262,-1.8795,-2.0757,-2.3513,-2.7835,-3.1862,-3.4775,-3.6128,-3.8014,-3.9637,-4.0829,-4.0507,-4.1258,-4.329,-4.338,-4.4135,-4.5545,-4.5571,-4.589,-4.646,-4.7132,-4.7449,-0.7442,-0.67,-0.6366,-0.486,-0.4526,-0.4526,-0.4526,-0.4191,-0.3913,-0.3913,-0.4804,-0.5194,-0.4136,-0.3913,-0.3408,-0.1899,0.0503,0.285,0.4804,0.6033,0.726,0.8719,0.8885,0.8981,0.9089,0.9187,0.9303,0.0,0.9496,0.951,0.9551,0.9686,0.9768,0.9768,0.9802,0.9822,0.9822,0.9822,0.9822,0.9822,0.9822,0.9822,0.9822,0.9822,0.9822,0.9761,0.8526,0.8708,0.97,0.8526,0.8714,0.9822,0.9822,0.8836,0.7418,0.7818,0.6598,0.4571,0.3852,0.4236,0.4804,0.3296,0.2794,0.2571,0.1456,0.1143,0.117,0.1175,0.0901,0.0675,0.1108,0.0925,0.0308,-0.0924,-0.123,-0.1661,-0.3321,-0.3996,-0.4303,-0.4303,-0.5647,-0.7118,-0.8343,-0.8897,-0.9741,-1.1358,-1.2866,-1.4262,-1.5451,-1.6693,-1.8262,-2.0587,-2.4192,-2.7207,-2.9208,-3.3203,-3.6078,-3.73,-3.9283,-4.0586,-4.0904,-4.1917,-4.2958,-4.3939,-4.4599,-4.5356,-4.6185,-4.6682,-4.6977,-4.7154,-4.7777,-4.8075,-0.8072,-0.7648,-0.7482,-0.6644,-0.6422,-0.6422,-0.6422,-0.5922,-0.5472,-0.5472,-0.6144,-0.6422,-0.5639,-0.4916,-0.4191,-0.3352,-0.0727,0.179,0.3296,0.4188,0.5524,0.7709,0.7979,0.8326,0.9144,0.933,0.9422,0.9598,0.9612,0.9639,0.97,0.9774,0.9822,0.9822,0.9822,0.9822,0.9822,0.9822,0.9822,0.9822,0.9822,0.9822,0.9822,0.9822,0.939,0.8708,0.0,0.7911,0.8647,0.7789,0.7911,0.8775,0.8775,0.7301,0.5341,0.6014,0.4757,0.2641,0.2526,0.253,0.2405,0.151,0.1231,0.1064,0.0224,-0.0516,-0.0941,-0.0236,-0.0542,-0.0925,-0.0185,-0.0555,-0.1356,-0.2279,-0.3016,-0.3812,-0.4732,-0.5468,-0.6202,-0.6935,-0.7795,-0.8714,-0.9633,-1.0422,-1.1374,-1.2988,-1.5119,-1.7298,-1.956,-2.06,-2.1923,-2.412,-2.7119,-2.9952,-3.2347,-3.5619,-3.8229,-3.9983,-4.2067,-4.3257,-4.3376,-4.3913,-4.4556,-4.5227,-4.5423,-4.594,-4.6842,-4.7234,-4.7512,-4.7797,-4.8134,-4.8306,-0.8885,-0.8885,-0.8885,-0.8885,-0.8885,-0.8885,-0.8885,-0.7931,-0.6982,-0.6982,-0.6982,-0.6982,-0.6982,-0.5806,-0.4749,-0.4526,-0.2125,0.028,0.1956,0.218,0.3352,0.6386,0.6807,0.7504,0.9091,0.9456,0.9618,0.9639,0.9639,0.9693,0.9815,0.9822,0.9822,0.9822,0.9822,0.9822,0.9822,0.9822,0.9822,0.9822,0.9822,0.9822,0.9822,0.9572,0.8714,0.7357,0.693,0.0,0.7052,0.6808,0.6869,0.7052,0.7052,0.5219,0.2647,0.4049,0.265,0.0236,0.1641,0.1206,0.0,0.0,-0.0112,-0.028,-0.028,-0.1429,-0.246,-0.1,-0.1682,-0.2455,-0.1047,-0.1725,-0.2893,-0.3075,-0.4242,-0.5284,-0.5529,-0.6691,-0.816,-0.9511,-1.0004,-1.0119,-1.0119,-1.1434,-1.3108,-1.4945,-1.7811,-2.09,-2.3956,-2.423,-2.5234,-2.8119,-2.9891,-3.2361,-3.6009,-3.8485,-4.0767,-4.3079,-4.5123,-4.6311,-4.6483,-4.5882,-4.59,-4.6699,-4.6063,-4.6329,-4.7512,-4.7512,-4.7818,-4.8364,-4.8364,-4.8402,-0.8885,-0.8885,-0.8885,-0.8885,-0.8885,-0.8885,-0.8885,-0.8712,-0.8546,-0.8546,-0.8546,-0.8546,-0.8546,-0.7315,-0.5922,-0.4693,-0.3017,-0.0894,0.1844,0.218,0.3367,0.6478,0.6904,0.7571,0.9386,0.9578,0.9659,0.9774,0.9781,0.9795,0.9822,0.9822,0.9822,0.9822,0.9822,0.9822,0.9822,0.9822,0.9822,0.9822,0.9822,0.9822,0.9761,0.8404,0.7667,0.724,0.4545,0.0,0.5223,0.3873,0.4119,0.5345,0.5345,0.418,0.252,0.279,0.1672,0.0059,0.0348,0.0228,0.0,0.0,-0.084,-0.1844,-0.1844,-0.2889,-0.4092,-0.3913,-0.4101,-0.4295,-0.4105,-0.4242,-0.4855,-0.6198,-0.6747,-0.7362,-0.8653,-0.9207,-0.9451,-0.9761,-1.0899,-1.1796,-1.1796,-1.3108,-1.5112,-1.801,-2.0911,-2.3871,-2.698,-2.7336,-2.7994,-2.9745,-3.302,-3.5724,-3.7391,-4.0463,-4.3,-4.4411,-4.5699,-4.6417,-4.6327,-4.6351,-4.6655,-4.7237,-4.7115,-4.7428,-4.8134,-4.8134,-4.8365,-4.8796,-4.8796,-4.8961,-0.8885,-0.8885,-0.8885,-0.8885,-0.8885,-0.8885,-0.8885,-0.9478,-0.9809,-0.9044,-0.9533,-0.9809,-0.9044,-0.7709,-0.6478,-0.5755,-0.3687,-0.1731,-0.0279,0.0559,0.1913,0.4167,0.4552,0.5556,0.8082,0.8402,0.8829,0.9754,0.9822,0.9822,0.9822,0.9822,0.9822,0.9822,0.9822,0.9822,0.9822,0.9822,0.9822,0.9822,0.9822,0.939,0.8526,0.7728,0.6442,0.479,0.3198,0.0,0.3566,0.2831,0.2954,0.3628,0.3628,0.2647,0.1169,0.1212,0.0716,-0.0118,-0.0866,-0.1135,-0.1287,-0.2069,-0.2293,-0.2347,-0.3129,-0.4518,-0.5622,-0.49,-0.5278,-0.5782,-0.5079,-0.5529,-0.6381,-0.7235,-0.8033,-0.8836,-0.9633,-0.9822,-1.0058,-1.0899,-1.1675,-1.2449,-1.3287,-1.5397,-1.7753,-1.9918,-2.3447,-2.6689,-2.885,-3.0976,-3.2506,-3.3241,-3.5588,-3.8058,-4.028,-4.2485,-4.462,-4.6637,-4.7756,-4.846,-4.8785,-4.8504,-4.8431,-4.8568,-4.8442,-4.841,-4.8622,-4.8813,-4.9011,-4.9218,-4.9218,-4.9311,-0.8995,-0.8885,-0.8885,-0.8885,-0.8885,-0.8995,-0.932,-1.0296,-1.0836,-1.0021,-1.0781,-1.1109,-0.9644,-0.8423,-0.7421,-0.6811,-0.476,-0.2975,-0.2304,-0.1242,0.0171,0.2023,0.2401,0.3561,0.6381,0.7069,0.7911,0.9201,0.9572,0.9822,0.9822,0.9822,0.9822,0.9822,0.9822,0.9822,0.9822,0.9822,0.9633,0.9268,0.9268,0.8465,0.6874,0.6503,0.4913,0.2462,0.2094,0.0,0.0,0.1971,0.1971,0.1971,0.1971,0.1169,-0.0061,-0.0362,-0.0475,-0.0701,-0.2179,-0.2713,-0.2961,-0.447,-0.4132,-0.3408,-0.4582,-0.6083,-0.708,-0.5974,-0.6603,-0.7308,-0.6211,-0.6921,-0.7911,-0.7911,-0.9134,-1.0301,-1.0301,-1.0596,-1.1201,-1.2449,-1.3278,-1.4094,-1.5349,-1.8126,-2.0771,-2.2434,-2.6045,-2.9236,-3.1128,-3.439,-3.6713,-3.724,-3.8227,-3.9991,-4.2763,-4.4096,-4.5885,-4.8459,-4.9468,-5.032,-5.1018,-5.0499,-5.008,-4.9785,-4.9531,-4.9251,-4.9027,-4.9341,-4.9532,-4.9617,-4.9617,-4.9659,-0.9265,-0.8885,-0.8885,-0.8885,-0.8885,-0.9265,-1.0562,-1.1,-1.1428,-1.267,-1.2994,-1.267,-1.1164,-1.0781,-0.9841,-0.7143,-0.6556,-0.5475,-0.2629,-0.2259,-0.1117,0.2092,0.2519,0.3198,0.496,0.6499,0.7479,0.7606,0.8958,0.9822,0.9822,0.9822,0.9822,0.9822,0.9822,0.9822,0.9822,0.9822,0.9079,0.7606,0.7606,0.6747,0.51,0.3628,0.277,0.2401,0.0863,0.0,0.0,0.0247,0.0247,0.0247,0.0247,0.0122,-0.0181,-0.1482,-0.1981,-0.2234,-0.3774,-0.4309,-0.4526,-0.6033,-0.6422,-0.6311,-0.6478,-0.7549,-0.8709,-0.8784,-0.8992,-0.9202,-0.9169,-0.9359,-0.9572,-0.9572,-1.0838,-1.1976,-1.1976,-1.3108,-1.4183,-1.4361,-1.6622,-1.8577,-1.8751,-2.1341,-2.4327,-2.7069,-2.885,-3.128,-3.5086,-3.695,-3.8729,-4.0859,-4.1182,-4.1778,-4.2882,-4.4855,-4.677,-4.8489,-4.9468,-5.0293,-5.089,-5.0829,-5.0583,-5.008,-5.0022,-4.9832,-4.9445,-4.9475,-4.9673,-5.0024,-5.0024,-5.023,-1.0406,-0.9588,-0.8885,-0.8885,-0.9588,-1.0406,-1.0945,-1.2453,-1.3588,-1.3372,-1.3965,-1.3857,-1.1538,-1.1109,-1.0398,-0.8374,-0.741,-0.646,-0.5203,-0.4412,-0.3067,-0.078,-0.0481,0.0544,0.3193,0.4057,0.528,0.724,0.8897,0.939,0.8404,0.9268,0.9822,0.9822,0.9822,0.9329,0.8343,0.8343,0.7545,0.5896,0.5896,0.5035,0.3444,0.277,0.1971,0.0986,0.0308,0.0,0.0,0.0,0.0,-0.0062,-0.0976,-0.1332,-0.15,-0.3036,-0.3569,-0.3825,-0.5282,-0.581,-0.6089,-0.7537,-0.8097,-0.8202,-0.8066,-0.8436,-0.8932,-0.9225,-0.9334,-0.9435,-0.9673,-0.9781,-1.0058,-1.102,-1.1736,-1.2449,-1.3467,-1.4123,-1.5123,-1.7032,-1.8358,-1.9786,-2.1624,-2.4459,-2.7053,-2.9007,-3.1834,-3.4583,-3.6996,-3.9013,-4.0774,-4.2291,-4.2452,-4.3139,-4.4781,-4.6603,-4.8334,-5.0,-5.0832,-5.1549,-5.2251,-5.2295,-5.2071,-5.1617,-5.1857,-5.1518,-5.0569,-5.0836,-5.0773,-5.0472,-5.0472,-5.0563,-1.1428,-1.0351,-0.9423,-0.8989,-1.0021,-1.1219,-1.1647,-1.3642,-1.5251,-1.4663,-1.537,-1.5144,-1.229,-1.1755,-1.1109,-0.921,-0.8182,-0.7486,-0.6966,-0.6156,-0.4836,-0.2722,-0.2483,-0.1398,0.1477,0.2216,0.3628,0.6442,0.816,0.8404,0.6747,0.8221,0.8836,0.8349,0.8349,0.7795,0.6686,0.6686,0.5831,0.418,0.418,0.3323,0.1787,0.1787,0.111,0.0,0.0,0.0,0.0,0.0,-0.0308,-0.0862,-0.1816,-0.2517,-0.3092,-0.4623,-0.5131,-0.5386,-0.6837,-0.7393,-0.7594,-0.8667,-0.9103,-0.9262,-0.9103,-0.9069,-0.9117,-0.932,-0.9415,-0.9621,-1.035,-1.0543,-1.0899,-1.2517,-1.3287,-1.3944,-1.5074,-1.6009,-1.7336,-1.9469,-2.0644,-2.2045,-2.4658,-2.7144,-2.9486,-3.1532,-3.4294,-3.6852,-3.8863,-4.0788,-4.2401,-4.3443,-4.4209,-4.5246,-4.6804,-4.7958,-4.9389,-5.1292,-5.1838,-5.2427,-5.3146,-5.3297,-5.3195,-5.2799,-5.3154,-5.2872,-5.187,-5.2148,-5.1856,-5.1048,-5.1048,-5.0933,-1.2226,-1.1109,-1.0726,-0.9265,-1.0021,-1.1483,-1.294,-1.4395,-1.5796,-1.7252,-1.7582,-1.6711,-1.3804,-1.3264,-1.2299,-0.9375,-0.9184,-0.8787,-0.7142,-0.7155,-0.6132,-0.2891,-0.2524,-0.1848,-0.0123,0.154,0.32,0.4794,0.6503,0.0,0.5039,0.6508,0.6686,0.4977,0.4977,0.4916,0.4916,0.4916,0.4119,0.2524,0.2524,0.1663,0.0,0.0,0.0,0.0,0.0,0.0,0.0,0.0,-0.0986,-0.2459,-0.2299,-0.3213,-0.4856,-0.6155,-0.6679,-0.6871,-0.838,-0.9028,-0.915,-0.9207,-0.9309,-0.9381,-0.9374,-0.9374,-0.9374,-0.9381,-0.949,-0.9989,-1.1755,-1.2157,-1.2569,-1.4183,-1.5784,-1.6962,-1.6962,-1.9394,-2.1529,-2.1586,-2.3972,-2.6444,-2.782,-2.9306,-3.1578,-3.5468,-3.6081,-3.7423,-4.1098,-4.2412,-4.3452,-4.4631,-4.7043,-4.8551,-4.8551,-4.8582,-4.962,-5.1934,-5.2112,-5.2427,-5.3146,-5.3585,-5.3584,-5.3192,-5.3594,-5.358,-5.3192,-5.3203,-5.2741,-5.1885,-5.1885,-5.1471,-1.583,-1.404,-1.2507,-1.2028,-1.2994,-1.418,-1.4609,-1.5849,-1.7041,-1.7477,-1.7582,-1.6723,-1.3804,-1.3318,-1.2344,-0.9375,-0.9191,-0.92,-0.8671,-0.7883,-0.6564,-0.4426,-0.2156,-0.0555,-0.0062,0.154,0.2708,0.32,0.4794,0.4977,0.3323,0.3751,0.4303,0.4855,0.4916,0.4364,0.3262,0.3262,0.2401,0.0802,0.0802,0.0494,0.0,0.0,0.0,0.0,0.0,0.0,0.0,0.0,-0.0919,-0.242,-0.3391,-0.4736,-0.6265,-0.7696,-0.819,-0.8269,-0.8712,-0.9035,-0.9207,-0.9207,-0.9327,-0.9537,-0.9537,-0.9462,-0.9401,-0.951,-0.9639,-1.0123,-1.178,-1.2217,-1.2868,-1.5607,-1.6609,-1.7325,-1.8402,-2.0171,-2.1911,-2.2927,-2.5465,-2.7893,-2.9379,-3.2196,-3.4703,-3.5893,-3.8238,-4.0492,-4.2342,-4.3551,-4.4874,-4.6555,-4.7863,-4.8582,-4.8582,-5.007,-5.1312,-5.2065,-5.2576,-5.3093,-5.3604,-5.3739,-5.402,-5.4496,-5.4621,-5.451,-5.4087,-5.4087,-5.3626,-5.2779,-5.2779,-5.2664,-1.8542,-1.6622,-1.4736,-1.4201,-1.4759,-1.5411,-1.5411,-1.6552,-1.7582,-1.7582,-1.7582,-1.6723,-1.3804,-1.3318,-1.2344,-0.9375,-0.9191,-0.9207,-0.8555,-0.7823,-0.6564,-0.4242,-0.1602,0.0,0.0,0.0925,0.154,0.154,0.3077,0.3259,0.1663,0.2156,0.2647,0.3016,0.3077,0.2585,0.154,0.154,0.1048,0.0,0.0,0.0,0.0,0.0,0.0,0.0,0.0,0.0,0.0,0.0,-0.1215,-0.3238,-0.4162,-0.5767,-0.776,-0.8598,-0.8885,-0.8885,-0.8885,-0.9069,-0.9296,-0.9296,-0.9442,-0.9806,-1.0397,-1.0502,-1.0443,-1.0547,-1.1063,-1.1976,-1.3577,-1.3994,-1.4648,-1.7267,-1.7923,-1.8331,-1.991,-2.1373,-2.3023,-2.5044,-2.7305,-2.9683,-3.209,-3.451,-3.6595,-3.7968,-4.012,-4.2094,-4.3482,-4.4613,-4.5921,-4.744,-4.8775,-4.9539,-4.9539,-5.1109,-5.2206,-5.2509,-5.3078,-5.3526,-5.3777,-5.4135,-5.4541,-5.5107,-5.5237,-5.5216,-5.4934,-5.4664,-5.4203,-5.3664,-5.3356,-5.3203,0.0,-1.889,-1.7462,-1.5964,-1.5642,-1.5677,-1.5583,-1.6605,0.0,-1.7582,-1.7582,-1.6723,-1.3804,-1.3318,-1.2344,-0.9375,-0.9178,-0.8775,-0.7132,-0.6966,-0.5884,-0.2708,-0.0925,0.0,0.0,0.0,0.0,0.0,0.1417,0.1663,0.0062,0.1479,0.1602,0.0062,0.0,0.0,0.0,0.0,0.0,0.0,0.0,0.0,0.0,0.0,0.0,0.0,0.0,0.0,0.0,0.0,-0.1803,-0.4535,-0.4515,-0.6341,-0.9004,-0.8932,-0.8885,-0.8885,-0.8885,-0.913,-0.9388,-0.9408,-0.9657,-1.024,-1.1736,-1.2217,-1.2217,-1.2337,-1.3467,-1.4955,-1.655,-1.702,-1.7443,-1.9171,-1.9533,-1.9982,-2.1415,-2.2983,-2.4879,-2.7588,-2.9495,-3.186,-3.5468,-3.6315,-3.7651,-4.107,-4.1711,-4.2541,-4.4631,-4.5706,-4.6662,-4.7572,-4.9758,-5.1086,-5.1086,-5.1741,-5.245,-5.3146,-5.3546,-5.3796,-5.3832,-5.4618,-5.5094,-5.5147,-5.5531,-5.5703,-5.5703,-5.4934,-5.4587,-5.4549,-5.3741,-5.3395,-2.4424,0.0,-2.0338,-1.8962,-1.8613,-1.8314,0.0,-1.7371,-1.7582,-1.7582,-1.7582,-1.6723,-1.3804,-1.3318,-1.2344,-0.9375,-0.9089,-0.8685,-0.7132,-0.5027,-0.2913,-0.0862,-0.0247,0.0,0.0,0.0,0.0,0.0,0.037,0.0432,0.0,0.037,0.0432,0.0,0.0,0.0,0.0,0.0,0.0,0.0,0.0,0.0,0.0,0.0,0.0,0.0,0.0,0.0,0.0,0.0,-0.1128,-0.2894,-0.4074,-0.5616,-0.741,-0.8504,-0.8885,-0.8885,-0.8885,-0.913,-0.9415,-0.9646,-1.0598,-1.1736,-1.2097,-1.2217,-1.2457,-1.3706,-1.4302,-1.4955,-1.655,-1.702,-1.7664,-2.0444,-2.1088,-2.1472,-2.2983,-2.53,-2.7267,-2.796,-3.1705,-3.5039,-3.594,-3.8417,-4.0619,-4.1462,-4.3011,-4.4486,-4.571,-4.6662,-4.7638,-4.8576,-5.0111,-5.1086,-5.1086,-5.2219,-5.3039,-5.3203,-5.3293,-5.3624,-5.4305,-5.4532,-5.4919,-5.5554,-5.5632,-5.5703,-5.5703,-5.5511,-5.5434,-5.5395,-5.5203,-5.5126,-2.5693,-2.4196,-2.2316,-2.0896,-2.0076,-1.9265,-1.7884,-1.7582,-1.7582,-1.7582,-1.7582,-1.6723,-1.3804,-1.2704,-1.1502,-0.9258,-0.7921,-0.6841,-0.6067,-0.3329,-0.1272,-0.1169,-0.0494,0.0,0.0,0.0,0.0,0.0,0.0,0.0,0.0,0.0,0.0,0.0,0.0,0.0,0.0,0.0,0.0,0.0,0.0,0.0,0.0,0.0,0.0,0.0,0.0,0.0,0.0,0.0,-0.1282,-0.3317,-0.4199,-0.5794,-0.782,-0.8602,-0.8885,-0.8885,-0.8885,-0.913,-0.9545,-1.0554,-1.1495,-1.2457,-1.3935,-1.4411,-1.4589,-1.5488,-1.6208,-1.6985,-1.7864,-1.8597,-1.951,-2.1187,-2.2614,-2.3961,-2.5465,-2.7462,-2.958,-3.1431,-3.4125,-3.6641,-3.8327,-4.0292,-4.1753,-4.2275,-4.375,-4.5153,-4.6067,-4.7036,-4.8062,-4.9342,-5.0417,-5.1215,-5.1519,-5.2554,-5.3203,-5.3203,-5.3583,-5.3997,-5.4468,-5.4848,-5.525,-5.5703,-5.5703,-5.5703,-5.5703,-5.5703,-5.5703,-5.5703,-5.5703,-5.5703,-2.543,-2.4559,-2.3384,-2.2047,-2.0641,-1.9265,-1.7884,-1.7582,-1.7582,-1.7582,-1.7424,-1.638,-1.347,-1.1864,-1.0506,-0.8809,-0.6383,-0.4613,-0.4529,-0.1919,-0.0544,-0.1967,-0.0863,0.0,0.0,0.0,0.0,0.0,0.0,0.0,0.0,0.0,0.0,0.0,0.0,0.0,0.0,0.0,0.0,0.0,0.0,0.0,0.0,0.0,0.0,0.0,0.0,0.0,0.0,-0.0232,-0.1832,-0.4211,-0.4662,-0.6366,-0.8602,-0.883,-0.8885,-0.8885,-0.8905,-0.932,-1.0004,-1.1649,-1.2551,-1.3457,-1.6197,-1.7149,-1.7443,-1.7664,-1.868,-1.9764,-1.9764,-2.0816,-2.2024,-2.2517,-2.4425,-2.6621,-2.8384,-2.9942,-3.2034,-3.5443,-3.6548,-3.7923,-4.107,-4.1877,-4.2438,-4.3379,-4.451,-4.5488,-4.6314,-4.7239,-4.8381,-4.9861,-5.0662,-5.1368,-5.2042,-5.2769,-5.3203,-5.3203,-5.3943,-5.4436,-5.4579,-5.5326,-5.5703,-5.5703,-5.5703,-5.5703,-5.5703,-5.5703,-5.5703,-5.5703,-5.5703,-5.5703,-2.4295,-2.385,-2.3384,-2.2047,-2.0641,-1.9265,-1.7884,-1.7582,-1.7582,-1.7582,-1.6605,-1.4854,-1.19,-1.123,-1.0218,-0.7476,-0.5652,-0.4085,-0.2815,-0.1121,-0.012,-0.0369,-0.0185,0.0,0.0,0.0,0.0,0.0,0.0,0.0,0.0,0.0,0.0,0.0,0.0,0.0,0.0,0.0,0.0,0.0,0.0,0.0,0.0,0.0,0.0,0.0,0.0,0.0,-0.0116,-0.1322,-0.2159,-0.2802,-0.5365,-0.6644,-0.7204,-0.8436,-0.8885,-0.8898,-0.9076,-1.0137,-1.1471,-1.1904,-1.3966,-1.6374,-1.6844,-1.7923,-1.9287,-2.0558,-2.1073,-2.1259,-2.1259,-2.2363,-2.4067,-2.6515,-2.7409,-2.847,-3.1098,-3.3487,-3.5396,-3.5987,-3.8595,-4.0943,-4.1504,-4.313,-4.4365,-4.4548,-4.6064,-4.7205,-4.7373,-4.8193,-4.907,-4.9919,-5.0662,-5.1368,-5.2042,-5.2769,-5.3203,-5.3203,-5.3643,-5.4217,-5.496,-5.5446,-5.5703,-5.5703,-5.5703,-5.5703,-5.5703,-5.5703,-5.5703,-5.5703,-5.5703,-5.5703,-2.5148,-2.3732,-2.2299,-2.0867,-1.9501,-1.7921,-1.5784,-1.4629,-1.4287,-1.5091,-1.4094,-1.2386,-1.0272,-0.9187,-0.7436,-0.3684,-0.3185,-0.3045,-0.2426,-0.0987,-0.0353,0.0,0.0,0.0,0.0,0.0,0.0,0.0,0.0,0.0,0.0,0.0,0.0,0.0,0.0,0.0,0.0,0.0,0.0,0.0,0.0,0.0,0.0,0.0,0.0,0.0,0.0,-0.0466,-0.1262,-0.1931,-0.315,-0.4745,-0.6144,-0.7204,-0.7986,-0.8657,-0.8885,-0.9009,-0.9988,-1.0876,-1.1833,-1.3798,-1.5489,-1.6902,-1.8002,-1.9377,-2.0759,-2.1415,-2.1586,-2.1756,-2.2589,-2.4437,-2.6479,-2.7801,-2.985,-3.204,-3.3952,-3.5849,-3.7547,-3.8843,-4.0448,-4.1959,-4.313,-4.4136,-4.4968,-4.5488,-4.6696,-4.7572,-4.7572,-4.8726,-4.9809,-5.05,-5.1241,-5.1922,-5.2621,-5.3017,-5.34,-5.3851,-5.4103,-5.4541,-5.5399,-5.5599,-5.5703,-5.5703,-5.5703,-5.5703,-5.5703,-5.5703,-5.5703,-5.5703,-5.5703,-5.5748,-2.6022,-2.3714,-2.1271,-1.9508,-1.8022,-1.6383,-1.3847,-1.2135,-1.135,-1.2532,-1.125,-0.9657,-0.8585,-0.7155,-0.5004,-0.1622,-0.1678,-0.2137,-0.1945,-0.0804,-0.0465,-0.1789,-0.0782,0.0,0.0,0.0,0.0,0.0,0.0,0.0,0.0,0.0,0.0,0.0,0.0,0.0,0.0,0.0,0.0,0.0,0.0,0.0,0.0,0.0,0.0,0.0,0.0,-0.0859,-0.222,-0.2584,-0.43,-0.6755,-0.7093,-0.7931,-0.8885,-0.8885,-0.9099,-0.9603,-1.0818,-1.1775,-1.2804,-1.5468,-1.6615,-1.7281,-1.9122,-2.043,-2.1459,-2.2187,-2.2354,-2.2664,-2.3994,-2.6443,-2.8668,-2.9036,-3.2018,-3.5137,-3.6319,-3.7801,-3.9464,-4.1253,-4.2,-4.2892,-4.4517,-4.5153,-4.5706,-4.6419,-4.734,-4.7998,-4.8158,-4.924,-5.0335,-5.1241,-5.179,-5.2404,-5.3124,-5.3293,-5.3662,-5.4436,-5.4671,-5.5067,-5.5692,-5.5703,-5.5703,-5.5703,-5.5703,-5.5703,-5.5703,-5.5703,-5.5703,-5.5703,-5.5738,-5.5788,-2.5884,-2.3642,-2.1068,-1.8296,-1.6607,-1.5144,-1.3642,-1.2135,-1.1016,-1.1133,-0.8886,-0.6864,-0.6759,-0.5618,-0.4526,-0.4247,-0.3073,-0.1743,-0.0344,0.0,-0.0058,-0.0177,-0.006,0.0,0.0,0.0,0.0,0.0,0.0,0.0,0.0,0.0,0.0,0.0,0.0,0.0,0.0,0.0,0.0,0.0,0.0,0.0,0.0,0.0,0.0,0.0,0.0,-0.0853,-0.2295,-0.3745,-0.525,-0.6811,-0.8208,-0.883,-0.8885,-0.8885,-0.9754,-1.0945,-1.1063,-1.3098,-1.5592,-1.5846,-1.7041,-1.8615,-1.9978,-2.0471,-2.1163,-2.3824,-2.4579,-2.4791,-2.5684,-2.8004,-3.0441,-3.1702,-3.4073,-3.6366,-3.7671,-3.9743,-4.142,-4.1587,-4.321,-4.4624,-4.4774,-4.624,-4.7406,-4.7473,-4.8289,-4.9135,-4.9746,-4.9947,-5.0527,-5.1862,-5.2089,-5.2404,-5.3124,-5.3526,-5.3959,-5.4452,-5.5199,-5.5621,-5.5703,-5.5703,-5.5703,-5.5703,-5.5703,-5.5703,-5.5703,-5.5703,-5.5703,-5.5714,-5.5834,-5.5907,-2.6104,-2.2976,-1.9882,-1.7984,-1.5801,-1.347,-1.1113,-0.9399,-0.8291,-0.8323,-0.5946,-0.3842,-0.3842,-0.268,-0.1679,-0.1679,-0.1232,-0.0617,-0.0057,0.0,0.0,0.0,0.0,0.0,0.0,0.0,0.0,0.0,0.0,0.0,0.0,0.0,0.0,0.0,0.0,0.0,0.0,0.0,0.0,0.0,0.0,0.0,0.0,0.0,0.0,0.0,0.0,-0.1407,-0.3689,-0.4247,-0.5922,-0.8097,-0.8657,-0.8885,-0.8995,-0.9919,-1.0617,-1.1374,-1.3156,-1.4557,-1.5761,-1.6863,-1.8252,-1.9621,-2.0283,-2.1733,-2.3368,-2.449,-2.5975,-2.7379,-2.7716,-2.9224,-3.1167,-3.3102,-3.4944,-3.6831,-3.9152,-4.0362,-4.1506,-4.3238,-4.4251,-4.5153,-4.6346,-4.7138,-4.7803,-4.8353,-4.9131,-4.9722,-4.9976,-5.0735,-5.1519,-5.2065,-5.2733,-5.3273,-5.3565,-5.4221,-5.4663,-5.4848,-5.516,-5.5435,-5.5703,-5.5703,-5.5703,-5.5703,-5.5703,-5.5703,-5.5703,-5.5703,-5.5758,-5.5834,-5.5883,-5.6012,-2.6032,-2.251,-1.9111,-1.7239,-1.5376,-1.2974,-0.9078,-0.737,-0.6323,-0.5464,-0.3628,-0.218,-0.218,-0.1399,-0.0672,-0.0672,-0.028,0.0,0.0,0.0,0.0,0.0,0.0,0.0,0.0,0.0,0.0,0.0,0.0,0.0,0.0,0.0,0.0,0.0,0.0,0.0,0.0,0.0,0.0,0.0,0.0,0.0,0.0,0.0,0.0,0.0,-0.0507,-0.2125,-0.4526,-0.5027,-0.6644,-0.8885,-0.8885,-0.921,-0.9699,-1.0726,-1.1701,-1.2724,-1.4716,-1.5689,-1.6365,-1.7969,-1.9141,-2.0106,-2.118,-2.3151,-2.5122,-2.5547,-2.7537,-2.9576,-2.9935,-3.0988,-3.2441,-3.4335,-3.6087,-3.7935,-4.0126,-4.112,-4.2246,-4.4394,-4.5264,-4.6099,-4.7373,-4.7836,-4.8257,-4.8892,-4.958,-5.009,-5.0307,-5.1393,-5.2183,-5.2404,-5.3273,-5.3777,-5.3777,-5.4587,-5.5107,-5.5107,-5.5212,-5.5411,-5.5703,-5.5703,-5.5703,-5.5703,-5.5703,-5.5703,-5.5703,-5.5758,-5.5807,-5.5885,-5.6012,-5.6173,-2.5622,-2.2458,-1.8873,-1.6017,-1.5311,-1.3815,-0.7962,-0.6594,-0.5771,-0.279,-0.218,-0.218,-0.218,-0.218,-0.218,-0.218,-0.0952,0.0,0.0,0.0,0.0,0.0,0.0,0.0,0.0,0.0,0.0,0.0,0.0,0.0,0.0,0.0,0.0,0.0,0.0,0.0,0.0,0.0,0.0,0.0,0.0,0.0,0.0,0.0,0.0,-0.0056,-0.1566,-0.3073,-0.4637,-0.6089,-0.7593,-0.8885,-0.894,-0.9809,-1.1109,-1.1109,-1.294,-1.5411,-1.5423,-1.6393,-1.7832,-1.9161,-1.9627,-2.0143,-2.2868,-2.4564,-2.5816,-2.7226,-2.926,-3.1273,-3.2493,-3.3577,-3.4603,-3.567,-3.7814,-3.9779,-4.0452,-4.2308,-4.3981,-4.4657,-4.6346,-4.7572,-4.7605,-4.8353,-4.9018,-4.9018,-4.9576,-5.0251,-5.1034,-5.1692,-5.2381,-5.3124,-5.3565,-5.3795,-5.3795,-5.4602,-5.5121,-5.5121,-5.547,-5.5703,-5.5703,-5.5703,-5.5703,-5.5703,-5.5703,-5.5703,-5.5714,-5.5852,-5.5885,-5.5893,-5.6264,-5.6391,-2.5884,-2.1694,-1.7551,-1.5789,-1.3847,-1.1348,-0.7474,-0.7425,-0.71,-0.3013,-0.218,-0.19,-0.084,-0.0672,-0.0672,-0.0672,-0.028,0.0,0.0,0.0,0.0,0.0,0.0,0.0,0.0,0.0,0.0,0.0,0.0,0.0,0.0,0.0,0.0,0.0,0.0,0.0,0.0,0.0,0.0,0.0,0.0,0.0,0.0,0.0,0.0,-0.0056,-0.1566,-0.3073,-0.4693,-0.7204,-0.8491,-0.8989,-1.0021,-1.0726,-1.1374,-1.3372,-1.4663,-1.553,-1.6605,-1.7871,-1.9072,-1.9472,-2.0896,-2.2617,-2.3434,-2.5237,-2.7063,-2.7484,-2.9851,-3.2511,-3.3627,-3.5318,-3.6869,-3.7186,-3.7792,-3.8832,-4.0772,-4.2166,-4.3608,-4.5417,-4.6797,-4.7803,-4.8482,-4.8829,-4.9168,-4.9634,-5.0307,-5.1215,-5.2417,-5.2747,-5.3072,-5.3585,-5.4013,-5.442,-5.4678,-5.5212,-5.5531,-5.5531,-5.5621,-5.5703,-5.5703,-5.5703,-5.5703,-5.5703,-5.5703,-5.5758,-5.5861,-5.5891,-5.6025,-5.6269,-5.6368,-5.6454,-2.3073,-1.9328,-1.5952,-1.346,-1.1973,-1.0327,-0.7332,-0.6001,-0.4616,-0.19,-0.1343,-0.1064,-0.0168,0.0,0.0,0.0,0.0,0.0,0.0,0.0,0.0,0.0,0.0,0.0,0.0,0.0,0.0,0.0,0.0,0.0,0.0,0.0,0.0,0.0,0.0,0.0,0.0,0.0,0.0,0.0,0.0,0.0,0.0,0.0,0.0,-0.0112,-0.2181,-0.43,-0.6366,-0.8152,-0.9265,-0.9864,-1.0726,-1.181,-1.3048,-1.477,-1.5796,-1.6499,-1.7923,-1.8916,-1.9782,-2.0845,-2.2683,-2.4534,-2.5091,-2.7332,-2.9693,-2.9693,-3.2124,-3.4941,-3.5598,-3.7119,-3.8435,-3.8435,-3.8672,-3.9414,-4.114,-4.2731,-4.4345,-4.6013,-4.7309,-4.8321,-4.8892,-4.9226,-4.9551,-4.9947,-5.085,-5.1898,-5.306,-5.3203,-5.3359,-5.3777,-5.4221,-5.4655,-5.508,-5.5458,-5.5703,-5.5703,-5.5703,-5.5703,-5.5703,-5.5703,-5.5703,-5.5703,-5.574,-5.5825,-5.5915,-5.6039,-5.6193,-5.6391,-5.6456,-5.6515,-1.9137,-1.6572,-1.4384,-1.0351,-0.9911,-0.9779,-0.7083,-0.3129,-0.0056,-0.0168,-0.0112,0.0,0.0,0.0,0.0,0.0,0.0,0.0,0.0,0.0,0.0,0.0,0.0,0.0,0.0,0.0,0.0,0.0,0.0,0.0,0.0,0.0,0.0,0.0,0.0,0.0,0.0,0.0,0.0,0.0,0.0,0.0,0.0,0.0,-0.0168,-0.056,-0.3299,-0.62,-0.8885,-0.9044,-0.9919,-1.1109,-1.1374,-1.3102,-1.5411,-1.5677,-1.6645,-1.7989,-1.9317,-1.9886,-2.0385,-2.2885,-2.4613,-2.5932,-2.7226,-2.9942,-3.2689,-3.2775,-3.5144,-3.7663,-3.7776,-3.8583,-3.9373,-3.9373,-4.006,-4.0876,-4.1554,-4.3681,-4.5692,-4.6354,-4.7853,-4.9049,-4.9077,-4.961,-5.0061,-5.0167,-5.1343,-5.2427,-5.3103,-5.323,-5.3383,-5.3833,-5.4288,-5.4716,-5.5134,-5.547,-5.5703,-5.5703,-5.5703,-5.5703,-5.5703,-5.5703,-5.5714,-5.5707,-5.5852,-5.5939,-5.5939,-5.6269,-5.6394,-5.6402,-5.6558,-5.6601,-2.3211,-1.8803,-1.482,-1.2876,-0.9099,-0.5746,-0.5139,-0.2405,-0.0336,-0.151,-0.0784,0.0,0.0,0.0,0.0,0.0,0.0,0.0,0.0,0.0,0.0,0.0,0.0,0.0,0.0,0.0,0.0,0.0,0.0,0.0,0.0,0.0,0.0,0.0,0.0,0.0,0.0,0.0,0.0,0.0,0.0,0.0,0.0,0.0,-0.1288,-0.3578,-0.4191,-0.62,-0.8995,-1.0131,-1.0836,-1.1319,-1.3588,-1.4877,-1.5677,-1.7896,-1.8902,-1.9369,-2.0743,-2.1963,-2.2918,-2.3484,-2.5285,-2.7226,-2.7484,-2.9442,-3.1748,-3.2561,-3.4615,-3.6721,-3.7587,-3.8583,-3.9373,-3.9373,-4.006,-4.0876,-4.1554,-4.3681,-4.5692,-4.6354,-4.7853,-4.9168,-4.9693,-4.989,-5.0362,-5.1494,-5.2381,-5.3039,-5.3203,-5.3484,-5.3851,-5.4288,-5.4716,-5.5147,-5.5554,-5.5632,-5.5703,-5.5703,-5.5703,-5.5703,-5.5703,-5.5703,-5.5768,-5.5849,-5.5891,-5.6032,-5.6293,-5.6374,-5.6454,-5.656,-5.6601,-5.6601,-2.2719,-1.848,-1.4638,-1.1901,-0.8342,-0.5361,-0.4637,-0.274,-0.1064,-0.112,-0.056,0.0,0.0,0.0,0.0,0.0,0.0,0.0,0.0,0.0,0.0,0.0,0.0,0.0,0.0,0.0,0.0,0.0,0.0,0.0,0.0,0.0,0.0,0.0,0.0,0.0,0.0,0.0,0.0,0.0,0.0,0.0,0.0,-0.0728,-0.2293,-0.4526,-0.525,-0.6811,-0.8995,-1.0515,-1.1538,-1.2344,-1.4556,-1.6209,-1.7581,-1.9043,-2.004,-2.0794,-2.2165,-2.3117,-2.393,-2.5158,-2.6873,-2.8588,-2.9143,-3.1304,-3.3714,-3.4245,-3.6038,-3.7852,-3.8435,-3.898,-3.9373,-3.9373,-4.006,-4.0919,-4.17,-4.3784,-4.5719,-4.6462,-4.79,-4.9195,-4.9861,-5.0554,-5.1393,-5.2486,-5.2959,-5.3272,-5.3464,-5.3663,-5.4066,-5.4716,-5.496,-5.525,-5.5682,-5.5703,-5.5703,-5.5703,-5.5703,-5.5703,-5.5703,-5.575,-5.5834,-5.5915,-5.6065,-5.6246,-5.6389,-5.646,-5.6517,-5.6601,-5.6601,-5.6601,-2.1744,-1.7898,-1.4265,-0.9959,-0.782,-0.6366,-0.5139,-0.3463,-0.1844,-0.0616,-0.0168,0.0,0.0,0.0,0.0,0.0,0.0,0.0,0.0,0.0,0.0,0.0,0.0,0.0,0.0,0.0,0.0,0.0,0.0,0.0,0.0,0.0,0.0,0.0,0.0,0.0,0.0,0.0,0.0,0.0,0.0,-0.0112,-0.0448,-0.1902,-0.3296,-0.4582,-0.6089,-0.7703,-0.9375,-1.0891,-1.2344,-1.3804,-1.5251,-1.7318,-1.9627,-1.9886,-2.0845,-2.2265,-2.3813,-2.4375,-2.4749,-2.7132,-2.8727,-2.9943,-3.111,-3.3546,-3.6013,-3.6369,-3.7776,-3.9192,-3.9337,-3.9373,-3.9445,-3.9559,-4.017,-4.0961,-4.1788,-4.3971,-4.5932,-4.6667,-4.8209,-4.958,-5.0223,-5.1444,-5.2509,-5.3103,-5.3203,-5.3339,-5.3758,-5.3851,-5.42,-5.5002,-5.516,-5.535,-5.5682,-5.5703,-5.5703,-5.5703,-5.5703,-5.5724,-5.5738,-5.5857,-5.5954,-5.5984,-5.6273,-5.6397,-5.6445,-5.6558,-5.6601,-5.6601,-5.6601,-5.6601,-2.5726,-2.0101,-1.4265,-0.9959,-0.782,-0.6644,-0.6478,-0.4244,-0.2124,-0.1956,-0.0896,0.0,0.0,0.0,0.0,0.0,0.0,0.0,0.0,0.0,0.0,0.0,0.0,0.0,0.0,0.0,0.0,0.0,0.0,0.0,0.0,0.0,0.0,0.0,0.0,0.0,0.0,0.0,0.0,0.0,0.0,-0.0672,-0.1956,-0.3519,-0.4303,-0.4582,-0.6089,-0.8244,-1.0945,-1.2408,-1.3857,-1.5251,-1.6711,-1.8237,-1.9731,-2.0998,-2.2265,-2.3782,-2.6224,-2.7105,-2.7342,-2.8727,-2.9988,-3.1155,-3.2241,-3.3672,-3.5305,-3.7088,-3.7776,-3.8219,-3.9156,-3.9373,-3.9559,-4.0343,-4.0622,-4.0961,-4.1788,-4.4441,-4.6667,-4.6786,-4.9,-5.1034,-5.1692,-5.2509,-5.3082,-5.3203,-5.3203,-5.3339,-5.3758,-5.4153,-5.4579,-5.5067,-5.5411,-5.5632,-5.5703,-5.5703,-5.5703,-5.5703,-5.5703,-5.573,-5.5866,-5.6071,-5.6222,-5.6315,-5.638,-5.6456,-5.6562,-5.6601,-5.6601,-5.6601,-5.6601,-5.6601,-2.4573,-1.9913,-1.55,-1.1202,-0.9629,-0.8741,-0.7088,-0.5695,-0.4467,-0.3631,-0.2293,-0.1008,-0.0168,0.0,0.0,0.0,0.0,0.0,0.0,0.0,0.0,0.0,0.0,0.0,0.0,0.0,0.0,0.0,0.0,0.0,0.0,0.0,0.0,0.0,0.0,0.0,0.0,0.0,0.0,0.0,-0.084,-0.1566,-0.2291,-0.5511,-0.6951,-0.7061,-0.8507,-1.0382,-1.2453,-1.3857,-1.5293,-1.6713,-1.8171,-2.004,-2.1963,-2.2567,-2.411,-2.6031,-2.72,-2.8049,-2.8819,-3.0033,-3.1175,-3.2309,-3.353,-3.5062,-3.6632,-3.7548,-3.8219,-3.8833,-3.9265,-3.9773,-4.0239,-4.0622,-4.1429,-4.2269,-4.2645,-4.4471,-4.6562,-4.827,-4.9936,-5.1317,-5.1958,-5.2725,-5.3203,-5.3203,-5.34,-5.372,-5.4135,-5.4579,-5.4974,-5.5399,-5.5588,-5.5703,-5.5703,-5.5703,-5.5738,-5.5798,-5.5807,-5.5874,-5.6078,-5.6232,-5.6354,-5.6389,-5.6462,-5.6558,-5.6601,-5.6601,-5.6601,-5.6601,-5.6601,-5.6601,-2.3881,-2.0408,-1.7343,-1.2783,-1.1365,-1.0445,-0.7864,-0.6982,-0.6366,-0.5306,-0.3519,-0.1844,-0.0784,-0.028,0.0,0.0,0.0,0.0,0.0,0.0,-0.0112,-0.0504,-0.056,-0.0728,-0.112,-0.112,-0.112,-0.112,-0.112,-0.0952,-0.056,-0.056,-0.0392,0.0,0.0,0.0,0.0,-0.0392,-0.056,-0.056,-0.2069,-0.2961,-0.3461,-0.7216,-0.9311,-1.0077,-1.1193,-1.2507,-1.3965,-1.5346,-1.6765,-1.8168,-1.9598,-2.1608,-2.3732,-2.406,-2.5625,-2.7673,-2.8308,-2.9074,-3.0079,-3.1597,-3.2635,-3.3562,-3.5048,-3.6554,-3.7881,-3.8144,-3.8797,-3.9373,-3.9373,-4.006,-4.0758,-4.0995,-4.2173,-4.3482,-4.4056,-4.5193,-4.6903,-4.9715,-5.0876,-5.1569,-5.2266,-5.285,-5.323,-5.3339,-5.3624,-5.4013,-5.4579,-5.4905,-5.525,-5.5671,-5.5703,-5.5703,-5.5703,-5.5703,-5.574,-5.5907,-5.5915,-5.5998,-5.6237,-5.6358,-5.6438,-5.6454,-5.6559,-5.6601,-5.6601,-5.6601,-5.6601,-5.6601,-5.6601,-5.6601,-2.6141,-2.3086,-1.9806,-1.4336,-1.2027,-1.0672,-0.9154,-0.7709,-0.67,-0.6589,-0.4244,-0.218,-0.2124,-0.0952,0.0,0.0,0.0,0.0,0.0,0.0,-0.0504,-0.19,-0.2068,-0.2682,-0.4136,-0.4247,-0.4247,-0.4247,-0.4247,-0.3631,-0.218,-0.2068,-0.1454,-0.0056,0.0,0.0,0.0,-0.1399,-0.2068,-0.2124,-0.3634,-0.5139,-0.6533,-0.8164,-1.0405,-1.3102,-1.3156,-1.3965,-1.5411,-1.6805,-1.8234,-1.9627,-2.1033,-2.2466,-2.3831,-2.4965,-2.6355,-2.7908,-3.0214,-3.1045,-3.1464,-3.3749,-3.4568,-3.4979,-3.7049,-3.7701,-3.7994,-3.9017,-3.9337,-3.9373,-3.9373,-4.006,-4.0927,-4.1723,-4.2614,-4.3896,-4.614,-4.7198,-4.836,-5.062,-5.1593,-5.2289,-5.3039,-5.3167,-5.3318,-5.372,-5.3814,-5.4118,-5.4947,-5.5094,-5.525,-5.5671,-5.5703,-5.5703,-5.5703,-5.5703,-5.574,-5.5907,-5.5915,-5.6052,-5.6377,-5.6389,-5.6458,-5.6601,-5.6601,-5.6601,-5.6601,-5.6601,-5.6601,-5.6601,-5.6601,-5.6601,-2.8399,-2.5932,-2.2902,-1.8255,-1.5417,-1.316,-1.0828,-0.9196,-0.8097,-0.8097,-0.6478,-0.5079,-0.5079,-0.2293,0.0,0.0,0.0,0.0,0.0,-0.084,-0.1622,-0.2124,-0.3073,-0.3913,-0.447,-0.4526,-0.4526,-0.4526,-0.4526,-0.4247,-0.3687,-0.3689,-0.2961,-0.1454,-0.1399,-0.1399,-0.1399,-0.2905,-0.3689,-0.3687,-0.5194,-0.62,-0.6811,-1.0202,-1.2271,-1.3426,-1.6184,-1.762,-1.8157,-1.8665,-2.0164,-2.2265,-2.2767,-2.4307,-2.6272,-2.6683,-2.8172,-3.0033,-3.0911,-3.2209,-3.3581,-3.4402,-3.5628,-3.6855,-3.7548,-3.8256,-3.8907,-3.9301,-3.9373,-3.9553,-4.0095,-4.0894,-4.1885,-4.332,-4.4192,-4.5213,-4.703,-4.7617,-4.8601,-5.1222,-5.1946,-5.2335,-5.3082,-5.3404,-5.3606,-5.3796,-5.4267,-5.476,-5.508,-5.5338,-5.5554,-5.5692,-5.5703,-5.5738,-5.5825,-5.5834,-5.5955,-5.6193,-5.6207,-5.6312,-5.6515,-5.6516,-5.6559,-5.6601,-5.6601,-5.6601,-5.6601,-5.6601,-5.6601,-5.6601,-5.6601,-5.6601,-3.0211,-2.8324,-2.5773,-2.1694,-1.8642,-1.5798,-1.2513,-1.0664,-0.9478,-0.8989,-0.7709,-0.67,-0.67,-0.3854,-0.1344,-0.084,-0.0728,-0.0728,-0.0728,-0.1566,-0.2571,-0.3575,-0.4634,-0.5417,-0.5922,-0.5977,-0.5977,-0.5977,-0.5977,0.0,-0.525,-0.525,-0.4526,-0.3017,-0.2961,-0.2961,-0.2961,-0.447,-0.525,-0.525,-0.6755,-0.7697,-0.83,-1.1738,-1.3534,-1.4234,-1.7987,-1.9576,-1.9679,-2.059,-2.2064,-2.3732,-2.4196,-2.5712,-2.7626,-2.8049,-2.951,-3.1311,-3.2122,-3.3411,-3.4815,-3.5507,-3.6671,-3.7881,-3.8219,-3.8833,-3.9373,-3.9373,-3.9595,-3.9955,-4.0554,-4.156,-4.2862,-4.4513,-4.5222,-4.6039,-4.8029,-4.8448,-4.9185,-5.1622,-5.2312,-5.2621,-5.3103,-5.3526,-5.3832,-5.4013,-5.4618,-5.516,-5.5275,-5.5543,-5.5703,-5.5703,-5.5748,-5.5788,-5.5907,-5.5947,-5.6108,-5.6383,-5.6389,-5.6458,-5.6601,-5.6601,-5.6601,-5.6601,-5.6601,-5.6601,-5.6601,-5.6601,-5.6601,-5.6601,-5.6601,-5.6601,0.0,0.0,0.0,-2.4506,-2.1429,-1.8306,-1.4188,-1.2189,-1.0781,-0.9265,-0.782,-0.6811,-0.6755,-0.5584,-0.4136,-0.2571,-0.2291,-0.2291,-0.2291,-0.2291,-0.3408,-0.6366,-0.6755,-0.7315,-0.8768,-0.8885,-0.8885,-0.8885,-0.8885,-0.8269,-0.6816,-0.67,-0.6033,-0.4582,-0.4582,-0.4582,-0.4582,-0.6033,-0.6811,-0.6866,-0.8263,-0.9754,-1.1219,-1.267,-1.4126,-1.5571,-1.8418,-1.9679,-1.9886,-2.2567,-2.3732,-2.3899,-2.5216,-2.6524,-2.7814,-2.9004,-3.0214,-3.1577,-3.3859,-3.4718,-3.5061,-3.7088,-3.7805,-3.8032,-3.9053,-3.9373,-3.9373,-3.9373,-4.0025,-4.0724,-4.0758,-4.2045,-4.3706,-4.5153,-4.5494,-4.6285,-4.9167,-4.9834,-5.0304,-5.1811,-5.2725,-5.3188,-5.3225,-5.3546,-5.3977,-5.4436,-5.4848,-5.525,-5.5632,-5.5703,-5.5714,-5.5714,-5.5825,-5.5885,-5.5901,-5.6071,-5.6256,-5.6389,-5.6394,-5.6458,-5.6601,-5.6601,-5.6601,-5.6601,-5.6601,-5.6601,-5.6601,-5.6601,-5.6601,-5.6601,-5.6601,-5.6601,-3.2655,0.0,0.0,0.0,0.0,0.0,-1.7186,-1.517,-1.3429,-1.0992,-1.0178,-0.9567,-0.8484,-0.7931,-0.7204,-0.5695,-0.4578,-0.3857,-0.3857,-0.4801,-0.575,-0.6589,-0.7648,-0.8436,-0.8885,-0.8885,-0.8885,0.0,-0.8885,-0.8712,-0.8325,-0.726,-0.6533,-0.6089,-0.6089,-0.6089,-0.6089,-0.7537,-0.8809,-0.9896,-1.0288,-1.1273,-1.2724,-1.418,-1.5037,-1.5624,-1.9479,-2.1151,-2.1253,-2.2985,-2.4245,-2.5265,-2.6552,-2.7814,-2.905,-3.0259,-3.1512,-3.2655,-3.3343,-3.4526,-3.5894,-3.6448,-3.7701,-3.9017,-3.9301,-3.9373,-3.9373,-3.9373,-4.0025,-4.0995,-4.2269,-4.341,-4.4463,-4.532,-4.5815,-4.6825,-4.9293,-5.0155,-5.0978,-5.2586,-5.306,-5.3314,-5.3585,-5.3995,-5.4452,-5.4862,-5.5262,-5.5577,-5.5692,-5.5703,-5.5748,-5.5852,-5.5883,-5.5998,-5.6221,-5.6301,-5.6391,-5.6557,-5.6558,-5.656,-5.6601,-5.6601,-5.6601,-5.6601,-5.6601,-5.6601,-5.6601,-5.6601,-5.6601,-5.6601,-5.6601,-5.6601,-3.2939,-3.2568,-3.1533,-2.9466,0.0,0.0,-2.0015,-1.7603,-1.5394,-1.2606,-1.2028,-1.1755,-1.0891,-1.0241,-0.9746,-0.9497,-0.8225,-0.685,-0.5584,-0.6144,-0.6927,-0.7537,-0.892,-0.9809,-0.9809,-1.0351,-1.0726,-1.0726,-1.0726,-1.0726,-1.0726,-0.9347,-0.852,-0.852,-0.7919,-0.7925,-0.852,-0.9416,-1.0562,-1.2028,-1.2028,-1.2778,-1.418,-1.5037,-1.605,-1.7305,-2.0353,-2.2013,-2.2667,-2.4553,-2.5489,-2.582,-2.7078,-2.8308,-2.9579,-3.124,-3.2407,-3.3283,-3.4594,-3.5561,-3.6369,-3.7252,-3.8368,-3.9373,-3.9373,-3.9373,-3.9481,-3.9844,-4.0826,-4.2077,-4.3469,-4.4241,-4.4831,-4.5673,-4.6161,-4.7109,-4.9662,-5.0503,-5.1279,-5.2894,-5.3318,-5.3506,-5.3777,-5.4338,-5.4819,-5.508,-5.5435,-5.5703,-5.5703,-5.5768,-5.5807,-5.5907,-5.6025,-5.6179,-5.6383,-5.6454,-5.6514,-5.6601,-5.6601,-5.6601,-5.6601,-5.6601,-5.6601,-5.6601,-5.6601,-5.6601,-5.6601,-5.6601,-5.6601,-5.6601,-5.6601,-5.6601,-3.2568,-3.2982,-3.2785,-3.1533,-2.9511,0.0,-2.2667,-2.0015,-1.7553,-1.4576,-1.3997,-1.3944,-1.3783,-1.265,-1.2217,-1.3514,-1.2497,-1.0593,-0.7802,-0.7415,-0.7919,-0.9258,-1.0562,-1.1319,-1.1319,-1.2507,-1.3318,-1.3318,-1.3318,-1.3318,-1.3318,-1.2082,-1.1319,-1.1319,-1.0076,-1.0021,-1.1319,-1.1319,-1.2082,-1.3534,-1.3534,-1.4341,-1.589,-1.589,-1.7305,-1.9937,-2.1304,-2.2617,-2.3881,-2.6512,-2.6935,-2.6062,-2.7437,-2.868,-2.9897,-3.2198,-3.3131,-3.3658,-3.6593,-3.7098,-3.6682,-3.862,-3.9301,-3.9409,-3.9517,-3.9553,-3.9737,-4.0724,-4.2077,-4.3532,-4.4468,-4.4692,-4.5015,-4.6233,-4.6507,-4.7293,-5.0175,-5.0842,-5.1323,-5.2941,-5.3546,-5.3814,-5.3923,-5.4572,-5.5121,-5.516,-5.5458,-5.5714,-5.5707,-5.5834,-5.5901,-5.5947,-5.6207,-5.6394,-5.6402,-5.6517,-5.6601,-5.6601,-5.6601,-5.6601,-5.6601,-5.6601,-5.6601,-5.6601,-5.6601,-5.6601,-5.6601,-5.6601,-5.6601,-5.6601,-5.6601,-5.6601,-3.1488,-3.2326,-3.2785,-3.1533,-3.0843,0.0,-2.5574,-2.4287,-2.2842,-1.9052,-1.8292,-1.7915,-1.6729,-1.6298,-1.6193,-1.6468,-1.5347,-1.3901,-1.2271,-1.2009,-1.2118,-1.2398,-1.2724,-1.2886,-1.2886,-1.3102,-1.3318,-1.3318,-1.3318,-1.3318,-1.3318,-1.3048,-1.2886,-1.2886,-1.2561,-1.2561,-1.2886,-1.2886,-1.3588,-1.4984,-1.4984,-1.6302,-1.8783,-1.8783,-1.9701,-2.1338,-2.2717,-2.3484,-2.3881,-2.6512,-2.7458,-2.7458,-2.9624,-3.0619,-3.111,-3.3471,-3.4361,-3.4594,-3.6013,-3.6944,-3.7548,-3.7994,-3.8694,-3.9553,-4.0239,-4.0447,-4.0758,-4.2363,-4.3047,-4.3617,-4.4966,-4.532,-4.5648,-4.691,-4.7176,-4.7861,-5.0257,-5.1044,-5.1769,-5.3385,-5.3758,-5.4031,-5.4745,-5.4974,-5.5212,-5.5543,-5.5632,-5.5748,-5.5831,-5.5891,-5.6005,-5.6281,-5.6371,-5.645,-5.6559,-5.6562,-5.6601,-5.6601,-5.6601,-5.6601,-5.6601,-5.6601,-5.6601,-5.6601,-5.6601,-5.6601,-5.6601,-5.6601,-5.6601,-5.6601,-5.6601,-5.6601,-3.1045,-3.2152,-3.2939,-3.2326,-3.1689,0.0,0.0,-2.6878,-2.5669,-2.2969,-2.2408,-2.2143,-2.1445,-2.0746,-2.048,-2.1179,-1.9037,-1.7549,-1.8302,-1.5435,-1.3318,-1.3318,-1.3911,-1.4341,-1.4341,-1.4984,-1.5731,-1.6396,-1.5837,-1.5731,-1.6396,-1.5133,-1.4341,-1.4341,-1.3642,-1.3642,-1.4341,-1.4341,-1.5399,-1.7463,-1.7463,-1.8613,-2.0641,-2.0641,-2.1405,-2.2767,-2.4024,-2.5023,-2.5818,-2.838,-2.9396,-2.951,-3.0732,-3.1223,-3.1553,-3.4391,-3.5116,-3.4979,-3.706,-3.7814,-3.7881,-3.8435,-3.9277,-4.01,-4.0554,-4.1297,-4.2205,-4.3047,-4.3621,-4.4174,-4.5206,-4.5494,-4.5825,-4.7088,-4.7406,-4.7964,-5.0025,-5.06,-5.1252,-5.2865,-5.3208,-5.346,-5.4316,-5.4982,-5.5343,-5.5143,-5.5434,-5.5768,-5.5891,-5.5969,-5.6125,-5.6377,-5.6458,-5.6516,-5.6601,-5.6601,-5.6601,-5.6601,-5.6601,-5.6601,-5.6601,-5.6601,-5.6601,-5.6601,-5.6601,-5.6601,-5.6601,-5.6601,-5.6601,-5.6601,-5.6601,-5.6601,-3.0574,-3.1952,-3.3111,-3.3111,-3.2326,-3.1243,0.0,0.0,0.0,-2.6391,-2.6087,-2.6087,-2.6087,-2.5158,-2.4746,-2.5777,-2.309,0.0,0.0,-1.9328,0.0,-1.4992,-1.5654,-1.6302,-1.662,-1.7686,-1.8864,-1.9922,-1.9005,-1.8864,-1.9937,-1.7882,-1.6607,-1.6607,-1.5482,-1.5482,-1.6607,-1.6607,-1.7764,-1.9989,-1.9989,-2.0743,-2.2114,-2.2114,-2.2968,-2.4522,-2.547,-2.669,-2.8143,-3.0305,-3.1223,-3.1223,-3.1444,-3.1709,-3.2228,-3.5116,-3.5842,-3.5709,-3.8472,-3.8833,-3.8256,-3.909,-4.0095,-4.0995,-4.1131,-4.23,-4.3591,-4.3706,-4.4231,-4.4961,-4.5673,-4.5875,-4.6161,-4.732,-4.7638,-4.8145,-4.9729,-5.0226,-5.0776,-5.2308,-5.2654,-5.2933,-5.3582,-5.4538,-5.5011,-5.4357,-5.4986,-5.5576,-5.5684,-5.6024,-5.6277,-5.6402,-5.6557,-5.6601,-5.6601,-5.6601,-5.6601,-5.6601,-5.6601,-5.6601,-5.6601,-5.6601,-5.6601,-5.6601,-5.6601,-5.6601,-5.6601,-5.6601,-5.6601,-5.6601,-5.6601,-5.6601,-2.9579,-3.1335,-3.3111,-3.3111,-3.2982,-3.2568,-3.1288,0.0,-3.0416,-2.9168,0.0,-2.8938,-2.8938,0.0,0.0,-2.8273,-2.7235,-2.6724,-2.7451,-2.5471,-2.3149,-2.0985,-1.9804,-1.9612,-2.0864,-2.1135,-2.1288,-2.144,-2.1338,-2.1288,-2.144,-2.1186,-2.0966,-2.0966,-2.0813,-2.0813,-2.0966,-2.0966,-2.1135,-2.144,-2.144,-2.2165,-2.3484,-2.3484,-2.4798,-2.7152,-2.7295,-2.8075,-2.9304,-3.0643,-3.1223,-3.1311,-3.2413,-3.3488,-3.4485,-3.5734,-3.6721,-3.7625,-3.8943,-3.9301,-3.9228,-3.9337,-4.0516,-4.1981,-4.2769,-4.368,-4.4547,-4.5108,-4.5312,-4.5673,-4.6864,-4.719,-4.7363,-4.8035,-4.8495,-4.8982,-4.9906,-5.0666,-5.1434,-5.2399,-5.2886,-5.3151,-5.3266,-5.3413,-5.3433,-5.3356,-5.4176,-5.4854,-5.4986,-5.5814,-5.6443,-5.6561,-5.6601,-5.6601,-5.6601,-5.6601,-5.6601,-5.6601,-5.6601,-5.6601,-5.6601,-5.6601,-5.6601,-5.6601,-5.6601,-5.6601,-5.6601,-5.6601,-5.6601,-5.6601,-5.6601,-5.6601,-2.8355,-3.0147,-3.1996,0.0,0.0,0.0,-3.2413,0.0,-3.2152,0.0,0.0,0.0,0.0,0.0,0.0,0.0,-3.112,-3.0652,0.0,0.0,-2.6769,-2.5785,0.0,0.0,-2.278,-2.2731,-2.2798,-2.2868,-2.2815,-2.2798,-2.2868,-2.2114,-2.1693,-2.1693,-2.1693,-2.1693,-2.1693,-2.1693,-2.2097,-2.2868,-2.2868,-2.3583,-2.4922,-2.5615,-2.6559,-2.7673,-2.9096,-2.9988,-3.053,-3.1777,-3.2692,-3.3284,-3.3801,-3.4304,-3.4815,-3.5814,-3.6905,-3.7956,-3.9017,-3.9373,-3.9589,-4.0585,-4.1755,-4.2925,-4.3768,-4.4541,-4.5196,-4.5451,-4.574,-4.6233,-4.7132,-4.7406,-4.7617,-4.844,-4.8779,-4.9139,-4.9942,-5.0366,-5.0782,-5.1365,-5.1621,-5.1741,-5.1741,-5.2549,-5.3049,-5.25,-5.3305,-5.3984,-5.4113,-5.4582,-5.4929,-5.5078,-5.5547,-5.5859,-5.5859,-5.6328,-5.6601,-5.6601,-5.6601,-5.6601,-5.6601,-5.6601,-5.6601,-5.6601,-5.6601,-5.6601,-5.6601,-5.6601,-5.6601,-5.6601,-5.6601,-5.6601,-2.76,0.0,0.0,0.0,0.0,0.0,0.0,0.0,0.0,0.0,0.0,0.0,0.0,0.0,-3.5089,-3.4928,0.0,-3.3822,-3.4968,-3.2532,-3.0347,0.0,0.0,0.0,0.0,-2.5734,-2.5622,-2.57,-2.5344,-2.517,-2.5266,-2.4349,-2.3642,-2.3331,-2.3331,-2.3331,-2.3331,-2.3331,-2.3974,-2.5266,-2.5266,-2.577,-2.6744,-2.7673,-2.8262,-2.868,-3.044,-3.14,-3.1821,-3.3018,-3.3995,-3.4759,-3.502,-3.5278,-3.5669,-3.6369,-3.7329,-3.8368,-3.9385,-3.9884,-4.0343,-4.1885,-4.2769,-4.3469,-4.4547,-4.5169,-4.5571,-4.5915,-4.6353,-4.6842,-4.747,-4.7741,-4.8004,-4.8724,-4.9059,-4.9401,-4.9974,-5.0183,-5.0347,-5.0634,-5.0712,-5.0712,-5.0712,-5.1702,-5.2299,-5.1712,-5.2461,-5.3159,-5.3273,-5.3601,-5.3889,-5.3984,-5.457,-5.4922,-5.4922,-5.5742,-5.6367,-5.6562,-5.6601,-5.6601,-5.6601,-5.6601,-5.6601,-5.6601,-5.6601,-5.6601,-5.6601,-5.6601,-5.6601,-5.6601,-5.6601,-5.6601,0.0,0.0,0.0,-3.0911,0.0,0.0,0.0,0.0,-3.3111,0.0,0.0,0.0,-3.4677,-3.548,-3.5979,-3.5466,-3.5786,0.0,0.0,-3.6368,-3.509,-3.2735,0.0,0.0,0.0,-3.1351,-3.0764,0.0,-2.9806,-2.9212,-2.9212,-2.9166,-2.8612,-2.7437,-2.7389,-2.7389,-2.7389,-2.7389,-2.8028,-2.9212,-2.9212,-2.9258,-2.9258,-2.9304,-2.9988,-3.1089,-3.1178,-3.1909,-3.3111,-3.4178,-3.4677,-3.4774,-3.5774,-3.6788,-3.7701,-3.7738,-3.8435,-3.9481,-4.0378,-4.1198,-4.2045,-4.2986,-4.3259,-4.3588,-4.5047,-4.5468,-4.5775,-4.6977,-4.7363,-4.7491,-4.8114,-4.8568,-4.8844,-4.8878,-4.9504,-5.0087,-5.0111,-5.0429,-5.0702,-5.0712,-5.0712,-5.0712,-5.0712,-5.075,-5.0826,-5.0929,-5.1734,-5.2386,-5.252,-5.3389,-5.3984,-5.3984,-5.4023,-5.4023,-5.4023,-5.4844,-5.5703,-5.6562,-5.6601,-5.6601,-5.6601,-5.6601,-5.6601,-5.6601,-5.6601,-5.6601,-5.6601,-5.6601,-5.6601,-5.6601,-5.6601,-5.6601,0.0,0.0,-2.9326,-2.8912,0.0,0.0,0.0,0.0,0.0,0.0,0.0,0.0,0.0,-3.5601,-3.6965,-3.6053,-3.7263,-3.8384,0.0,-3.8924,-3.908,-3.8841,-3.6977,-3.5441,0.0,0.0,0.0,0.0,-3.0728,-3.0214,-2.9442,-2.9396,-2.9235,-2.8819,-2.8773,-2.8773,-2.8773,-2.8773,-2.9004,-2.9396,-2.9396,-2.9396,-2.9442,-3.0214,-3.0822,-3.1311,-3.2857,-3.3775,-3.422,-3.5278,-3.612,-3.6816,-3.7137,-3.789,-3.8797,-3.8069,-3.8855,-4.0378,-4.1262,-4.2141,-4.2925,-4.3199,-4.3963,-4.4858,-4.5338,-4.6088,-4.6842,-4.7277,-4.7886,-4.8439,-4.8639,-4.8978,-4.9371,-4.9631,-4.9911,-5.0171,-5.0451,-5.0604,-5.0712,-5.0712,-5.0712,-5.0712,-5.0712,-5.0712,-5.0741,-5.0747,-5.1099,-5.1399,-5.1453,-5.1866,-5.2166,-5.2166,-5.2731,-5.3125,-5.3125,-5.4453,-5.543,-5.5703,-5.6289,-5.6601,-5.6601,-5.6601,-5.6601,-5.6601,-5.6601,-5.6601,-5.6601,-5.6601,-5.6601,-5.6601,-5.6601,-5.6601,-2.5693,-2.6887,0.0,-2.8215,-2.9396,0.0,-3.1089,0.0,-3.1444,0.0,0.0,0.0,0.0,-3.5827,-3.7195,-3.7329,-3.8479,-3.9517,0.0,-4.0588,-4.1462,-4.2363,-4.0108,-3.8084,-3.6987,-3.5656,-3.417,-3.245,-3.2054,-3.1557,0.0,-3.0732,-3.0508,-3.0033,-3.0033,-3.0033,-3.0033,-3.0033,-3.0283,-3.0732,-3.0732,-3.0732,-3.0732,-3.1512,-3.2059,-3.2513,-3.4069,-3.4897,-3.5319,-3.633,-3.7175,-3.7843,-3.8219,-3.8987,-3.9778,-3.9109,-4.0008,-4.1691,-4.2269,-4.3164,-4.4078,-4.4078,-4.4878,-4.584,-4.6112,-4.6751,-4.7491,-4.7846,-4.8421,-4.8928,-4.9075,-4.9416,-4.9792,-5.0024,-5.0206,-5.0369,-5.0634,-5.0712,-5.0712,-5.0712,-5.0712,-5.0712,-5.0712,-5.0712,-5.0702,-5.0747,-5.0844,-5.0911,-5.0979,-5.1074,-5.1161,-5.1161,-5.1752,-5.2241,-5.2514,-5.3609,-5.4507,-5.513,-5.5731,-5.6205,-5.6517,-5.6562,-5.6758,-5.707,-5.6758,-5.6758,-5.707,-5.6758,-5.6601,-5.6601,-5.6601,-5.6601]},{"header":{"parameterUnit":"m.s-1","parameterCategory":1,"la1":30.6,"la2":29.2853,"lo1":-89.7004,"lo2":-87.6739,"dy":0.0162,"dx":0.0183,"nx":112,"ny":82,"refTime":"2024-02-07T18:00:00:Z","depth":0,"parameterNumber":3,"parameterNumberName":"V-component_of_WINDS"},"data":[0.0,0.0,0.0,0.0,0.0,0.0,0.0,0.0,0.0,0.0,0.0,0.0,0.0,0.0,0.0,0.0,0.0,0.0,0.0,0.0,0.0,0.0,0.0,0.0,0.0,0.0,0.0,0.0,0.0,0.0,0.0,0.0,0.0,0.0,0.0,0.0,0.0,0.0,0.0,0.0,0.0,0.0,0.0,0.0,0.0,0.0,0.0,0.0,0.0,0.0,0.0,0.0,0.0,0.0,0.0,0.0,0.0,0.0,0.0,0.0,0.0,0.0,0.0,0.0,0.0,0.0,0.0,0.0,0.0,0.0,0.0,0.0,0.0,0.0,0.0,0.0,0.0,0.0,0.0,0.0,0.0,0.0,0.0,0.0,0.0,0.0,0.0,0.0,0.0,0.0,4.3525,4.332,4.338,4.3735,4.4525,4.4615,4.4799,4.5244,0.0,0.0,0.0,0.0,0.0,0.0,0.0,0.0,0.0,0.0,0.0,0.0,0.0,0.0,0.0,0.0,0.0,0.0,0.0,0.0,0.0,0.0,0.0,0.0,0.0,0.0,0.0,0.0,0.0,0.0,0.0,0.0,0.0,0.0,0.0,0.0,0.0,0.0,0.0,0.0,0.0,0.0,0.0,0.0,0.0,0.0,0.0,0.0,0.0,0.0,0.0,0.0,0.0,0.0,0.0,0.0,0.0,0.0,0.0,0.0,0.0,0.0,0.0,0.0,0.0,0.0,0.0,0.0,0.0,0.0,0.0,0.0,0.0,0.0,0.0,0.0,0.0,0.0,0.0,0.0,0.0,0.0,0.0,0.0,0.0,0.0,0.0,0.0,0.0,0.0,0.0,0.0,0.0,0.0,0.0,0.0,0.0,0.0,0.0,0.0,0.0,0.0,0.0,0.0,4.449,4.3439,4.3747,4.4204,4.4553,4.4615,4.4941,4.5667,0.0,0.0,0.0,0.0,0.0,0.0,0.0,0.0,0.0,0.0,0.0,0.0,0.0,0.0,0.0,0.0,0.0,0.0,0.0,0.0,0.0,0.0,0.0,0.0,0.0,0.0,0.0,0.0,0.0,0.0,0.0,0.0,0.0,0.0,0.0,0.0,0.0,0.0,0.0,0.0,0.0,0.0,0.0,0.0,0.0,0.0,0.0,0.0,0.0,0.0,0.0,0.0,0.0,0.0,0.0,0.0,0.0,0.0,0.0,0.0,0.0,0.0,0.0,0.0,0.0,0.0,0.0,0.0,0.0,0.0,0.0,0.0,0.0,0.0,0.0,0.0,0.0,0.0,0.0,0.0,0.0,0.0,0.0,0.0,0.0,0.0,0.0,0.0,0.0,0.0,0.0,0.0,0.0,0.0,0.0,0.0,0.0,0.0,0.0,0.0,0.0,0.0,0.0,4.5895,4.5474,4.4578,4.5016,4.5432,4.5571,4.5571,4.5987,4.6921,4.6053,0.0,0.0,0.0,0.0,0.0,0.0,0.0,0.0,0.0,0.0,0.0,0.0,0.0,0.0,0.0,0.0,0.0,0.0,0.0,0.0,0.0,0.0,0.0,0.0,0.0,0.0,0.0,0.0,0.0,0.0,0.0,0.0,0.0,0.0,0.0,0.0,0.0,0.0,0.0,0.0,0.0,0.0,0.0,0.0,0.0,0.0,0.0,0.0,0.0,0.0,0.0,0.0,0.0,0.0,0.0,0.0,0.0,0.0,0.0,0.0,0.0,0.0,0.0,0.0,0.0,0.0,0.0,0.0,0.0,0.0,0.0,0.0,0.0,0.0,0.0,0.0,0.0,0.0,0.0,0.0,0.0,0.0,0.0,0.0,0.0,0.0,0.0,0.0,0.0,0.0,0.0,0.0,0.0,0.0,0.0,0.0,0.0,0.0,0.0,0.0,0.0,0.0,4.6052,4.6014,4.5545,4.6039,4.6389,4.6389,4.6389,4.6922,4.8126,4.7588,0.0,0.0,0.0,0.0,0.0,0.0,0.0,0.0,0.0,0.0,0.0,0.0,0.0,0.0,0.0,0.0,0.0,0.0,0.0,0.0,0.0,0.0,0.0,0.0,0.0,0.0,0.0,0.0,0.0,0.0,0.0,0.0,0.0,0.0,0.0,0.0,0.0,0.0,0.0,0.0,0.0,0.0,0.0,0.0,0.0,0.0,0.0,0.0,0.0,0.0,0.0,0.0,0.0,0.0,0.0,0.0,0.0,0.0,0.0,0.0,0.0,0.0,0.0,0.0,0.0,0.0,0.0,0.0,0.0,0.0,0.0,0.0,0.0,0.0,0.0,0.0,0.0,0.0,0.0,0.0,0.0,0.0,0.0,0.0,0.0,0.0,0.0,0.0,0.0,0.0,0.0,0.0,0.0,0.0,0.0,0.0,0.0,0.0,0.0,0.0,0.0,0.0,4.6116,4.5545,4.5494,4.6039,4.6389,4.6389,4.6389,4.7087,4.8634,4.8625,0.0,0.0,0.0,0.0,0.0,0.0,0.0,0.0,0.0,0.0,0.0,0.0,0.0,0.0,0.0,0.0,0.0,0.0,0.0,0.0,0.0,0.0,0.0,0.0,0.0,0.0,0.0,0.0,0.0,0.0,0.0,0.0,0.0,0.0,0.0,0.0,0.0,0.0,0.0,0.0,0.0,0.0,0.0,0.0,0.0,0.0,0.0,0.0,0.0,0.0,0.0,0.0,0.0,0.0,0.0,0.0,0.0,0.0,0.0,0.0,0.0,0.0,0.0,0.0,0.0,0.0,0.0,0.0,0.0,0.0,0.0,0.0,0.0,0.0,0.0,0.0,0.0,0.0,0.0,0.0,0.0,0.0,0.0,0.0,0.0,0.0,0.0,0.0,0.0,0.0,0.0,0.0,0.0,0.0,0.0,0.0,0.0,0.0,0.0,0.0,0.0,0.0,4.709,4.6682,4.6682,4.7219,4.7575,4.7575,4.7829,4.834,4.9288,0.0,0.0,0.0,0.0,0.0,0.0,0.0,0.0,0.0,0.0,0.0,0.0,0.0,0.0,0.0,0.0,0.0,0.0,0.0,0.0,0.0,0.0,0.0,0.0,0.0,0.0,0.0,0.0,0.0,0.0,0.0,0.0,0.0,0.0,0.0,0.0,0.0,0.0,0.0,0.0,0.0,0.0,0.0,0.0,0.0,0.0,0.0,0.0,0.0,0.0,0.0,0.0,0.0,0.0,0.0,0.0,0.0,0.0,0.0,0.0,0.0,0.0,0.0,0.0,0.0,0.0,0.0,0.0,0.0,0.0,0.0,0.0,0.0,0.0,0.0,0.0,0.0,0.0,0.0,0.0,0.0,0.0,0.0,0.0,0.0,0.0,0.0,0.0,0.0,0.0,0.0,0.0,0.0,0.0,0.0,0.0,0.0,0.0,0.0,0.0,0.0,0.0,4.8163,4.7352,4.6932,4.7363,4.7777,4.8153,4.8477,4.8744,4.9205,4.9893,0.0,0.0,0.0,0.0,0.0,0.0,0.0,0.0,0.0,0.0,0.0,0.0,0.0,0.0,0.0,0.0,0.0,0.0,0.0,0.0,0.0,0.0,0.0,0.0,0.0,0.0,0.0,0.0,0.0,0.0,0.0,0.0,0.0,0.0,0.0,0.0,0.0,0.0,0.0,0.0,0.0,0.0,0.0,0.0,0.0,0.0,0.0,0.0,0.0,0.0,0.0,0.0,0.0,0.0,0.0,0.0,0.0,0.0,0.0,0.0,0.0,0.0,0.0,0.0,0.0,0.0,0.0,0.0,0.0,0.0,0.0,0.0,0.0,0.0,0.0,0.0,0.0,0.0,0.0,0.0,0.0,0.0,0.0,0.0,0.0,0.0,0.0,0.0,0.0,0.0,0.0,0.0,0.0,0.0,0.0,0.0,0.0,0.0,0.0,0.0,0.0,0.0,4.8479,4.6815,4.5989,4.7277,4.7406,4.7826,4.881,4.8878,4.9363,0.0,0.0,0.0,0.0,0.0,0.0,0.0,0.0,0.0,0.0,0.0,0.0,0.0,0.0,0.0,0.0,0.0,0.0,0.0,0.0,0.0,0.0,0.0,0.0,0.0,0.0,0.0,0.0,0.0,0.0,0.0,0.0,0.0,0.0,0.0,0.0,0.0,0.0,0.0,0.0,0.0,0.0,0.0,0.0,0.0,0.0,0.0,0.0,0.0,0.0,0.0,0.0,0.0,0.0,0.0,0.0,0.0,0.0,0.0,0.0,0.0,0.0,0.0,0.0,0.0,0.0,0.0,0.0,0.0,0.0,0.0,0.0,0.0,0.0,0.0,0.0,0.0,0.0,0.0,0.0,0.0,0.0,0.0,0.0,0.0,0.0,0.0,0.0,0.0,0.0,0.0,0.0,0.0,0.0,0.0,0.0,0.0,0.0,0.0,0.0,0.0,0.0,0.0,4.9136,4.7838,4.7168,4.7955,4.8035,4.8271,4.8827,4.9155,4.967,5.0465,0.0,0.0,0.0,0.0,0.0,0.0,0.0,0.0,0.0,0.0,0.0,0.0,0.0,0.0,0.0,0.0,0.0,0.0,0.0,0.0,0.0,0.0,0.0,0.0,0.0,0.0,0.0,0.0,0.0,0.0,0.0,0.0,0.0,0.0,0.0,0.0,0.0,0.0,0.0,0.0,0.0,0.0,0.0,0.0,0.0,0.0,0.0,0.0,0.0,0.0,0.0,0.0,0.0,0.0,0.0,0.0,0.0,0.0,0.0,0.0,0.0,0.0,0.0,0.0,0.0,0.0,0.0,0.0,0.0,0.0,0.0,0.0,0.0,0.0,0.0,0.0,0.0,0.0,0.0,0.0,0.0,0.0,0.0,0.0,0.0,0.0,0.0,0.0,0.0,0.0,0.0,0.0,0.0,0.0,0.0,0.0,0.0,0.0,0.0,0.0,0.0,0.0,4.9408,4.8401,4.7806,4.8267,4.8439,4.8692,4.9108,4.9356,4.9847,5.0619,0.0,0.0,0.0,0.0,0.0,0.0,0.0,0.0,0.0,0.0,0.0,0.0,0.0,0.0,0.0,0.0,0.0,0.0,0.0,0.0,0.0,0.0,0.0,0.0,0.0,0.0,0.0,0.0,0.0,0.0,0.0,0.0,0.0,0.0,0.0,0.0,0.0,0.0,0.0,0.0,0.0,0.0,0.0,0.0,0.0,0.0,0.0,0.0,0.0,0.0,0.0,0.0,0.0,0.0,0.0,0.0,0.0,0.0,0.0,0.0,0.0,0.0,0.0,0.0,0.0,0.0,0.0,0.0,0.0,0.0,0.0,0.0,0.0,0.0,0.0,0.0,0.0,0.0,0.0,0.0,0.0,0.0,0.0,0.0,0.0,0.0,0.0,0.0,0.0,0.0,0.0,0.0,0.0,0.0,0.0,0.0,0.0,0.0,0.0,0.0,0.0,0.0,4.9466,4.8699,4.8162,4.8402,4.8727,4.9123,4.9518,4.9547,4.996,5.0852,0.0,0.0,0.0,0.0,0.0,0.0,0.0,0.0,0.0,0.0,0.0,0.0,0.0,0.0,0.0,0.0,0.0,0.0,0.0,0.0,0.0,0.0,0.0,0.0,0.0,0.0,0.0,0.0,0.0,0.0,0.0,0.0,0.0,0.0,0.0,0.0,0.0,0.0,0.0,0.0,0.0,0.0,0.0,0.0,0.0,0.0,0.0,0.0,0.0,0.0,0.0,0.0,0.0,0.0,0.0,0.0,0.0,0.0,0.0,0.0,4.6954,0.0,0.0,0.0,0.0,0.0,0.0,0.0,0.0,0.0,0.0,0.0,0.0,0.0,0.0,0.0,0.0,0.0,0.0,0.0,0.0,0.0,0.0,0.0,0.0,0.0,0.0,0.0,0.0,0.0,0.0,0.0,0.0,0.0,0.0,0.0,0.0,0.0,0.0,0.0,0.0,0.0,4.9924,4.9242,4.8841,4.9202,4.9311,4.9532,4.9936,4.9962,5.0232,5.0859,5.0906,0.0,0.0,0.0,0.0,0.0,0.0,0.0,0.0,0.0,0.0,0.0,0.0,0.0,0.0,0.0,0.0,0.0,0.0,0.0,0.0,0.0,0.0,0.0,0.0,0.0,0.0,0.0,0.0,0.0,0.0,0.0,0.0,0.0,0.0,0.0,0.0,0.0,0.0,0.0,0.0,0.0,0.0,0.0,0.0,0.0,0.0,0.0,0.0,0.0,0.0,0.0,0.0,0.0,0.0,0.0,0.0,0.0,0.0,0.0,0.0,4.7603,0.0,0.0,0.0,0.0,0.0,0.0,0.0,0.0,0.0,0.0,0.0,0.0,0.0,0.0,0.0,0.0,0.0,0.0,0.0,0.0,0.0,0.0,0.0,0.0,0.0,0.0,0.0,0.0,0.0,0.0,0.0,0.0,0.0,0.0,0.0,0.0,0.0,0.0,0.0,0.0,5.0049,4.9728,4.9489,4.9489,4.9659,4.9885,5.0099,5.0111,5.0336,5.0867,5.0906,0.0,0.0,0.0,0.0,0.0,0.0,0.0,0.0,0.0,0.0,0.0,0.0,0.0,0.0,0.0,0.0,0.0,0.0,0.0,0.0,0.0,0.0,0.0,0.0,0.0,0.0,0.0,0.0,0.0,0.0,0.0,0.0,0.0,0.0,0.0,0.0,0.0,0.0,0.0,0.0,0.0,0.0,0.0,0.0,0.0,0.0,0.0,0.0,0.0,0.0,0.0,0.0,0.0,4.7136,4.7111,4.7136,4.7895,4.8065,4.7776,4.7408,4.7544,4.8112,4.8628,0.0,0.0,0.0,0.0,0.0,0.0,0.0,0.0,0.0,0.0,0.0,0.0,0.0,0.0,0.0,0.0,0.0,0.0,0.0,0.0,0.0,0.0,0.0,0.0,4.5765,4.5825,0.0,0.0,0.0,0.0,0.0,0.0,0.0,0.0,0.0,0.0,0.0,0.0,5.0195,5.0147,4.9987,4.9765,4.9999,5.0195,5.0195,5.0241,5.044,5.0867,5.0926,5.0934,0.0,0.0,0.0,0.0,0.0,0.0,0.0,0.0,0.0,0.0,0.0,0.0,0.0,0.0,0.0,0.0,0.0,0.0,0.0,0.0,0.0,0.0,0.0,0.0,0.0,0.0,0.0,0.0,0.0,0.0,0.0,0.0,4.5589,4.5589,0.0,0.0,0.0,0.0,0.0,0.0,0.0,0.0,0.0,0.0,0.0,0.0,0.0,4.6311,4.6973,4.6695,4.6577,4.669,4.6987,4.7093,4.7129,4.7924,4.8273,4.8217,4.8163,0.0,4.8791,4.884,0.0,0.0,0.0,0.0,0.0,0.0,0.0,0.0,0.0,0.0,0.0,0.0,0.0,0.0,0.0,0.0,0.0,0.0,0.0,0.0,0.0,0.0,4.4824,4.4824,4.5196,4.5699,0.0,4.7325,4.8182,4.8841,4.9311,0.0,0.0,0.0,0.0,0.0,0.0,0.0,5.0584,5.0325,5.0206,5.0504,5.0594,5.0614,5.0614,5.0735,5.0836,5.0889,5.1024,5.1014,5.0894,5.0913,0.0,0.0,0.0,0.0,0.0,0.0,0.0,0.0,0.0,0.0,0.0,0.0,0.0,0.0,0.0,0.0,0.0,0.0,0.0,0.0,0.0,0.0,0.0,0.0,0.0,0.0,0.0,0.0,0.0,4.6004,4.6005,4.6005,4.6072,4.6089,0.0,0.0,0.0,0.0,0.0,0.0,0.0,0.0,0.0,4.6278,4.6265,4.6529,4.7068,4.6966,4.709,4.7573,4.7703,4.7773,4.7773,4.8159,4.8306,4.8306,4.8306,4.8383,4.8586,4.8813,4.9108,4.946,0.0,0.0,0.0,0.0,4.9741,4.9687,4.9311,4.9155,0.0,4.9155,0.0,0.0,0.0,0.0,0.0,0.0,0.0,0.0,0.0,0.0,0.0,4.5699,4.579,4.6185,4.6819,4.7334,4.7892,0.0,4.9043,4.9371,4.9987,0.0,0.0,0.0,0.0,5.0268,5.0634,5.0563,5.0504,5.0692,5.0712,5.073,5.0825,5.0875,5.0939,5.0998,5.1014,5.0964,5.0884,5.0835,5.0469,0.0,0.0,0.0,0.0,0.0,0.0,0.0,0.0,0.0,0.0,0.0,0.0,0.0,0.0,0.0,0.0,0.0,0.0,0.0,0.0,0.0,0.0,0.0,0.0,0.0,0.0,0.0,0.0,4.6059,4.6034,4.6034,4.6034,4.5985,0.0,0.0,0.0,0.0,0.0,0.0,4.6181,4.6095,4.6248,4.669,4.6631,4.6868,4.7406,4.7406,4.77,4.8306,4.8306,4.8306,4.8306,4.8306,4.8306,4.8306,4.8306,4.8306,4.8325,4.8622,4.8813,4.8911,4.9234,4.9401,4.9489,4.9386,4.9341,4.9295,4.8898,4.8744,4.8744,4.8744,0.0,4.8945,4.9249,0.0,0.0,0.0,0.0,4.8492,4.7779,4.7362,4.7021,4.6507,4.6507,4.6796,4.7299,4.7512,4.7842,0.0,4.8744,4.8961,4.9673,0.0,0.0,0.0,0.0,5.0268,5.0634,5.0712,5.0712,5.0712,5.0712,5.0729,5.0874,5.0901,5.0979,5.1093,5.0972,5.0855,5.0751,5.0625,5.0206,4.9504,0.0,0.0,0.0,0.0,0.0,0.0,0.0,0.0,0.0,0.0,0.0,0.0,0.0,0.0,0.0,0.0,0.0,0.0,0.0,0.0,0.0,0.0,0.0,0.0,0.0,0.0,0.0,0.0,0.0,4.5809,4.5809,0.0,0.0,0.0,0.0,4.6077,4.6647,4.6883,4.6598,4.645,4.6611,4.704,4.7095,4.7425,4.8233,4.8233,4.8269,4.8306,4.8306,4.8306,4.8306,4.8306,4.8306,4.8306,4.8306,4.8306,4.8306,4.8325,4.855,4.8878,4.8911,4.9155,4.9445,4.9059,4.8911,4.8844,4.8477,4.8344,4.8344,4.8344,4.8586,4.8878,4.8911,4.9202,0.0,0.0,4.8069,4.7799,4.677,4.646,4.6436,4.6389,4.6887,4.7363,4.7385,4.7838,4.8267,0.0,4.8344,4.8477,4.8898,0.0,4.9218,4.9999,5.0123,5.0268,5.0634,5.0712,5.0712,5.0712,5.0712,5.0729,5.0874,5.0893,5.0947,5.1094,5.0971,5.0743,5.0346,5.0183,4.9936,4.9504,4.9123,0.0,0.0,0.0,0.0,0.0,0.0,0.0,0.0,0.0,0.0,0.0,0.0,0.0,0.0,0.0,0.0,0.0,0.0,0.0,0.0,0.0,0.0,0.0,0.0,0.0,0.0,0.0,0.0,4.5841,4.6266,0.0,4.6406,4.674,4.6908,4.6692,4.6463,4.6504,4.6895,4.6887,4.7169,4.7865,4.7846,4.8012,4.8306,4.8306,4.8306,4.8306,4.8306,4.8306,4.8306,4.8306,4.8306,4.8306,4.8306,4.8306,4.8306,4.8306,4.8364,4.8495,4.8495,4.8604,4.8729,4.8568,4.8495,4.8477,4.8363,4.8306,4.8306,4.8306,4.8383,4.855,4.883,4.883,4.8761,4.8919,4.8787,4.8474,4.8124,4.7992,4.7951,4.7663,4.7818,4.7995,4.7995,4.8365,4.8674,4.8674,4.8674,4.8727,4.8898,4.9108,4.9475,5.0012,5.0111,5.0268,5.0634,5.0712,5.0712,5.0712,5.0712,5.0791,5.0996,5.0942,5.0971,5.1102,5.0975,5.0692,5.0183,5.0133,4.9768,4.9123,4.8598,4.8292,0.0,0.0,0.0,0.0,0.0,0.0,0.0,0.0,0.0,0.0,0.0,0.0,0.0,0.0,0.0,0.0,0.0,0.0,0.0,0.0,0.0,0.0,0.0,0.0,0.0,4.6134,4.6203,4.6268,4.6907,4.7279,4.7,4.7346,4.7413,4.7064,4.6829,4.6948,4.748,4.748,4.7736,4.8269,4.8306,4.8306,4.8306,4.8306,4.8306,4.8306,4.8306,4.8306,4.8306,4.8306,4.8306,4.8306,4.8306,4.8306,4.8306,4.8306,4.8306,4.8306,4.8306,4.8306,4.8306,4.8306,4.8306,4.8306,4.8306,4.8306,4.8306,4.8306,4.8383,4.8513,4.8676,4.8604,4.8622,4.9139,4.9108,4.8911,4.9059,4.9092,4.9027,4.8761,4.8674,4.8674,4.8674,4.8932,4.9092,4.9092,4.9092,4.9092,4.9092,4.9326,4.9689,5.02,5.0418,5.0729,5.1267,5.118,5.1087,5.1087,5.0894,5.0852,5.1018,5.1001,5.0975,5.1047,5.0819,5.0452,4.9936,4.9754,4.9386,4.8692,4.7802,4.7217,4.69,0.0,0.0,0.0,0.0,0.0,0.0,0.0,0.0,0.0,0.0,0.0,0.0,0.0,0.0,0.0,0.0,0.0,0.0,0.0,0.0,0.0,0.0,0.0,4.6051,4.6562,4.7034,4.7034,4.767,4.7831,4.7133,4.7754,4.7941,4.7206,4.7865,4.8306,4.8306,4.8306,4.8306,4.8306,4.8306,4.8306,4.8306,4.8306,4.8306,4.8306,4.8306,4.8306,4.8306,4.8306,4.8306,4.8306,4.8306,4.8306,4.8306,4.8306,4.8306,4.8306,4.8306,4.8306,4.8306,4.8306,4.8306,4.8306,4.8306,4.8306,4.8306,4.8306,4.8568,4.883,4.8458,4.8622,4.8911,4.8945,4.8928,4.9027,4.9416,4.9518,4.9504,4.9504,4.9489,4.9489,4.9527,4.9541,4.9556,4.9594,4.9594,4.9594,4.9541,4.9594,4.9858,5.0636,5.1087,0.0,5.2501,5.2203,5.1923,5.1923,5.1374,5.0951,5.0957,5.1048,5.1056,5.0879,5.0515,5.0046,4.9504,4.9092,4.8656,4.8192,4.6806,4.5416,4.4187,0.0,0.0,0.0,0.0,0.0,0.0,0.0,0.0,0.0,0.0,0.0,0.0,0.0,0.0,0.0,0.0,0.0,0.0,0.0,0.0,0.0,4.7383,4.7636,4.6797,4.7341,4.779,4.779,4.8296,4.8518,4.8313,4.8535,4.8625,4.841,4.8329,4.8306,4.8306,4.8306,4.8306,4.8306,4.8306,4.8306,4.8306,4.8306,4.8306,4.8306,4.8306,4.8306,4.8306,4.8306,4.8306,4.8306,4.8306,4.8306,4.8306,4.8306,4.8306,4.8306,4.8306,4.8306,4.8306,4.8306,4.8306,4.8306,4.8306,4.8306,4.8306,4.8306,4.8568,4.8911,4.9108,4.9249,4.946,5.0037,4.9987,4.9819,4.9911,4.9936,4.9872,4.9561,4.9489,4.9692,5.0311,5.0637,5.0976,5.1636,5.1978,5.1787,5.0639,5.1396,5.2165,5.2081,5.2406,0.0,5.2998,5.292,5.2856,5.2856,5.2685,5.2353,5.1801,5.1709,5.1316,5.0512,5.0291,4.9835,4.9092,4.8545,4.762,4.6305,4.573,4.4825,0.0,0.0,0.0,0.0,0.0,0.0,0.0,0.0,0.0,0.0,0.0,0.0,0.0,0.0,0.0,0.0,0.0,0.0,0.0,0.0,0.0,0.0,4.8231,4.8585,4.8083,4.836,4.8625,4.8625,4.9217,4.9469,4.9112,4.9114,4.8994,4.8656,4.8439,4.8306,4.8306,4.8306,4.8306,4.8306,4.8306,4.8306,4.8306,4.8306,4.8306,4.8306,4.8306,4.8306,4.8306,4.8306,4.8306,0.0,4.8306,4.8306,4.8325,4.8495,4.8458,0.0,0.0,0.0,0.0,0.0,4.8306,4.8306,4.8306,4.8402,4.855,4.855,4.8965,4.9416,4.9475,4.9603,4.9859,5.0325,5.0291,5.0147,5.0313,5.0347,5.0302,5.0037,5.0253,5.0647,5.1142,5.1723,5.2235,5.2732,5.3327,0.0,5.2527,5.2832,5.3185,5.3111,5.348,5.3815,5.3951,5.3887,5.383,5.383,5.3543,5.3169,5.2691,5.2296,0.0,0.0,0.0,4.9438,4.8311,4.7931,0.0,0.0,0.0,4.334,4.1531,0.0,0.0,0.0,3.7402,3.727,0.0,0.0,0.0,0.0,0.0,0.0,0.0,0.0,0.0,0.0,0.0,0.0,0.0,0.0,0.0,0.0,4.9076,4.9548,4.9548,4.9548,4.9548,4.9548,5.0183,5.0336,4.9561,4.9489,4.9155,4.8382,4.8344,4.8363,4.8306,0.0,0.0,0.0,0.0,4.8306,4.8306,4.8306,4.8306,4.8306,4.8363,4.8363,4.8306,4.8363,4.8363,4.8306,4.8363,4.8382,4.8383,4.8796,4.8761,4.8421,4.8344,4.8344,4.8382,4.8382,4.8383,4.8439,4.8439,0.0,0.0,4.8961,4.9489,5.0024,4.9659,4.9859,5.0171,5.0171,5.0171,5.023,5.0604,5.0789,5.0827,5.0827,5.1471,5.2077,5.2154,5.2818,5.3356,5.3472,5.4126,5.4626,5.4626,5.3972,5.3607,5.3976,5.4373,5.4781,5.5148,5.4969,5.4831,5.4837,0.0,0.0,5.3532,5.2771,5.2019,5.128,5.0114,4.8796,4.7349,4.7234,4.6223,4.4131,4.326,4.1598,3.911,3.7139,3.5654,3.4733,3.7092,3.7157,0.0,0.0,0.0,0.0,0.0,0.0,0.0,0.0,0.0,0.0,0.0,0.0,0.0,0.0,0.0,4.9315,4.9963,5.0442,5.0442,5.0442,5.0442,5.0442,5.0314,5.0012,4.9547,4.9489,4.9155,4.8382,4.8604,4.8658,4.8325,4.8306,4.8306,4.8306,4.8306,4.8306,4.8306,4.8306,4.8306,4.8306,0.0,0.0,4.8306,4.864,4.8622,4.8325,4.8658,4.8779,4.8813,4.9218,4.9341,4.9202,4.8532,4.8514,4.8779,4.8779,4.8978,4.9265,4.9265,4.9311,4.9386,4.9386,4.97,5.0099,4.9999,5.0241,0.0,5.0594,5.0594,5.0604,5.0692,5.1164,5.1654,5.1654,5.2318,5.3126,5.3857,5.4126,5.4434,5.5088,5.5357,5.5472,5.5472,5.5318,5.522,5.5319,5.5401,5.5535,5.573,5.5711,5.5655,5.5662,5.5527,5.5155,5.4351,5.3196,5.2055,5.0964,4.8969,4.7456,4.6623,4.6136,4.5111,4.3525,4.2611,4.1171,3.911,3.7139,3.5654,3.4692,3.4376,3.3445,0.0,0.0,0.0,0.0,0.0,0.0,0.0,0.0,0.0,0.0,0.0,4.9091,4.8983,0.0,5.0231,5.0154,5.047,5.0712,5.0712,5.0712,5.0712,5.0712,5.0514,5.023,4.9846,4.9819,4.9547,4.8965,4.8915,4.8813,4.8622,4.8402,4.8306,4.8306,4.8306,4.8306,4.8306,4.8514,4.8604,4.8604,4.8994,4.8978,4.8622,4.8813,4.8656,4.8325,4.8709,4.8878,4.8911,4.9341,4.9603,4.9728,4.9123,4.9011,4.9202,4.9202,4.9326,4.9489,4.9489,4.9617,4.9819,4.9819,5.0049,5.038,5.038,5.0525,5.0712,5.0712,5.0712,5.0789,5.1202,5.1587,5.2,5.2462,5.3241,5.3972,5.4395,5.4818,5.5203,5.5626,5.5703,5.5703,5.5703,5.5703,5.5703,5.5703,5.574,5.5834,5.5907,5.6052,5.6109,5.6073,5.6054,5.5803,5.5249,5.3793,5.2056,5.0118,4.8753,4.7384,4.6024,4.5234,4.3905,4.1885,4.1006,3.9329,3.688,3.5907,3.4938,3.3869,3.2717,3.1821,0.0,0.0,0.0,0.0,0.0,0.0,0.0,4.875,4.8694,4.8961,4.9688,5.0155,4.9884,5.0529,5.0998,5.074,5.0712,5.0712,5.0712,5.0712,5.0712,5.0712,5.0712,5.0525,5.0147,5.0171,5.0012,4.9532,4.928,4.9092,4.9011,4.8692,4.8513,4.8513,4.8513,4.8513,4.8513,4.9013,4.9288,4.9288,4.977,4.9784,4.9379,4.9362,4.9138,4.8802,4.9296,4.9594,4.9746,5.0009,5.0252,5.04,5.002,4.9811,4.9714,4.9631,4.9659,4.9714,4.9714,4.9949,5.0206,5.0206,5.0451,5.0712,5.0712,5.0712,5.0712,5.0712,5.0827,5.1087,5.1731,5.2154,5.2577,5.328,5.4126,5.4741,5.4741,5.5241,5.5703,5.5703,5.5703,5.5703,5.5703,5.5717,5.5728,5.5714,5.5816,5.5893,5.5939,5.6182,5.6315,5.6206,5.6172,5.5934,5.5402,5.3854,5.1872,4.9455,4.862,4.737,4.5545,4.4338,4.2594,4.0208,3.9264,3.7424,3.4718,3.4718,3.4011,3.2698,3.1689,3.1089,4.5594,4.6268,4.7003,4.7145,4.7752,4.8616,0.0,4.9898,5.0008,5.0733,5.099,5.0985,5.0778,5.0854,5.089,5.0712,5.0712,5.0712,5.0712,5.0712,5.0712,5.0712,5.0712,5.0525,5.0147,5.0402,5.0325,4.9547,4.9806,4.9832,4.9445,4.9386,4.9356,4.9356,4.9356,4.9356,4.9356,5.0184,5.0591,5.0591,5.1352,5.1528,5.1131,5.1058,5.0824,5.0568,5.1316,5.2061,5.2697,5.2398,5.2012,5.1659,5.1264,5.0891,5.0514,5.0171,5.0279,5.0584,5.0584,5.0604,5.0624,5.0624,5.0644,5.0712,5.0712,5.0712,5.0712,5.0712,5.1202,5.1769,5.1885,5.3049,5.4241,5.4318,5.4972,5.5549,5.5549,5.5626,5.5703,5.5703,5.5703,5.5703,5.5703,5.5788,5.5852,5.5707,5.5816,5.5947,5.6152,5.6202,5.6203,5.6186,5.6045,5.5278,5.3628,5.2453,5.1161,4.9734,4.7872,4.6366,4.5371,4.3166,4.1113,3.9294,3.8223,3.6708,3.4718,3.4718,3.3538,3.14,3.1267,3.0619,4.6358,4.72,4.8079,4.8777,4.9164,4.9628,5.0662,5.0808,5.0836,5.1247,5.132,5.1256,5.1058,5.1002,5.0952,5.073,5.0712,5.0712,5.0712,5.0712,5.0712,5.0712,5.0712,5.0624,5.0472,5.0604,5.0573,5.0206,5.0147,5.0012,4.9872,4.9617,4.9489,4.9489,4.9994,5.0273,5.0273,5.1309,5.1836,5.1836,5.2438,5.25,5.209,5.2076,5.1971,5.1886,5.2215,5.2665,5.3192,5.2998,5.2828,5.2644,5.2461,5.1984,5.1308,5.0696,5.0573,5.0712,5.0712,5.0712,5.0712,5.0712,5.0712,5.0712,5.0712,5.0712,5.0789,5.1279,5.1654,5.2115,5.3164,5.3933,5.4626,5.5088,5.5472,5.5703,5.5703,5.575,5.5816,5.5816,5.593,5.5978,5.5978,5.6044,5.6064,5.5986,5.609,5.6191,5.6204,5.6289,5.6224,5.6045,5.5663,5.502,5.4034,5.2921,5.1231,4.8643,4.7261,4.5332,4.2556,4.0974,3.9244,3.7272,3.6348,3.4805,3.2642,3.2642,3.1816,3.0124,2.9442,2.8405,4.7195,4.8156,4.9087,4.9948,5.0261,5.0568,5.1249,5.1321,5.1273,5.1367,5.1406,5.1322,5.1175,5.1144,5.1058,5.0808,5.0776,5.0749,5.0721,5.0712,5.0712,5.0712,5.0712,5.0712,5.0712,5.0712,5.0712,5.0712,5.044,5.0279,5.0279,5.0215,5.0149,5.0149,5.0998,5.1467,5.1467,5.2564,5.3133,5.3133,5.3529,5.3587,5.3302,5.316,5.3173,5.3302,5.3302,5.3513,5.3895,5.3895,5.378,5.3549,5.3549,5.3049,5.2154,5.1318,5.0894,5.0712,5.0712,5.0712,5.0712,5.0712,5.0712,5.0712,5.0712,5.0712,5.0856,5.1654,5.2098,5.2637,5.4108,5.4688,5.5046,5.5624,5.574,5.576,5.5836,5.5899,5.5969,5.5969,5.6116,5.6191,5.6191,5.6222,5.626,5.6211,5.6326,5.636,5.6211,5.6243,5.6097,5.57,5.5046,5.4481,5.4078,5.2553,5.0563,4.8017,4.6583,4.4264,4.079,3.9373,3.7526,3.509,3.4188,3.2703,3.0709,3.0709,3.0079,2.8866,2.7631,2.6308,4.7897,4.9015,4.9815,4.9945,5.0693,5.1367,5.1406,5.1406,5.1406,5.1406,5.1406,5.1365,5.121,5.1199,5.1147,5.0945,5.0882,5.0851,5.0702,5.0712,5.0712,5.0712,5.0712,5.0712,5.0712,5.0712,5.0712,5.0712,5.0702,5.0692,5.0692,5.1413,5.1826,5.1826,5.2672,5.3133,5.3133,5.399,5.4423,5.4462,5.4854,5.5044,5.5018,5.461,5.4655,5.5031,5.5031,5.5274,5.5626,5.5626,5.5164,5.4472,5.4472,5.3933,5.3049,5.2192,5.1356,5.0712,5.0712,5.0712,5.0712,5.0712,5.0712,5.0712,5.0712,5.0712,5.0856,5.1654,5.2622,5.3514,5.4313,5.5161,5.5869,5.5907,5.5907,5.5963,5.6146,5.6181,5.6186,5.6186,5.6191,5.6191,5.6191,5.6289,5.6331,5.621,5.6313,5.6339,5.6211,5.6013,5.572,5.5174,5.4102,5.3274,5.2888,5.0303,4.867,4.8575,4.5799,4.328,4.1257,3.886,3.608,3.2962,3.1855,3.0709,2.9442,2.9442,2.8819,2.7626,2.624,2.4936,4.8904,4.998,5.0715,5.0882,5.1171,5.1406,5.1406,5.1406,5.1406,5.1406,5.1322,5.1245,5.1221,5.1153,5.1103,5.103,5.0966,5.0867,5.0835,5.0776,5.0712,5.0712,5.0712,5.0712,5.0712,5.0712,5.0712,5.0712,5.1202,5.151,5.151,5.2318,5.2769,5.2769,5.3626,5.4049,5.4049,5.4895,5.528,5.528,5.5412,5.552,5.547,5.5363,5.5375,5.552,5.552,5.5577,5.5703,5.5703,5.5549,5.528,5.528,5.478,5.4049,5.3741,5.2741,5.1433,5.0894,5.0712,5.0702,5.0816,5.0827,5.0851,5.0945,5.1334,5.1955,5.2802,5.3709,5.4594,5.5423,5.5877,5.6116,5.6116,5.6116,5.6128,5.6181,5.626,5.6347,5.6347,5.6346,5.6328,5.6328,5.6312,5.6209,5.6018,5.603,5.6057,5.603,5.5641,5.5284,5.5134,5.3838,5.2954,5.2805,5.0196,4.813,4.7095,4.3974,4.1062,3.8653,3.5859,3.3544,3.1768,3.0596,2.9396,2.8168,2.7285,2.6192,2.4993,2.3628,2.2282,4.9828,5.0592,5.1074,5.124,5.1302,5.1302,5.1302,5.1315,5.1322,5.1322,5.1265,5.1185,5.121,5.1171,5.1133,5.111,5.1044,5.0996,5.0911,5.0811,5.0729,5.0721,5.0712,5.0712,5.0712,5.0971,5.1125,5.1125,5.1625,5.2038,5.2346,5.3203,5.3664,5.3664,5.4472,5.4934,5.4934,5.5434,5.5703,5.5703,5.5703,5.5703,5.5703,5.5703,5.5703,5.5703,5.5703,5.5703,5.5703,5.5703,5.5703,5.5703,5.5703,5.542,5.495,5.4629,5.3668,5.2374,5.1485,5.0996,5.0799,5.0932,5.0985,5.1004,5.1063,5.1677,5.2461,5.3351,5.4246,5.5169,5.5974,5.6227,5.626,5.626,5.626,5.6273,5.6312,5.6376,5.6401,5.6401,5.6348,5.6344,5.6344,5.6207,5.6005,5.5715,5.5644,5.5624,5.5624,5.5296,5.4881,5.4349,5.3175,5.2109,5.1358,4.8733,4.6517,4.5147,4.2108,3.9133,3.6366,3.4212,3.2089,2.9943,2.9143,2.7913,2.6224,2.5295,2.4202,2.2968,2.1608,2.0436,5.0549,5.0889,5.0932,5.1058,5.1089,5.1089,5.1089,5.114,5.1199,5.1199,5.1194,5.1194,5.1196,5.1199,5.1178,5.1093,5.1158,5.1147,5.0952,5.0896,5.0851,5.0741,5.0712,5.0712,5.075,5.1471,5.1923,5.2038,0.0,5.2385,5.3241,5.4087,5.4549,5.4549,5.528,5.5703,5.5703,5.5703,5.5703,5.5703,5.5703,5.5703,5.5703,5.5703,5.5703,5.5703,5.5724,5.5724,5.5703,5.5724,5.5724,5.5703,5.5703,5.5789,5.5775,5.4902,5.418,5.3447,5.2524,5.1647,5.0932,5.1058,5.1103,5.1103,5.1108,5.1697,5.2558,5.3371,5.4351,5.5335,5.6052,5.6297,5.6397,5.6399,5.6402,5.6417,5.6562,5.6465,5.6383,5.6383,5.6269,5.6181,5.6169,5.6037,5.5745,5.5329,5.5147,5.5042,5.5015,5.5002,5.4412,5.2893,5.2028,5.0712,4.87,4.5929,4.3914,4.2961,4.0234,3.745,3.4717,3.3765,3.1445,2.7579,2.7437,2.6127,2.3583,2.3534,2.2818,2.1541,2.0128,1.9472,5.0549,5.0889,5.0932,5.1058,5.1089,5.1089,5.1089,5.1117,5.1139,5.1139,5.1063,5.1025,5.1122,5.1139,5.1136,5.1176,5.1208,5.1171,5.1063,5.0972,5.0851,5.0741,5.0712,5.0933,5.1548,5.1769,5.2423,0.0,5.3857,5.3933,5.4164,5.4934,5.5395,5.5395,5.5588,5.5703,5.5703,5.5703,5.5703,5.5703,5.5703,5.5703,5.5703,5.5703,5.5703,5.5714,5.5798,5.5769,5.5724,5.5798,5.5808,5.5703,5.5703,5.5789,5.5877,5.5625,5.4721,5.3594,5.3416,5.2368,5.1063,5.1144,5.1174,5.1185,5.1307,5.237,5.362,5.3854,5.5032,5.6246,5.6434,5.6516,5.6522,5.6438,5.6393,5.6382,5.6308,5.6264,5.6242,5.6242,5.6083,5.5955,5.5825,5.5779,5.5598,5.5211,5.4638,5.417,5.3883,5.3552,5.3038,5.2095,5.0436,4.8831,4.7431,4.4871,4.2901,4.1791,3.7935,3.5359,3.4628,3.1088,2.8164,2.6076,2.5169,2.3863,2.2215,2.1151,2.0487,2.0076,1.876,1.8094,5.061,5.0795,5.0819,5.0896,5.0925,5.0925,5.0925,5.0985,5.0996,5.0996,5.0959,5.0925,5.0978,5.1053,5.1117,5.114,5.1245,5.1258,5.1144,5.1078,5.0951,5.0825,5.1099,5.1479,5.1856,5.2577,5.3433,5.4434,5.4511,5.4664,5.5011,5.5434,5.5703,5.5703,5.5703,5.5703,5.5703,5.5703,5.5703,5.5703,5.5703,5.5703,5.5703,5.5703,5.5738,5.5769,0.0,5.5849,5.5779,5.5866,5.5849,5.5798,5.5798,5.5932,5.6113,5.6045,5.5068,5.3763,5.3808,5.2674,5.1233,5.1267,5.1274,5.1317,5.1367,5.2575,5.3937,5.3984,5.5193,5.6516,5.6562,5.656,5.6507,5.6438,5.6365,5.6277,5.6207,5.6141,5.6064,5.5978,5.5904,5.5808,5.5696,5.5554,5.5287,5.489,5.4058,5.3237,5.249,5.1964,5.1335,5.0427,4.8924,4.7243,4.5349,4.2827,4.0728,3.912,3.5612,3.3267,3.2464,2.9689,2.7171,2.5005,2.4152,2.2717,2.0794,1.9989,1.9317,1.8708,1.7937,1.7582,5.0712,5.0712,5.0712,5.0712,5.0712,5.0712,5.0712,5.0791,5.089,5.089,5.089,5.089,5.089,5.0959,5.1069,5.1089,5.1245,5.1327,5.1213,5.1204,5.114,5.1087,5.1702,5.2158,5.2222,5.3626,5.4549,5.4664,5.4664,5.4972,5.5665,5.5703,5.5703,5.5703,5.5703,5.5703,5.5703,5.5703,5.5703,5.5703,5.5703,5.5703,5.5703,5.5707,5.5808,5.5885,5.5939,0.0,5.5924,5.5954,5.5947,5.5924,5.5924,5.6125,5.6383,5.6143,5.5171,5.3984,5.3725,5.2642,5.1406,5.1406,5.1406,5.1366,5.1366,5.2402,5.3654,5.3897,5.5052,5.6235,5.6475,5.6458,5.6371,5.6322,5.6246,5.6158,5.6135,5.6008,5.5852,5.5717,5.5671,5.561,5.561,5.5275,5.4862,5.435,5.3232,5.2055,5.0937,5.0374,4.9659,4.8582,4.7374,4.5578,4.301,4.0378,3.8016,3.5987,3.3389,3.1164,2.9399,2.874,2.6902,2.373,2.3344,2.1912,1.9317,1.9317,1.8655,1.7305,1.7305,1.7199,5.0712,5.0712,5.0712,5.0712,5.0712,5.0712,5.0712,5.0702,5.073,5.073,5.073,5.073,5.073,5.0844,5.0985,5.1074,5.1161,5.1242,5.1217,5.1204,5.1374,5.1823,5.2005,5.2622,5.3916,5.4318,5.478,5.5434,5.5472,5.5549,5.5703,5.5703,5.5703,5.5703,5.5703,5.5703,5.5703,5.5703,5.5703,5.5703,5.5703,5.5703,5.5714,5.5816,5.5883,5.5939,5.6184,0.0,5.6164,5.6273,5.6256,5.6152,5.6152,5.6251,5.6311,5.5555,5.474,5.3906,5.3163,5.2226,5.1406,5.1406,5.1321,5.1217,5.1217,5.1873,5.2732,5.3451,5.4377,5.5341,5.6061,5.6246,5.6197,5.6025,5.5962,5.5924,5.5817,5.5768,5.5728,5.5714,5.5423,5.5199,5.5199,5.4862,5.4263,5.3247,5.1756,5.0329,4.9179,4.8937,4.8609,4.7834,4.5345,4.3145,4.1709,3.8566,3.6081,3.4776,3.185,2.9358,2.7562,2.5958,2.3644,2.0478,2.0364,1.9524,1.7937,1.7937,1.7186,1.5796,1.5796,1.5144,5.0712,5.0712,5.0712,5.0712,5.0712,5.0712,5.0712,5.0525,5.0462,5.0644,5.0514,5.0462,5.0644,5.0825,5.0918,5.1004,5.1117,5.1182,5.121,5.1247,5.1566,5.2217,5.2694,5.3423,5.4482,5.4987,5.5355,5.5675,5.5703,5.5703,5.5703,5.5703,5.5703,5.5703,5.5703,5.5703,5.5703,5.5703,5.5703,5.5703,5.5703,5.5738,5.5798,5.5874,5.5998,5.6163,5.6315,0.0,5.6293,5.6374,5.6368,5.6289,5.6289,5.6383,5.6394,5.5534,5.4683,5.3867,5.2922,5.2019,5.1273,5.1247,5.1238,5.1196,5.1154,5.1639,5.2394,5.333,5.4197,5.5009,5.5942,5.6135,5.6005,5.5901,5.5831,5.5789,5.5696,5.5703,5.5621,5.5423,5.5224,5.5015,5.4819,5.4142,5.3251,5.2229,5.0571,4.9027,4.8015,4.6578,4.5571,4.5232,4.346,4.1261,3.8813,3.6447,3.3929,3.1309,2.9051,2.7069,2.5396,2.4316,2.2584,2.0242,1.9204,1.7979,1.6446,1.5743,1.4984,1.4288,1.4288,1.3965,5.0692,5.0712,5.0712,5.0712,5.0712,5.0692,5.0594,5.0325,5.0171,5.038,5.0183,5.0111,5.0493,5.0672,5.0789,5.0874,5.1185,5.1398,5.1472,5.1743,5.2187,5.2969,5.3657,5.4336,5.4943,5.5568,5.5849,5.573,5.5707,5.5703,5.5703,5.5703,5.5703,5.5703,5.5703,5.5703,5.5703,5.5703,5.5696,5.5758,5.5758,5.5807,5.5986,5.5991,5.6153,5.6391,5.6445,0.0,0.0,5.645,5.645,5.645,5.645,5.6394,5.6211,5.5311,5.4412,5.355,5.2533,5.1765,5.1164,5.1094,5.1083,5.1136,5.1084,5.1399,5.202,5.2945,5.3776,5.4591,5.5591,5.5862,5.5849,5.5849,5.5701,5.5577,5.5577,5.5481,5.5363,5.5015,5.4781,5.4496,5.4196,5.3208,5.2064,5.0986,4.9372,4.7826,4.6476,4.4216,4.2514,4.2,4.1264,3.9557,3.6362,3.4607,3.2129,2.8331,2.6859,2.5226,2.3317,2.2947,2.1775,1.9736,1.8212,1.6659,1.4931,1.3857,1.3156,1.2832,1.2832,1.267,5.0604,5.0712,5.0712,5.0712,5.0712,5.0604,5.023,5.0135,4.9999,4.9659,4.9575,4.9659,5.0099,5.0183,5.0336,5.0828,5.1538,5.2096,5.2356,5.3077,5.3895,5.4765,5.4942,5.5259,5.5992,5.5952,5.5869,5.5891,5.5769,5.5703,5.5703,5.5703,5.5703,5.5703,5.5703,5.5703,5.5703,5.5703,5.575,5.5891,5.5891,5.5962,5.6175,5.6289,5.6377,5.6394,5.6517,0.0,0.0,5.6562,5.6562,5.6562,5.6562,5.6093,5.5312,5.4316,5.3401,5.2491,5.1542,5.1186,5.1089,5.0972,5.0925,5.0939,5.0918,5.0888,5.102,5.1799,5.2675,5.3551,5.4428,5.5188,5.5707,5.5707,5.5435,5.516,5.516,5.4862,5.4594,5.4547,5.3738,5.3011,5.295,5.2002,5.0717,4.9086,4.8015,4.6374,4.3716,4.2412,4.0901,3.8774,3.8487,3.7782,3.6222,3.3877,3.1251,2.8278,2.6859,2.4665,2.1471,2.1314,1.9734,1.6393,1.6193,1.5235,1.348,1.3372,1.2615,1.1319,1.1319,1.0562,5.0302,5.0504,5.0712,5.0712,5.0504,5.0302,5.0147,4.9714,4.9416,4.9475,4.9311,4.9341,4.9974,5.0111,5.0264,5.072,5.1501,5.214,5.2241,5.3098,5.4014,5.4994,5.5115,5.5427,5.6237,5.626,5.6119,5.5939,5.5779,5.5738,5.5816,5.5758,5.5703,5.5703,5.5703,5.5748,5.5825,5.5825,5.5899,5.6097,5.6097,5.6142,5.6301,5.6377,5.645,5.6515,5.6562,0.0,0.0,5.6601,5.6601,5.6523,5.5929,5.5492,5.4979,5.3468,5.2692,5.2243,5.133,5.0998,5.0966,5.0811,5.112,5.142,5.0928,5.0749,5.0981,5.2318,5.2933,5.351,5.4857,5.5472,5.5621,5.5399,5.5212,5.5015,5.4775,5.4609,5.4301,5.3609,5.3128,5.2571,5.1885,5.0567,4.9184,4.792,4.5996,4.4065,4.2372,4.0576,3.8863,3.7088,3.6903,3.6038,3.3975,3.136,2.8542,2.5683,2.4178,2.2414,2.0188,2.0074,1.8888,1.6337,1.5422,1.4045,1.2082,1.127,1.0445,0.9754,0.9754,0.9485,4.9999,5.0313,5.0535,5.0654,5.038,5.0087,4.9949,4.9401,4.8928,4.9108,4.8932,4.8961,4.9754,4.9924,5.0111,5.0614,5.1661,5.2437,5.2469,5.3514,5.4591,5.5402,5.5491,5.5725,5.6387,5.6402,5.6289,5.5998,5.5852,5.5816,5.5962,5.5843,5.5789,5.5864,5.5864,5.5904,5.5969,5.5969,5.6065,5.6251,5.6251,5.6347,5.6456,5.6456,5.6512,5.6601,5.6601,0.0,0.0,5.6601,5.6562,5.6439,5.5478,5.4903,5.4443,5.2845,5.2092,5.1791,5.1068,5.099,5.1197,5.1106,5.1625,5.2192,5.1625,5.1433,5.1702,5.2856,5.3395,5.3874,5.517,5.5531,5.5423,5.504,5.4819,5.4655,5.4355,5.4046,5.3553,5.2773,5.2241,5.1622,5.0557,4.9222,4.7765,4.6203,4.4291,4.2393,4.0774,3.8791,3.7021,3.5732,3.4462,3.3024,3.12,2.9245,2.6677,2.3375,2.2138,2.0916,1.9475,1.8939,1.7799,1.5953,1.4429,1.2694,1.073,0.9724,0.9144,0.9001,0.9001,0.8981,4.973,5.0111,5.0195,5.0604,5.038,4.9987,4.9589,4.9187,4.8796,4.8383,4.8306,4.8532,4.9356,4.9504,4.9792,5.0584,5.2087,5.3225,5.3352,5.4808,5.5993,5.6332,5.6389,5.6454,5.6562,5.6463,5.6354,5.6202,5.5991,0.0,5.6181,5.6029,5.5969,5.6186,5.6186,5.6191,5.6191,5.6191,5.6256,5.6389,5.6389,5.646,5.6601,5.6601,5.6601,0.0,0.0,0.0,0.0,5.6601,5.6515,5.6313,5.5421,5.4476,5.3491,5.2492,5.1601,5.0905,5.0758,5.1202,5.1895,5.1885,5.2462,5.3203,5.3164,5.3164,5.3164,5.3203,5.3818,5.4562,5.5008,5.5121,5.4988,5.4594,5.4153,5.3795,5.3795,5.2926,5.2136,5.2112,5.0972,4.9735,4.8799,4.8058,4.6597,4.3507,4.3,4.1837,3.8577,3.695,3.566,3.4557,3.0696,2.8172,2.8172,2.8119,2.6245,2.1911,2.1586,2.0916,1.9475,1.7864,1.6191,1.4439,1.2867,1.1145,0.9439,0.9381,0.93,0.9207,0.9207,0.9076,4.8539,4.9167,4.97,4.9859,4.9575,4.9249,4.9123,4.8779,4.8458,4.8344,4.8306,4.8569,4.9356,4.9489,4.9741,5.0584,5.2125,5.3195,5.3244,5.4787,5.5984,5.6232,5.6443,5.656,5.6601,5.6463,5.638,5.6354,5.6202,5.6186,5.6347,5.6281,5.6242,5.6197,5.6191,5.6237,5.6351,5.6351,5.6394,5.6557,5.6557,5.656,5.6601,5.6601,5.6601,0.0,0.0,0.0,0.0,5.6601,5.6164,5.5416,5.4465,5.3462,5.244,5.1498,5.0987,5.0776,5.0702,5.1241,5.1885,5.1885,5.2895,5.4087,5.4087,5.3664,5.3318,5.3933,5.4664,5.5292,5.5122,5.5107,5.4919,5.4204,5.3905,5.372,5.3444,5.2718,5.1934,5.1494,5.0112,4.8802,4.806,4.5981,4.412,4.3157,4.1095,3.8932,3.697,3.5662,3.4046,3.1847,2.9475,2.8119,2.8119,2.5375,2.3047,2.1699,2.0644,1.939,1.7806,1.7267,1.5681,1.2958,1.2422,1.1276,0.9537,0.9537,0.9456,0.9306,0.9306,0.9286,4.7527,4.8273,4.8963,4.9121,4.9038,4.8878,4.8878,4.8586,4.8306,4.8306,4.8306,4.8569,4.9356,4.9489,4.9741,5.0584,5.2125,5.3233,5.3262,5.4796,5.5984,5.6246,5.6462,5.6601,5.6601,5.6516,5.6463,5.6463,5.6361,5.6312,5.646,5.6443,5.6383,5.6365,5.6361,5.6386,5.6463,5.6463,5.6514,5.6601,5.6601,5.6601,5.6601,5.6601,5.6601,0.0,0.0,0.0,0.0,5.625,5.569,5.4904,5.3628,5.2654,5.1923,5.1039,5.0712,5.0712,5.0712,5.1433,5.2385,5.2385,5.3549,5.4912,5.4764,5.4346,5.4039,5.4576,5.4992,5.516,5.4708,5.4602,5.443,5.3739,5.3565,5.3427,5.29,5.2242,5.1408,5.0367,4.9133,4.7734,4.615,4.4271,4.2564,4.1344,3.9426,3.7488,3.5685,3.4388,3.2755,3.0514,2.8019,2.6479,2.6479,2.3494,2.1358,2.0816,1.9319,1.804,1.702,1.5843,1.4232,1.2217,1.1615,1.0733,0.9686,0.9639,0.9557,0.9462,0.9408,0.9381,0.0,4.7347,4.7976,4.8412,4.8682,4.8793,4.8864,4.8568,0.0,4.8306,4.8306,4.8569,4.9356,4.9489,4.9741,5.0584,5.2049,5.3148,5.3275,5.4754,5.5981,5.638,5.6516,5.6601,5.6601,5.6601,5.6601,5.6601,5.6466,5.646,5.6601,5.6465,5.6462,5.6601,5.6601,5.6601,5.6601,5.6601,5.6601,5.6601,5.6601,5.6601,5.6601,5.6601,5.6601,0.0,0.0,0.0,0.0,5.5625,5.5088,5.4577,5.2933,5.2116,5.1722,5.0981,5.0712,5.0712,5.0712,5.1779,5.3241,5.3356,5.4423,5.5588,5.5212,5.5107,5.5107,5.508,5.4775,5.4387,5.3923,5.3777,5.3683,5.3214,5.3124,5.2915,5.2183,5.1469,5.0449,4.8886,4.7897,4.6357,4.3507,4.2803,4.1633,3.855,3.7971,3.698,3.4557,3.3055,3.1622,3.0307,2.6318,2.3822,2.3822,2.2363,2.0859,1.9475,1.7981,1.7091,1.6844,1.3935,1.2277,1.2037,1.0543,0.9822,0.9822,0.9686,0.9625,0.9618,0.9476,0.9415,4.51,0.0,4.6914,4.7529,4.7709,4.7866,0.0,4.8382,4.8306,4.8306,4.8306,4.8569,4.9356,4.9489,4.9741,5.0584,5.1548,5.2252,5.2407,5.4064,5.5588,5.6439,5.6562,5.6601,5.6601,5.6601,5.6601,5.6601,5.6561,5.6561,5.6601,5.6561,5.6561,5.6601,5.6601,5.6601,5.6601,5.6601,5.6601,5.6601,5.6601,5.6601,5.6601,5.6601,5.6601,0.0,0.0,0.0,5.5586,5.539,5.4402,5.3007,5.2498,5.1806,5.1106,5.0817,5.0712,5.0712,5.0712,5.1779,5.3395,5.4703,5.5163,5.5212,5.5134,5.5107,5.5053,5.4716,5.4563,5.4387,5.3923,5.3777,5.3569,5.2571,5.2358,5.2159,5.1469,5.0195,4.9065,4.8673,4.6132,4.3854,4.3118,4.0927,3.8969,3.8243,3.6492,3.4679,3.2982,3.1622,3.0276,2.89,2.5809,2.3822,2.3822,2.143,1.9764,1.943,1.9068,1.7747,1.5252,1.4421,1.2868,1.0422,0.9997,0.9822,0.9822,0.9788,0.9774,0.9768,0.9734,0.972,4.4615,4.5267,4.6136,4.6796,4.7154,4.7533,4.8153,4.8306,4.8306,4.8306,4.8306,4.8569,4.9356,4.957,4.9822,5.0566,5.1464,5.2407,5.3249,5.4429,5.5532,5.6394,5.656,5.6601,0.0,5.6601,5.6601,5.6601,5.6601,5.6601,5.6601,5.6601,5.6601,5.6601,5.6601,5.6601,5.6601,5.6601,5.6601,5.6601,5.6601,5.6601,5.6601,5.6601,5.6601,0.0,0.0,0.0,5.5234,5.4453,5.3422,5.2356,5.1901,5.1354,5.0808,5.0721,5.0712,5.0712,5.0712,5.1779,5.3451,5.4933,5.5262,5.5053,5.4618,5.4494,5.4446,5.4238,5.4068,5.387,5.3585,5.3252,5.2883,5.2276,5.1547,5.0805,5.0112,4.8912,4.7568,4.6272,4.4372,4.2524,4.1011,3.9251,3.7926,3.7402,3.5665,3.3871,3.2482,3.1133,2.9525,2.7492,2.5206,2.3543,2.287,2.0702,1.943,1.943,1.7994,1.6444,1.4658,1.3168,1.1555,0.9822,0.9822,0.9822,0.9822,0.9822,0.9822,0.9822,0.9822,0.9822,4.472,4.5115,4.5648,4.6222,4.691,4.7533,4.8153,4.8306,4.8306,4.8306,4.8363,4.8603,4.9408,4.9657,4.9962,5.0606,5.152,5.2728,5.45,5.4966,5.5427,5.6333,5.6517,5.6601,5.6601,5.6601,5.6601,5.6601,5.6601,5.6601,5.6601,5.6601,5.6601,5.6601,5.6601,5.6601,5.6601,5.6601,5.6601,5.6601,5.6601,5.6601,5.6601,5.6601,5.6523,5.6367,0.0,0.0,5.4805,5.3281,5.2468,5.2056,5.1351,5.0932,5.0721,5.0721,5.0712,5.0712,5.0827,5.1864,5.3327,5.4511,5.4912,5.4737,5.4031,5.3777,5.3683,5.3569,5.3306,5.3039,5.3039,5.2509,5.1886,5.1632,5.0497,4.9286,4.8428,4.7341,4.5856,4.3477,4.2604,4.1385,3.855,3.7789,3.7217,3.6238,3.4775,3.3353,3.2129,3.0824,2.8999,2.6372,2.471,2.3207,2.1756,2.0256,1.943,1.943,1.6621,1.4777,1.4242,1.1382,0.9822,0.9822,0.9822,0.9822,0.9822,0.9822,0.9822,0.9822,0.9822,0.9822,4.5214,4.5451,4.5648,4.6222,4.691,4.7533,4.8153,4.8306,4.8306,4.8306,4.8568,4.8968,4.9568,4.9884,5.0221,5.0781,5.1094,5.191,5.3715,5.409,5.4804,5.6366,5.6601,5.6601,5.6601,5.6601,5.6601,5.6601,5.6601,5.6601,5.6601,5.6601,5.6601,5.6601,5.6601,5.6601,5.6601,5.6601,5.6601,5.6601,5.6601,5.6601,5.6601,5.6601,5.6211,5.5508,0.0,5.4453,5.3086,5.2679,5.2064,5.133,5.1047,5.0896,5.0859,5.0749,5.0712,5.0789,5.1471,5.2149,5.2831,5.3696,5.4004,5.3977,5.3832,5.3565,5.3172,5.2526,5.2322,5.2289,5.2289,5.1741,5.0885,4.9476,4.8941,4.8332,4.6872,4.505,4.3516,4.3079,4.0759,3.8684,3.8198,3.6351,3.4896,3.4727,3.2555,3.0876,3.0618,2.946,2.7975,2.6264,2.471,2.3207,2.1756,2.0256,1.943,1.943,1.7689,1.5419,1.2689,1.0778,0.9822,0.9822,0.9822,0.9822,0.9822,0.9822,0.9822,0.9822,0.9822,0.9822,4.479,4.5468,4.6101,4.6595,4.7226,4.7931,4.8759,4.8995,4.9015,4.8978,4.9152,4.9449,4.9931,5.0181,5.051,5.1078,5.1151,5.1629,5.2913,5.3194,5.3905,0.0,0.0,5.6094,5.6562,5.6601,5.6601,5.6601,5.6601,0.0,5.6601,5.6601,5.6601,5.6601,5.6601,5.6601,5.6601,5.6601,5.6601,5.6601,5.6601,5.6601,5.6562,5.6094,5.5664,5.5234,0.0,5.3396,5.2563,5.2034,5.1505,5.103,5.0959,5.0859,5.0782,5.0712,5.0712,5.0769,5.1382,5.172,5.2031,5.2878,5.314,5.32,5.3415,5.3057,5.2531,5.2183,5.2112,5.2042,5.1643,5.0664,4.9539,4.8765,4.7538,4.6185,4.475,4.3296,4.1884,4.0576,3.9146,3.7697,3.6351,3.5186,3.4117,3.3353,3.1571,3.0307,3.0307,2.8416,2.6554,2.5041,2.3487,2.204,2.0529,1.9822,1.8648,1.6915,1.609,1.4232,1.102,1.0179,0.9822,0.9822,0.9822,0.9822,0.9822,0.9822,0.9822,0.9822,0.9822,0.9329,4.4288,4.5433,4.6541,4.7096,4.7726,4.8437,4.9303,4.9591,4.9657,4.9573,4.9719,4.9974,5.0288,5.0511,5.0809,5.1263,5.1261,5.1518,5.2425,5.265,5.324,5.4658,5.5112,5.5547,5.6211,5.6484,5.6601,5.6601,5.6601,0.0,5.6601,5.6601,5.6601,5.6601,5.6601,5.6601,5.6601,5.6601,5.6601,5.6601,5.6601,5.6484,5.6289,5.5586,5.5078,5.4609,5.3281,5.2493,5.214,5.1458,5.1069,5.0882,5.0875,5.0791,5.0712,5.0712,5.0634,5.0581,5.0894,5.1002,5.1116,5.1802,5.2102,5.2215,5.236,5.2031,5.1488,5.1179,5.1106,5.1055,5.0875,4.9602,4.8306,4.8085,4.6153,4.4075,4.2902,4.1707,4.0247,3.8469,3.7652,3.6633,3.4703,3.3871,3.3055,3.1977,3.0669,2.9702,2.9367,2.7435,2.5371,2.3487,2.2251,2.0973,1.9533,1.9068,1.763,1.4777,1.3885,1.2397,0.9883,0.9822,0.9822,0.9822,0.9822,0.9822,0.9822,0.9822,0.9822,0.9822,0.939,0.8587,4.4052,4.5295,4.6634,4.7664,4.8402,4.8961,4.9401,4.9591,4.9692,4.9706,5.0077,5.0433,5.0487,5.0784,5.1089,5.1113,5.1158,5.1533,5.2538,0.0,5.3047,5.3984,5.4805,5.5312,5.539,5.6133,5.6601,5.6601,5.6601,0.0,5.6601,5.6601,5.6601,5.6601,5.6601,5.6601,5.6601,5.6601,5.6601,5.6601,5.6601,5.6172,5.539,5.5312,5.4414,5.2891,5.2734,5.2141,5.1277,5.1152,5.102,5.0874,5.0747,5.0721,5.0712,5.0712,5.0472,5.0147,5.0162,5.0194,5.0213,5.0256,5.0565,5.0798,5.0235,5.0037,4.9706,4.8443,4.8108,4.8394,4.9736,4.8873,4.744,4.656,4.4707,4.2862,4.193,3.9917,3.8289,3.8107,3.6257,3.4629,3.4434,3.2303,3.0566,3.0463,2.9303,2.7941,2.659,2.6209,2.4986,2.2081,2.1643,2.0973,1.9533,1.804,1.6433,1.4718,1.1796,1.0058,0.9822,0.9822,0.9822,0.9822,0.9822,0.9822,0.9822,0.9822,0.9822,0.9761,0.8282,0.7484,4.3877,4.5461,4.6982,4.7782,4.863,4.9408,4.987,5.0102,5.0218,5.0411,5.0707,5.0949,5.0949,5.1141,5.1301,5.1301,5.1313,5.1441,5.1836,5.1875,5.2226,5.3086,5.3476,5.3906,5.4453,5.5273,5.5781,5.5781,5.6289,0.0,5.6601,5.6601,5.6601,5.6601,5.6601,5.6601,5.6601,5.6055,5.5781,5.5781,5.5781,5.5351,5.4453,5.3945,5.332,5.2656,5.2148,5.1582,5.1156,5.1113,5.0985,5.0764,5.0712,5.0712,5.0692,5.044,5.0218,5.0012,4.9532,4.9343,4.9423,4.9677,4.9641,4.9495,4.9734,4.9246,4.8448,4.7934,4.7102,4.6481,4.7053,4.6317,4.5032,4.3433,4.2016,4.0636,3.9237,3.8219,3.7208,3.6041,3.5041,3.3871,3.2151,3.0979,3.0016,2.9197,2.7868,2.6717,2.6155,2.4471,2.287,2.1699,1.9913,1.8538,1.7923,1.5548,1.3756,1.3168,1.1976,1.0838,0.9822,0.9822,0.9822,0.9822,0.9822,0.9822,0.9822,0.9822,0.9268,0.8282,0.7667,0.632,4.3647,4.552,4.7301,4.8015,4.8766,4.95,5.0201,5.0441,5.0583,5.0918,5.1082,5.1204,5.1204,5.127,5.1324,5.1324,5.1366,5.1406,5.1406,5.1406,5.1601,5.2226,5.2539,5.293,5.3516,5.4375,5.4883,5.4883,5.543,0.0,0.0,5.5781,5.5781,5.5781,5.5781,5.5781,5.5781,5.5195,5.4765,5.4492,5.4492,5.418,5.3555,5.2969,5.2539,5.2266,5.1599,5.1245,5.1089,5.1042,5.0896,5.0712,5.0712,5.0614,5.0483,5.0195,4.9936,4.9645,4.9092,4.883,4.8732,4.8871,4.8592,4.8243,4.8422,4.7598,4.6632,4.6445,4.5157,4.3848,4.3556,4.3343,4.2758,4.11,3.9729,3.8519,3.75,3.6701,3.5764,3.4607,3.3723,3.2504,3.0618,2.9964,2.9355,2.8441,2.706,2.5936,2.5426,2.3151,2.1415,2.0973,1.8538,1.702,1.702,1.4054,1.2217,1.2217,1.1736,1.0959,0.9822,0.9822,0.9822,0.9822,0.9822,0.9822,0.9822,0.9268,0.8465,0.7357,0.632,0.4668,4.339,4.5415,4.7606,4.8395,4.8746,4.919,5.0272,5.0509,5.0649,5.1096,5.1204,5.1204,5.1204,5.1204,5.1204,5.1204,5.1319,5.1406,5.1406,5.1406,5.1406,5.1406,5.2148,5.2695,5.2695,5.3476,5.3984,5.3984,5.3984,0.0,0.0,5.3984,5.3984,5.3984,5.3984,5.3984,5.3984,5.3984,5.3555,5.2695,5.2695,5.2695,5.2695,5.2695,5.2226,5.1406,5.1265,5.1158,5.1079,5.0966,5.0803,5.0712,5.0702,5.0462,5.0111,5.0111,4.9589,4.8878,4.8915,4.864,4.8173,4.7575,4.7385,4.7168,4.5865,4.489,4.4047,4.3466,4.1885,4.0208,3.9329,4.0104,4.0875,3.979,3.7979,3.6611,3.7149,3.5265,3.3672,3.4267,3.2151,3.0307,3.0255,2.9197,2.8301,2.8301,2.6987,2.5535,2.3933,2.2476,2.1031,1.9533,1.7923,1.6962,1.6962,1.3994,1.2157,1.2157,1.0657,0.9822,0.9822,0.9822,0.9822,0.9822,0.9822,0.9822,0.9761,0.816,0.7357,0.7296,0.3996,0.2462,4.3507,4.5611,4.7735,4.8593,4.9303,4.9898,5.0386,5.0433,5.0519,5.1083,5.1204,5.1215,5.1321,5.1324,5.1324,5.1324,5.1366,5.1406,5.1406,5.1406,5.1406,5.1406,5.1641,5.1797,5.1797,5.2578,5.3086,5.3086,5.3633,0.0,0.0,5.3984,5.3984,5.3984,5.3984,5.3984,5.3984,5.3398,5.2969,5.2695,5.207,5.1797,5.1797,5.1797,5.1641,5.1406,5.1265,5.1158,5.1074,5.0859,5.074,5.0654,5.038,5.0195,5.0012,4.9475,4.9108,4.8881,4.8568,4.8117,4.7653,4.7449,4.6796,4.5989,4.5622,4.4606,4.3522,4.335,4.1466,3.9264,3.826,3.7299,3.6548,3.6225,3.5707,3.5273,3.5442,3.4145,3.2936,3.2921,3.1491,3.0016,2.9059,2.8548,2.796,2.6879,2.5426,2.3543,2.1045,2.0314,1.9448,1.7864,1.6256,1.4837,1.3696,1.1736,1.0543,1.0543,1.0058,0.9822,0.9822,0.9822,0.9822,0.9822,0.9822,0.9268,0.8099,0.7606,0.6198,0.3935,0.2954,0.1848,4.4798,4.6663,4.8375,4.937,4.9872,5.0199,5.0565,5.0701,5.0845,5.1215,5.1271,5.1317,5.1406,5.1406,5.1406,5.1406,5.1406,5.1406,5.1406,5.1406,5.1406,5.1406,5.1406,5.1406,5.1406,5.1875,5.2187,5.2187,5.2656,0.0,0.0,5.2969,5.2969,5.2969,5.2969,5.2969,5.2969,5.2461,5.2187,5.2187,5.1641,5.1406,5.1406,5.1406,5.1406,5.1406,5.1243,5.1069,5.0932,5.0756,5.0604,5.0451,5.0195,4.9911,4.9561,4.9075,4.8796,4.8604,4.8097,4.7715,4.732,4.6819,4.587,4.4952,4.4688,4.3215,4.1628,4.1628,3.9581,3.7225,3.6543,3.5224,3.4079,3.4079,3.3691,3.3366,3.3612,3.2347,3.1195,3.1256,3.0284,2.925,2.8441,2.778,2.7114,2.6209,2.4322,2.2096,1.9707,1.943,1.8765,1.7149,1.5548,1.3944,1.2337,1.0717,0.9822,0.9822,0.9822,0.9822,0.9822,0.9822,0.9822,0.9822,0.914,0.8343,0.7423,0.6075,0.4423,0.2462,0.1787,0.0986,4.6488,4.796,4.9149,5.0313,5.0402,5.0308,5.0798,5.1154,5.1406,5.1367,5.1406,5.1406,5.1406,5.1406,5.1406,5.1406,5.1406,5.1406,5.1406,5.1406,5.1406,5.1406,5.1406,5.1406,5.1406,5.1406,5.1406,5.1406,5.1406,5.1406,5.1406,5.1406,5.1406,5.1406,5.1406,5.1406,5.1406,5.1406,5.1406,5.1406,5.1406,5.1406,5.1406,5.1406,5.1406,5.1364,5.1183,5.0952,5.0712,5.0644,5.044,5.0111,5.0012,4.9547,4.8878,4.8793,4.8513,4.8114,4.7512,4.7277,4.7021,4.59,4.4864,4.4024,4.3466,4.1401,3.9217,3.9146,3.7034,3.4815,3.4692,3.3911,3.3111,3.3111,3.2152,3.1365,3.1958,3.0373,2.8969,2.9602,2.8967,2.8247,2.8121,2.7006,2.5991,2.57,2.3263,2.0916,1.9591,1.9243,1.8577,1.6973,1.5311,1.3706,1.2097,1.0657,0.9822,0.9822,0.9822,0.9822,0.9822,0.9822,0.9761,0.9572,0.816,0.724,0.693,0.3935,0.2401,0.2216,0.074,0.0,4.4946,4.713,4.8856,4.9566,5.0317,5.0927,5.1031,5.1233,5.1366,5.1267,5.1322,5.1406,5.1406,5.1406,5.1406,5.1406,5.1406,5.1406,5.1406,5.1406,5.1406,5.1406,5.1406,5.1406,5.1406,5.1406,5.1406,5.1406,5.1406,5.1406,5.1406,5.1406,5.1406,5.1406,5.1406,5.1406,5.1406,5.1406,5.1406,0.0,5.1406,5.1406,5.1406,5.1406,5.1312,5.1164,5.1117,5.0952,5.0692,5.0358,5.0171,5.0024,4.9416,4.9043,4.8793,4.8024,4.7679,4.7491,4.6864,4.6305,4.584,4.5597,4.4578,4.3466,4.335,4.1949,4.0182,3.9324,3.7528,3.5694,3.4897,3.3911,3.3111,3.3111,3.2152,3.1365,3.1958,3.0373,2.8969,2.9602,2.8967,2.796,2.6771,2.6318,2.5316,2.2927,2.1031,1.9764,1.943,1.8286,1.6915,1.5311,1.3706,1.2037,1.0422,0.9997,0.9822,0.9822,0.9822,0.9822,0.9822,0.9822,0.9207,0.7911,0.7606,0.6137,0.3566,0.2831,0.1848,0.0555,0.0185,0.0,4.5197,4.7215,4.883,4.9809,5.0527,5.1008,5.1079,5.1216,5.1317,5.1316,5.1364,5.1406,5.1406,5.1406,5.1406,5.1406,5.1406,5.1406,5.1406,5.1406,5.1406,5.1406,5.1406,5.1406,5.1406,5.1406,5.1406,5.1406,5.1406,5.1406,5.1406,5.1406,5.1406,5.1406,5.1406,5.1406,5.1406,5.1406,5.1406,5.1406,5.1406,5.1406,5.1406,5.1323,5.1238,5.1089,5.102,5.0874,5.0692,5.0279,4.9974,4.9741,4.9139,4.8619,4.814,4.7581,4.7212,4.6842,4.6209,4.574,4.5364,4.4695,4.3639,4.2583,4.2205,4.043,3.8444,3.7866,3.6274,3.4609,3.4079,3.3513,3.3111,3.3111,3.2152,3.1116,3.0856,2.9741,2.8707,2.8472,2.8356,2.7833,2.6372,2.4931,2.3151,2.0873,1.9866,1.9127,1.8344,1.7501,1.6079,1.3706,1.2689,1.1555,0.9943,0.9822,0.9822,0.9822,0.9822,0.9822,0.9822,0.9079,0.8282,0.7423,0.5831,0.4242,0.2524,0.1663,0.0863,0.0,0.0,0.0,4.5587,4.7397,4.894,5.0353,5.0808,5.0932,5.1031,5.1133,5.1217,5.1324,5.1367,5.1406,5.1406,5.1406,5.1406,5.1406,5.1406,5.1406,5.1406,5.1406,5.1406,5.1406,5.1406,5.1406,5.1406,5.1406,5.1406,5.1406,5.1406,5.1406,5.1406,5.1406,5.1406,5.1406,5.1406,5.1406,5.1406,5.1406,5.1406,5.1406,5.1406,5.1406,5.1365,5.1254,5.1144,5.1084,5.0966,5.0786,5.0584,5.0159,4.9741,4.9356,4.8928,4.8235,4.7385,4.7277,4.6819,4.6161,4.5382,4.5127,4.4878,4.3525,4.2489,4.1593,4.0727,3.859,3.6408,3.6053,3.4692,3.3326,3.3154,3.3111,3.3025,3.2828,3.1952,3.0866,2.967,2.8898,2.8216,2.7216,2.7276,2.706,2.559,2.3039,2.0816,1.9591,1.943,1.8823,1.7208,1.6786,1.5478,1.2509,1.1976,1.1261,0.9943,0.9822,0.9822,0.9822,0.9822,0.97,0.939,0.785,0.6808,0.6564,0.3873,0.2339,0.2094,0.0679,0.0,0.0,0.0,0.0,4.3783,4.6506,4.894,5.0353,5.0808,5.0896,5.0918,5.1074,5.1206,5.1213,5.132,5.1406,5.1406,5.1406,5.1406,5.1406,5.1406,5.1406,5.1406,5.1406,5.1406,5.1406,5.1406,5.1406,5.1406,5.1406,5.1406,5.1406,5.1406,5.1406,5.1406,5.1406,5.1406,5.1406,5.1406,5.1406,5.1406,5.1406,5.1406,5.1406,5.1406,5.1324,5.1213,5.1129,5.1108,5.1084,5.0966,5.0622,5.0147,4.9765,4.9341,4.8928,4.8532,4.7979,4.7342,4.6751,4.6161,4.5442,4.4078,4.3588,4.3439,4.2489,4.156,4.0693,3.9637,3.848,3.7204,3.5427,3.4692,3.4262,3.3368,3.3111,3.2828,3.1733,3.1311,3.0866,2.967,2.8244,2.7216,2.7012,2.5576,2.3933,2.2476,2.0816,1.9649,1.943,1.943,1.8823,1.7208,1.5784,1.4242,1.2397,1.0959,0.9997,0.9822,0.9822,0.9822,0.9822,0.9822,0.9201,0.7789,0.6141,0.4548,0.3198,0.2708,0.1787,0.0308,0.0123,0.0,0.0,0.0,0.0,4.4217,4.6629,4.8604,5.0011,5.0417,5.0539,5.0836,5.0972,5.1055,5.1121,5.1238,5.1318,5.1406,5.1406,5.1406,5.1406,5.1406,5.1406,5.1406,5.1406,5.1406,5.1406,5.1406,5.1406,5.1406,5.1406,5.1406,5.1406,5.1406,5.1406,5.1406,5.1406,5.1406,5.1406,5.1406,5.1406,5.1406,5.1406,5.1406,5.1406,5.1321,5.1265,5.1199,5.0835,5.0658,5.0643,5.0499,5.0187,4.9714,4.9341,4.8874,4.8366,4.7962,4.7212,4.6305,4.6014,4.5225,4.4192,4.3529,4.2986,4.2426,4.1528,4.0628,3.9632,3.8656,3.7272,3.5842,3.4938,3.4262,3.3683,3.324,3.2568,3.1865,3.1311,3.0169,2.905,2.8495,2.8195,2.7702,2.6688,2.5033,2.3319,2.1854,2.0371,1.943,1.943,1.8648,1.7455,1.5843,1.4242,1.2629,1.102,1.024,0.9822,0.9822,0.9822,0.939,0.8526,0.8465,0.7728,0.608,0.4426,0.32,0.2524,0.1602,0.074,0.0,0.0,0.0,0.0,0.0,0.0,4.4328,4.6244,4.7811,4.9428,4.9974,5.0214,5.0722,5.089,5.0932,5.1014,5.1129,5.1217,5.1322,5.1366,5.1406,5.1406,5.1406,5.1406,5.1406,5.1406,5.1406,5.1365,5.1364,5.1323,5.1316,5.1316,5.1316,5.1316,5.1316,5.1319,5.1364,5.1364,5.1366,5.1406,5.1406,5.1406,5.1406,5.1366,5.1364,5.1364,5.1247,5.1164,5.1094,5.0542,5.0238,5.009,4.9973,4.97,4.9311,4.8857,4.8347,4.7796,4.7313,4.6472,4.5468,4.5251,4.4384,4.3229,4.2769,4.2205,4.1495,4.0351,3.9414,3.8524,3.7339,3.5922,3.4635,3.4345,3.3725,3.3111,3.3111,3.2152,3.1134,3.0822,2.912,2.7568,2.7462,2.7627,2.7353,2.5811,2.4267,2.2758,2.1316,2.0155,1.9243,1.8823,1.7747,1.6256,1.4242,1.2928,1.1555,1.0004,0.9822,0.9822,0.9822,0.9822,0.914,0.7484,0.7423,0.6442,0.4364,0.3139,0.2279,0.1848,0.0617,0.0,0.0,0.0,0.0,0.0,0.0,0.0,4.3079,4.4703,4.6378,4.8593,4.9618,5.0206,5.0624,5.0825,5.0889,5.0903,5.1074,5.1204,5.1206,5.1319,5.1406,5.1406,5.1406,5.1406,5.1406,5.1406,5.1365,5.1215,5.1208,5.118,5.1122,5.1113,5.1113,5.1113,5.1113,5.1121,5.1204,5.1208,5.1268,5.1406,5.1406,5.1406,5.1406,5.127,5.1208,5.1206,5.116,5.1031,5.0911,5.0477,5.0023,4.9547,4.9532,4.9311,4.8878,4.8292,4.7813,4.7385,4.6692,4.6063,4.5416,4.4579,4.3863,4.3078,4.1396,4.0826,4.0454,3.8569,3.789,3.751,3.5467,3.4774,3.4511,3.3471,3.3154,3.3111,3.3111,3.2152,3.0911,2.9761,2.8541,2.7496,2.7111,2.5961,2.4774,2.4077,2.2702,2.1259,1.9764,1.9417,1.8881,1.7325,1.7032,1.5902,1.2749,1.2277,1.1555,1.0004,0.9822,0.9822,0.9822,0.9822,0.914,0.7484,0.7423,0.5953,0.277,0.2524,0.1725,0.0185,0.0062,0.0,0.0,0.0,0.0,0.0,0.0,0.0,4.2004,4.3479,4.5192,4.7094,4.8343,4.9329,5.0133,5.0537,5.0764,5.0764,5.0918,5.0998,5.0998,5.1238,5.1406,5.1406,5.1406,5.1406,5.1406,5.1321,5.1263,5.1206,5.1158,5.1139,5.1094,5.1089,5.1089,5.1089,5.1089,5.1113,5.1117,5.1156,5.1164,5.1268,5.127,5.127,5.127,5.1167,5.1156,5.1117,5.1025,5.0952,5.0874,5.0144,4.9679,4.946,4.8545,4.8084,4.7926,4.7688,4.7074,4.6161,4.5915,4.5119,4.4049,4.3756,4.2766,4.1528,4.0927,3.9864,3.8715,3.804,3.6894,3.5669,3.4938,3.422,3.3598,3.3197,3.3111,3.2896,3.2108,3.0956,2.9533,2.7531,2.6031,2.5191,2.5535,2.5185,2.4298,2.2672,2.1983,2.1145,1.9649,1.8519,1.7677,1.7091,1.5241,1.3526,1.2337,1.1322,1.0422,0.9883,0.9822,0.939,0.8343,0.8282,0.7118,0.4423,0.4239,0.3259,0.0986,0.0925,0.0617,0.0,0.0,0.0,0.0,0.0,0.0,0.0,0.0,0.0,4.1108,4.229,4.3755,4.5611,4.7025,4.8261,4.9497,5.0168,5.0525,5.0654,5.0825,5.0889,5.0889,5.1105,5.131,5.1321,5.1323,5.1323,5.1323,5.1265,5.1185,5.1125,5.104,5.1002,5.0985,5.0979,5.0979,5.0979,5.0979,0.0,5.102,5.102,5.1089,5.1161,5.1164,5.1164,5.1164,5.1094,5.102,5.102,5.0882,5.0748,5.0613,4.9848,4.9431,4.9234,4.7948,4.7406,4.7363,4.6932,4.6257,4.5468,4.5267,4.4423,4.3259,4.2986,4.1949,4.0622,3.9934,3.8862,3.7663,3.7011,3.5802,3.4635,3.4262,3.3683,3.3111,3.3111,3.2785,3.2283,3.14,2.9988,2.8168,2.5635,2.4362,2.3648,2.3425,2.3368,2.3,2.1846,2.1202,2.0529,1.9591,1.804,1.6844,1.6256,1.3935,1.1976,1.1434,1.0482,0.9822,0.9822,0.9329,0.8587,0.7484,0.6869,0.5403,0.2647,0.2524,0.1725,0.0062,0.0,0.0,0.0,0.0,0.0,0.0,0.0,0.0,0.0,0.0,0.0,0.0,0.0,0.0,4.4209,4.5693,4.7074,4.8677,4.9578,5.0183,5.0604,5.0808,5.0874,5.0882,5.0984,5.1122,5.1185,5.1199,5.1199,5.1199,5.1199,5.1136,5.0932,5.0882,5.0844,5.0693,5.0712,5.0712,5.0712,5.0712,5.0776,5.0913,5.0889,5.0972,5.1084,5.1084,5.1084,5.1084,5.0972,5.0874,5.0867,5.0738,5.0472,5.0087,4.9659,4.9265,4.8827,4.7826,4.7363,4.7277,4.6014,4.5468,4.5425,4.4797,4.4035,4.3139,4.23,4.1396,4.0416,3.8524,3.7805,3.7434,3.5427,3.4718,3.447,3.3428,3.3111,3.3111,3.3111,3.2196,3.1178,3.1134,2.9304,2.6914,2.4325,2.3683,2.3077,2.0933,2.0451,2.0644,2.1395,2.0371,1.9359,1.9372,1.7981,1.6374,1.4777,1.3168,1.1555,0.9997,0.9822,0.9761,0.9761,0.8343,0.7357,0.7235,0.577,0.4119,0.2524,0.2401,0.1725,0.0062,0.0,0.0,0.0,0.0,0.0,0.0,0.0,0.0,0.0,0.0,0.0,3.9702,0.0,0.0,0.0,0.0,0.0,4.7868,4.8667,4.9257,5.0097,5.0309,5.0389,5.0701,5.0791,5.0859,5.0972,5.1045,5.1144,5.1144,5.1025,5.0966,5.0903,5.0795,5.0749,5.0712,5.0712,5.0712,0.0,5.0712,5.0702,5.0767,5.0851,5.0911,5.0966,5.0966,5.0966,5.0966,5.0811,5.0606,5.0325,5.0286,5.0075,4.9645,4.9249,4.8994,4.881,4.7319,4.6682,4.6635,4.585,4.5241,4.4769,4.3972,4.3139,4.2269,4.1363,4.0516,3.9702,3.9126,3.7927,3.6526,3.5974,3.4774,3.3471,3.3197,3.3111,3.3111,3.3111,3.2196,3.0822,2.905,2.7389,2.58,2.4097,2.2968,2.1959,2.0734,1.9757,1.925,1.9858,1.9707,1.901,1.7864,1.6315,1.4718,1.3108,1.1495,1.0301,0.9883,0.9822,0.9329,0.816,0.7667,0.6442,0.4055,0.3444,0.2462,0.0802,0.0679,0.0494,0.0,0.0,0.0,0.0,0.0,0.0,0.0,0.0,0.0,0.0,0.0,0.0,3.9517,3.9773,4.0451,4.1693,0.0,0.0,4.6585,4.7716,4.8638,4.9635,4.9859,4.9924,5.0159,5.0336,5.0434,5.0322,5.0506,5.0751,5.0984,5.0959,5.0898,5.0811,5.0587,5.0462,5.0462,5.0313,5.0195,5.0195,5.0195,5.0195,5.0195,5.043,5.0576,5.0576,5.0713,5.0752,5.0576,5.0497,5.023,4.9859,4.9859,4.9631,4.9249,4.8994,4.8672,4.8198,4.695,4.6281,4.5965,4.4986,4.4597,4.4497,4.3651,4.2769,4.1853,4.0529,3.9753,3.9228,3.7919,3.6905,3.6053,3.5197,3.4095,3.3111,3.3111,3.3111,3.2982,3.2481,3.1045,2.9258,2.7295,2.6255,2.5235,2.3335,2.2265,2.1345,1.9939,1.9071,1.8664,1.9252,1.8881,1.8098,1.7149,1.5133,1.3287,1.2337,1.0838,0.9822,0.9822,0.9207,0.8465,0.7484,0.6198,0.4606,0.2647,0.1848,0.1048,0.0062,0.0,0.0,0.0,0.0,0.0,0.0,0.0,0.0,0.0,0.0,0.0,0.0,0.0,0.0,3.9773,3.9481,3.9595,4.0451,4.1661,0.0,4.5092,4.6585,4.7901,4.9011,4.922,4.9235,4.9281,4.9583,4.9692,4.9355,4.9662,5.0103,5.0692,5.075,5.0713,5.0566,5.023,5.0024,5.0024,4.97,4.9489,4.9489,4.9489,4.9489,4.9489,4.9846,5.0024,5.0024,5.0369,5.038,5.0024,5.0024,4.9846,4.9431,4.9431,4.9202,4.8724,4.8724,4.8198,4.7255,4.6612,4.5989,4.539,4.3905,4.3739,4.4355,4.338,4.252,4.1626,3.9672,3.905,3.8804,3.5882,3.5359,3.5734,3.3869,3.3197,3.3068,3.2939,3.2896,3.2612,3.1178,2.9258,2.7268,2.5868,2.5479,2.4824,2.2114,2.144,2.0933,1.8947,1.838,1.8427,1.9008,1.7981,1.6903,1.655,1.4113,1.2157,1.1976,1.0717,0.9761,0.9572,0.8282,0.7235,0.6869,0.4239,0.2401,0.2216,0.0863,0.0,0.0,0.0,0.0,0.0,0.0,0.0,0.0,0.0,0.0,0.0,0.0,0.0,0.0,0.0,0.0,4.0485,3.992,3.9595,4.0451,4.093,0.0,4.3962,4.473,4.5441,4.7156,4.7498,4.7599,4.7905,4.8012,4.8048,4.7996,4.8489,4.9085,4.9679,4.9783,4.9756,4.9728,4.9645,4.9603,4.9603,4.9547,4.9489,4.9489,4.9489,4.9489,4.9489,4.9561,4.9603,4.9603,4.9687,4.9687,4.9603,4.9603,4.9416,4.9011,4.9011,4.8547,4.7684,4.7684,4.727,4.6553,4.594,4.5597,4.539,4.3905,4.3413,4.3413,4.182,4.1098,4.0727,3.8759,3.8078,3.7919,3.6408,3.5521,3.4938,3.4511,3.3784,3.2896,3.1865,3.1601,3.1134,2.8912,2.7955,2.7057,2.4669,2.4097,2.3384,2.0641,2.0025,1.9702,1.8728,1.7452,1.6758,1.7346,1.7208,1.6197,1.3586,1.2629,1.1736,1.0482,0.9997,0.9329,0.8033,0.7606,0.6381,0.3751,0.2893,0.1971,0.0617,0.0185,0.0,0.0,0.0,0.0,0.0,0.0,0.0,0.0,0.0,0.0,0.0,0.0,0.0,0.0,0.0,0.0,4.0826,4.006,3.9517,3.992,4.0378,0.0,0.0,4.3223,4.3906,4.5202,4.5439,4.5526,4.5729,4.5922,4.5998,4.581,4.6825,4.7569,4.7368,4.8584,4.9489,4.9489,4.9326,4.9202,4.9202,4.9011,4.8776,4.8474,4.8742,4.8776,4.8474,4.8924,4.9202,4.9202,4.9401,4.9401,4.9202,4.9202,4.8841,4.8142,4.8142,4.7709,4.691,4.691,4.6566,4.5915,4.5182,4.4681,4.4271,4.2675,4.1981,4.1949,4.1062,4.069,4.0385,3.7945,3.7329,3.751,3.54,3.465,3.4635,3.4079,3.3104,3.204,3.14,3.035,2.9143,2.7955,2.7125,2.6215,2.4227,2.3683,2.3035,2.0231,1.9576,1.9136,1.7531,1.6563,1.5669,1.4599,1.4381,1.3888,1.2353,1.1499,1.0695,0.9847,0.9774,0.9207,0.7606,0.6686,0.5219,0.277,0.1725,0.0925,0.0062,0.0,0.0,0.0,0.0,0.0,0.0,0.0,0.0,0.0,0.0,0.0,0.0,0.0,0.0,0.0,0.0,0.0,4.1131,4.017,3.9373,3.9373,3.992,4.0625,0.0,0.0,0.0,4.3385,4.3523,4.3523,4.3523,4.3796,4.3851,4.3435,4.4833,0.0,0.0,4.6663,0.0,4.8845,4.8719,4.8547,4.8439,4.8102,4.7736,4.7219,4.7638,4.7736,4.7255,4.7987,4.8402,4.8402,4.8732,4.8732,4.8402,4.8402,4.799,4.7234,4.7234,4.6864,4.6233,4.6233,4.5815,4.5047,4.4338,4.366,4.2925,4.133,4.069,4.069,4.0519,4.0313,3.9798,3.7167,3.6632,3.6816,3.4037,3.3683,3.422,3.3386,3.2108,3.0822,3.0574,2.8936,2.7173,2.6914,2.6119,2.4922,2.3335,2.2935,2.2265,1.9782,1.9005,1.824,1.6338,1.5416,1.438,1.2196,1.1553,1.1372,1.1511,1.0539,0.97,0.9585,0.9387,0.8678,0.7084,0.5456,0.3812,0.2216,0.0802,0.0,0.0,0.0,0.0,0.0,0.0,0.0,0.0,0.0,0.0,0.0,0.0,0.0,0.0,0.0,0.0,0.0,0.0,0.0,4.1853,4.0653,3.9373,3.9373,3.9481,3.9773,4.0591,0.0,4.1199,4.2045,0.0,4.2204,4.2204,0.0,0.0,4.1428,4.2443,4.2767,4.1181,4.3026,4.5066,4.6585,4.7227,4.7349,4.6725,4.6646,4.6577,4.6507,4.6553,4.6577,4.6507,4.6623,4.6679,4.6679,4.6748,4.6748,4.6679,4.6679,4.6646,4.6507,4.6507,4.6209,4.5597,4.5597,4.4851,4.3558,4.3469,4.2923,4.2045,4.1129,4.069,4.0622,3.9849,3.895,3.7965,3.6682,3.5694,3.4856,3.3556,3.3197,3.3283,3.3154,3.1512,2.9396,2.8308,2.703,2.5654,2.4492,2.4029,2.3335,2.0743,2.0092,1.9679,1.8199,1.6817,1.5856,1.5915,1.3754,1.1815,1.1797,1.064,0.9671,0.9692,0.9538,0.9422,0.9408,0.8278,0.6796,0.5234,0.3719,0.2156,0.0432,0.0123,0.0,0.0,0.0,0.0,0.0,0.0,0.0,0.0,0.0,0.0,0.0,0.0,0.0,0.0,0.0,0.0,0.0,0.0,0.0,4.2738,4.1494,4.0135,0.0,0.0,0.0,3.9849,0.0,4.006,0.0,0.0,0.0,0.0,0.0,0.0,0.0,3.9831,3.9946,0.0,0.0,4.2323,4.302,0.0,0.0,4.569,4.5715,4.5725,4.5865,4.576,4.5725,4.5865,4.6233,4.6389,4.6389,4.6389,4.6389,4.6389,4.6389,4.6198,4.5865,4.5865,4.5545,4.4961,4.4479,4.3877,4.3229,4.2237,4.156,4.1164,4.0309,3.957,3.8971,3.8627,3.8182,3.7663,3.6604,3.5561,3.4553,3.3471,3.3111,3.2853,3.1424,2.9784,2.8143,2.6887,2.5586,2.4412,2.385,2.3117,2.2114,2.0128,1.9576,1.9057,1.6857,1.5849,1.4965,1.344,1.2092,1.0968,1.0275,0.9567,0.9123,0.9123,0.9266,0.9354,0.9316,0.8026,0.6509,0.4913,0.3398,0.1858,0.018,0.0,0.0,0.0,0.0,0.0,0.0,0.0,0.0,0.0,0.0,0.0,0.0,0.0,0.0,0.0,0.0,0.0,0.0,0.0,0.0,4.3323,0.0,0.0,0.0,0.0,0.0,0.0,0.0,0.0,0.0,0.0,0.0,0.0,0.0,3.73,3.713,0.0,3.7564,3.6608,3.8175,3.9639,0.0,0.0,0.0,0.0,4.3687,4.3934,4.4069,4.423,4.4374,4.4544,4.4963,4.5295,4.5544,4.5544,4.5544,4.5544,4.5544,4.5208,4.4544,4.4544,4.43,4.3856,4.3229,4.28,4.252,4.1231,4.0554,4.0274,3.9349,3.8509,3.7767,3.7472,3.7175,3.6855,3.6053,3.5116,3.4095,3.2975,3.237,3.1733,2.9601,2.8308,2.7295,2.5654,2.4461,2.3534,2.2767,2.1862,2.0794,1.942,1.8745,1.7948,1.589,1.4824,1.3642,1.1538,1.0781,1.0186,0.9099,0.8885,0.8885,0.8885,0.9117,0.9104,0.8596,0.7315,0.5822,0.4193,0.275,0.1352,0.0118,0.0,0.0,0.0,0.0,0.0,0.0,0.0,0.0,0.0,0.0,0.0,0.0,0.0,0.0,0.0,0.0,0.0,0.0,0.0,0.0,0.0,0.0,0.0,4.0927,0.0,0.0,0.0,0.0,3.9373,0.0,0.0,0.0,3.7843,3.6982,3.6057,3.5466,3.5864,0.0,0.0,3.5274,3.6977,3.8668,0.0,0.0,0.0,3.9948,4.0549,0.0,4.1499,4.2109,4.2109,4.2141,4.2519,4.338,4.341,4.341,4.341,4.341,4.2953,4.2109,4.2109,4.2077,4.2077,4.2045,4.156,4.0792,4.0724,4.0205,3.9373,3.8294,3.7843,3.7701,3.6643,3.5682,3.4774,3.4733,3.4079,3.2982,3.1689,3.0485,2.9304,2.8049,2.7626,2.7105,2.4522,2.3732,2.3135,2.0487,1.9679,1.9369,1.7989,1.6605,1.5518,1.5411,1.3264,1.1219,1.1109,0.9974,0.894,0.8885,0.8885,0.8885,0.8885,0.8892,0.8448,0.6988,0.5552,0.4008,0.2465,0.099,0.0059,0.0,0.0,0.0,0.0,0.0,0.0,0.0,0.0,0.0,0.0,0.0,0.0,0.0,0.0,0.0,0.0,0.0,0.0,0.0,0.0,0.0,0.0,0.0,4.2078,4.2363,0.0,0.0,0.0,0.0,0.0,0.0,0.0,0.0,0.0,3.6866,3.5386,3.5818,3.4901,3.3959,0.0,3.3098,3.2792,3.2591,3.4406,3.5986,0.0,0.0,0.0,0.0,4.087,4.1396,4.1949,4.1981,4.2141,4.2426,4.2458,4.2458,4.2458,4.2458,4.23,4.1981,4.1981,4.1981,4.1949,4.1396,4.0995,4.0622,3.9331,3.8598,3.8256,3.7175,3.6358,3.5709,3.5319,3.4568,3.3725,3.4428,3.3479,3.1689,3.0463,2.9235,2.8143,2.772,2.6416,2.4865,2.398,2.2416,2.0794,1.9886,1.8262,1.6738,1.6274,1.5091,1.375,1.2778,1.181,1.0836,0.9864,0.9265,0.8885,0.8885,0.8885,0.8885,0.8885,0.8885,0.8719,0.8208,0.6897,0.5743,0.5238,0.3002,0.148,0.148,0.0575,0.0,0.0,0.0,0.0,0.0,0.0,0.0,0.0,0.0,0.0,0.0,0.0,0.0,0.0,0.0,0.0,0.0,0.0,0.0,4.4615,4.3768,0.0,4.2831,4.1981,0.0,4.0792,0.0,4.0519,0.0,0.0,0.0,0.0,3.6537,3.5143,3.5116,3.3969,3.2939,0.0,3.1356,3.0124,2.8912,3.1336,3.3472,3.4566,3.6047,3.7618,3.9365,3.9939,4.0481,0.0,4.1062,4.1229,4.1528,4.1528,4.1528,4.1528,4.1528,4.1395,4.1062,4.1062,4.1062,4.1062,4.0516,4.0034,3.9617,3.8339,3.7587,3.7137,3.6093,3.5278,3.4677,3.4262,3.3445,3.25,3.3182,3.1967,2.9806,2.905,2.7631,2.6224,2.6224,2.4749,2.2918,2.2366,2.0998,1.9369,1.8366,1.6791,1.5251,1.477,1.3588,1.2299,1.1319,1.0672,1.0076,0.9099,0.8885,0.8885,0.8885,0.8885,0.8885,0.8885,0.8885,0.8712,0.8208,0.7315,0.6533,0.5977,0.4244,0.3017,0.3017,0.2146,0.1596,0.1604,0.1579,0.1606,0.1684,0.1094,0.0797,0.0863,0.0308,0.0,0.0,0.0,0.0,0.0,0.0,0.0,0.0,0.0,0.0]}]]